<?xml version="1.0" encoding="UTF-8" standalone="no" ?>
<gpx xmlns="http://www.topografix.com/GPX/1/1" xmlns:xsi="http://www.w3.org/2001/XMLSchema-instance" xsi:schemaLocation="http://www.topografix.com/GPX/1/1 http://www.topografix.com/GPX/1/1/gpx.xsd" version="1.1" creator="VisuGPX - https://www.visugpx.com">
  <metadata>
    <name>Toboggans des chambarans-2013</name>
    <desc><![CDATA[Parcours du 50km de la rando de St Simeon de Bressieux]]></desc>
  </metadata>
  <trk>
    <name><![CDATA[jef26-chambarans-2013]]></name>
    <trkseg>
      <trkpt lat="45.32899" lon="5.26721">
        <ele>386</ele>
        <time>2013-11-11T07:07:52Z</time>
      </trkpt>
      <trkpt lat="45.32901" lon="5.26748">
        <ele>386</ele>
        <time>2013-11-11T07:07:58Z</time>
      </trkpt>
      <trkpt lat="45.32901" lon="5.26775">
        <ele>386</ele>
        <time>2013-11-11T07:08:04Z</time>
      </trkpt>
      <trkpt lat="45.32904" lon="5.26802">
        <ele>387</ele>
        <time>2013-11-11T07:08:10Z</time>
      </trkpt>
      <trkpt lat="45.32907" lon="5.26827">
        <ele>386</ele>
        <time>2013-11-11T07:08:18Z</time>
      </trkpt>
      <trkpt lat="45.32909" lon="5.26854">
        <ele>387</ele>
        <time>2013-11-11T07:08:26Z</time>
      </trkpt>
      <trkpt lat="45.32912" lon="5.26879">
        <ele>387</ele>
        <time>2013-11-11T07:08:31Z</time>
      </trkpt>
      <trkpt lat="45.32932" lon="5.26885">
        <ele>387</ele>
        <time>2013-11-11T07:08:37Z</time>
      </trkpt>
      <trkpt lat="45.32953" lon="5.26881">
        <ele>386</ele>
        <time>2013-11-11T07:08:42Z</time>
      </trkpt>
      <trkpt lat="45.3297" lon="5.26888">
        <ele>386</ele>
        <time>2013-11-11T07:08:48Z</time>
      </trkpt>
      <trkpt lat="45.32974" lon="5.26919">
        <ele>386</ele>
        <time>2013-11-11T07:08:55Z</time>
      </trkpt>
      <trkpt lat="45.32977" lon="5.26949">
        <ele>386</ele>
        <time>2013-11-11T07:09:00Z</time>
      </trkpt>
      <trkpt lat="45.32979" lon="5.26977">
        <ele>385</ele>
        <time>2013-11-11T07:09:04Z</time>
      </trkpt>
      <trkpt lat="45.3298" lon="5.27005">
        <ele>385</ele>
        <time>2013-11-11T07:09:08Z</time>
      </trkpt>
      <trkpt lat="45.32982" lon="5.27034">
        <ele>385</ele>
        <time>2013-11-11T07:09:12Z</time>
      </trkpt>
      <trkpt lat="45.32983" lon="5.27061">
        <ele>385</ele>
        <time>2013-11-11T07:09:16Z</time>
      </trkpt>
      <trkpt lat="45.32973" lon="5.27084">
        <ele>386</ele>
        <time>2013-11-11T07:09:21Z</time>
      </trkpt>
      <trkpt lat="45.32954" lon="5.27086">
        <ele>386</ele>
        <time>2013-11-11T07:09:26Z</time>
      </trkpt>
      <trkpt lat="45.32935" lon="5.27089">
        <ele>386</ele>
        <time>2013-11-11T07:09:30Z</time>
      </trkpt>
      <trkpt lat="45.32916" lon="5.27092">
        <ele>387</ele>
        <time>2013-11-11T07:09:34Z</time>
      </trkpt>
      <trkpt lat="45.32897" lon="5.27095">
        <ele>387</ele>
        <time>2013-11-11T07:09:38Z</time>
      </trkpt>
      <trkpt lat="45.32878" lon="5.271">
        <ele>387</ele>
        <time>2013-11-11T07:09:42Z</time>
      </trkpt>
      <trkpt lat="45.3286" lon="5.27107">
        <ele>388</ele>
        <time>2013-11-11T07:09:46Z</time>
      </trkpt>
      <trkpt lat="45.32842" lon="5.27114">
        <ele>388</ele>
        <time>2013-11-11T07:09:50Z</time>
      </trkpt>
      <trkpt lat="45.32821" lon="5.27121">
        <ele>389</ele>
        <time>2013-11-11T07:09:55Z</time>
      </trkpt>
      <trkpt lat="45.32803" lon="5.27124">
        <ele>389</ele>
        <time>2013-11-11T07:09:59Z</time>
      </trkpt>
      <trkpt lat="45.32781" lon="5.27128">
        <ele>390</ele>
        <time>2013-11-11T07:10:04Z</time>
      </trkpt>
      <trkpt lat="45.3276" lon="5.27132">
        <ele>390</ele>
        <time>2013-11-11T07:10:09Z</time>
      </trkpt>
      <trkpt lat="45.32741" lon="5.27136">
        <ele>391</ele>
        <time>2013-11-11T07:10:13Z</time>
      </trkpt>
      <trkpt lat="45.32721" lon="5.27138">
        <ele>391</ele>
        <time>2013-11-11T07:10:18Z</time>
      </trkpt>
      <trkpt lat="45.32701" lon="5.27139">
        <ele>392</ele>
        <time>2013-11-11T07:10:23Z</time>
      </trkpt>
      <trkpt lat="45.3268" lon="5.27138">
        <ele>392</ele>
        <time>2013-11-11T07:10:28Z</time>
      </trkpt>
      <trkpt lat="45.32661" lon="5.27139">
        <ele>392</ele>
        <time>2013-11-11T07:10:32Z</time>
      </trkpt>
      <trkpt lat="45.32641" lon="5.2714">
        <ele>393</ele>
        <time>2013-11-11T07:10:36Z</time>
      </trkpt>
      <trkpt lat="45.32622" lon="5.27141">
        <ele>393</ele>
        <time>2013-11-11T07:10:40Z</time>
      </trkpt>
      <trkpt lat="45.32603" lon="5.27141">
        <ele>393</ele>
        <time>2013-11-11T07:10:44Z</time>
      </trkpt>
      <trkpt lat="45.32581" lon="5.27143">
        <ele>394</ele>
        <time>2013-11-11T07:10:49Z</time>
      </trkpt>
      <trkpt lat="45.32561" lon="5.27143">
        <ele>394</ele>
        <time>2013-11-11T07:10:54Z</time>
      </trkpt>
      <trkpt lat="45.3254" lon="5.27144">
        <ele>395</ele>
        <time>2013-11-11T07:10:59Z</time>
      </trkpt>
      <trkpt lat="45.3253" lon="5.27164">
        <ele>395</ele>
        <time>2013-11-11T07:11:05Z</time>
      </trkpt>
      <trkpt lat="45.32531" lon="5.27195">
        <ele>394</ele>
        <time>2013-11-11T07:11:10Z</time>
      </trkpt>
      <trkpt lat="45.32531" lon="5.27221">
        <ele>394</ele>
        <time>2013-11-11T07:11:14Z</time>
      </trkpt>
      <trkpt lat="45.32528" lon="5.27252">
        <ele>394</ele>
        <time>2013-11-11T07:11:20Z</time>
      </trkpt>
      <trkpt lat="45.32525" lon="5.27281">
        <ele>394</ele>
        <time>2013-11-11T07:11:26Z</time>
      </trkpt>
      <trkpt lat="45.32524" lon="5.27308">
        <ele>394</ele>
        <time>2013-11-11T07:11:33Z</time>
      </trkpt>
      <trkpt lat="45.32523" lon="5.27334">
        <ele>395</ele>
        <time>2013-11-11T07:11:38Z</time>
      </trkpt>
      <trkpt lat="45.32524" lon="5.27364">
        <ele>396</ele>
        <time>2013-11-11T07:11:43Z</time>
      </trkpt>
      <trkpt lat="45.32532" lon="5.27389">
        <ele>397</ele>
        <time>2013-11-11T07:11:49Z</time>
      </trkpt>
      <trkpt lat="45.32545" lon="5.27409">
        <ele>397</ele>
        <time>2013-11-11T07:11:55Z</time>
      </trkpt>
      <trkpt lat="45.32559" lon="5.2743">
        <ele>402</ele>
        <time>2013-11-11T07:12:02Z</time>
      </trkpt>
      <trkpt lat="45.32572" lon="5.27452">
        <ele>404</ele>
        <time>2013-11-11T07:12:10Z</time>
      </trkpt>
      <trkpt lat="45.32584" lon="5.27471">
        <ele>402</ele>
        <time>2013-11-11T07:12:18Z</time>
      </trkpt>
      <trkpt lat="45.32599" lon="5.2749">
        <ele>404</ele>
        <time>2013-11-11T07:12:28Z</time>
      </trkpt>
      <trkpt lat="45.32613" lon="5.2751">
        <ele>411</ele>
        <time>2013-11-11T07:12:38Z</time>
      </trkpt>
      <trkpt lat="45.32629" lon="5.27525">
        <ele>412</ele>
        <time>2013-11-11T07:12:48Z</time>
      </trkpt>
      <trkpt lat="45.32645" lon="5.27539">
        <ele>412</ele>
        <time>2013-11-11T07:12:57Z</time>
      </trkpt>
      <trkpt lat="45.32661" lon="5.27556">
        <ele>414</ele>
        <time>2013-11-11T07:13:06Z</time>
      </trkpt>
      <trkpt lat="45.32669" lon="5.27578">
        <ele>415</ele>
        <time>2013-11-11T07:13:15Z</time>
      </trkpt>
      <trkpt lat="45.32667" lon="5.27606">
        <ele>417</ele>
        <time>2013-11-11T07:13:26Z</time>
      </trkpt>
      <trkpt lat="45.32661" lon="5.27634">
        <ele>424</ele>
        <time>2013-11-11T07:13:37Z</time>
      </trkpt>
      <trkpt lat="45.32656" lon="5.27662">
        <ele>426</ele>
        <time>2013-11-11T07:13:49Z</time>
      </trkpt>
      <trkpt lat="45.32653" lon="5.27688">
        <ele>432</ele>
        <time>2013-11-11T07:14:01Z</time>
      </trkpt>
      <trkpt lat="45.3265" lon="5.27716">
        <ele>435</ele>
        <time>2013-11-11T07:14:13Z</time>
      </trkpt>
      <trkpt lat="45.32651" lon="5.27739">
        <ele>435</ele>
        <time>2013-11-11T07:14:30Z</time>
      </trkpt>
      <trkpt lat="45.3265" lon="5.2776">
        <ele>438</ele>
        <time>2013-11-11T07:14:45Z</time>
      </trkpt>
      <trkpt lat="45.32655" lon="5.27788">
        <ele>439</ele>
        <time>2013-11-11T07:14:58Z</time>
      </trkpt>
      <trkpt lat="45.32656" lon="5.27818">
        <ele>438</ele>
        <time>2013-11-11T07:15:12Z</time>
      </trkpt>
      <trkpt lat="45.32656" lon="5.2785">
        <ele>438</ele>
        <time>2013-11-11T07:15:25Z</time>
      </trkpt>
      <trkpt lat="45.32655" lon="5.2788">
        <ele>439</ele>
        <time>2013-11-11T07:15:37Z</time>
      </trkpt>
      <trkpt lat="45.32641" lon="5.27913">
        <ele>439</ele>
        <time>2013-11-11T07:15:46Z</time>
      </trkpt>
      <trkpt lat="45.32628" lon="5.27941">
        <ele>440</ele>
        <time>2013-11-11T07:15:54Z</time>
      </trkpt>
      <trkpt lat="45.32615" lon="5.27964">
        <ele>440</ele>
        <time>2013-11-11T07:16:03Z</time>
      </trkpt>
      <trkpt lat="45.32601" lon="5.27985">
        <ele>442</ele>
        <time>2013-11-11T07:16:12Z</time>
      </trkpt>
      <trkpt lat="45.32587" lon="5.28004">
        <ele>445</ele>
        <time>2013-11-11T07:16:22Z</time>
      </trkpt>
      <trkpt lat="45.32573" lon="5.28021">
        <ele>451</ele>
        <time>2013-11-11T07:16:33Z</time>
      </trkpt>
      <trkpt lat="45.3256" lon="5.28042">
        <ele>453</ele>
        <time>2013-11-11T07:16:46Z</time>
      </trkpt>
      <trkpt lat="45.32544" lon="5.28058">
        <ele>454</ele>
        <time>2013-11-11T07:16:58Z</time>
      </trkpt>
      <trkpt lat="45.32529" lon="5.28079">
        <ele>457</ele>
        <time>2013-11-11T07:17:14Z</time>
      </trkpt>
      <trkpt lat="45.32515" lon="5.281">
        <ele>459</ele>
        <time>2013-11-11T07:17:27Z</time>
      </trkpt>
      <trkpt lat="45.32502" lon="5.28118">
        <ele>459</ele>
        <time>2013-11-11T07:17:41Z</time>
      </trkpt>
      <trkpt lat="45.32492" lon="5.28138">
        <ele>467</ele>
        <time>2013-11-11T07:17:56Z</time>
      </trkpt>
      <trkpt lat="45.32491" lon="5.28164">
        <ele>465</ele>
        <time>2013-11-11T07:18:08Z</time>
      </trkpt>
      <trkpt lat="45.32485" lon="5.28187">
        <ele>467</ele>
        <time>2013-11-11T07:18:21Z</time>
      </trkpt>
      <trkpt lat="45.32473" lon="5.28213">
        <ele>468</ele>
        <time>2013-11-11T07:18:33Z</time>
      </trkpt>
      <trkpt lat="45.32463" lon="5.28235">
        <ele>469</ele>
        <time>2013-11-11T07:18:45Z</time>
      </trkpt>
      <trkpt lat="45.32453" lon="5.28257">
        <ele>469</ele>
        <time>2013-11-11T07:18:59Z</time>
      </trkpt>
      <trkpt lat="45.3244" lon="5.28282">
        <ele>469</ele>
        <time>2013-11-11T07:19:14Z</time>
      </trkpt>
      <trkpt lat="45.3243" lon="5.28306">
        <ele>470</ele>
        <time>2013-11-11T07:19:27Z</time>
      </trkpt>
      <trkpt lat="45.32419" lon="5.28329">
        <ele>474</ele>
        <time>2013-11-11T07:19:37Z</time>
      </trkpt>
      <trkpt lat="45.32412" lon="5.28353">
        <ele>481</ele>
        <time>2013-11-11T07:19:46Z</time>
      </trkpt>
      <trkpt lat="45.32406" lon="5.28378">
        <ele>483</ele>
        <time>2013-11-11T07:19:56Z</time>
      </trkpt>
      <trkpt lat="45.32398" lon="5.284">
        <ele>482</ele>
        <time>2013-11-11T07:20:06Z</time>
      </trkpt>
      <trkpt lat="45.32388" lon="5.28424">
        <ele>482</ele>
        <time>2013-11-11T07:20:16Z</time>
      </trkpt>
      <trkpt lat="45.32377" lon="5.28445">
        <ele>483</ele>
        <time>2013-11-11T07:20:26Z</time>
      </trkpt>
      <trkpt lat="45.32367" lon="5.28469">
        <ele>484</ele>
        <time>2013-11-11T07:20:36Z</time>
      </trkpt>
      <trkpt lat="45.3236" lon="5.28492">
        <ele>484</ele>
        <time>2013-11-11T07:20:45Z</time>
      </trkpt>
      <trkpt lat="45.32351" lon="5.28515">
        <ele>483</ele>
        <time>2013-11-11T07:20:53Z</time>
      </trkpt>
      <trkpt lat="45.3234" lon="5.28533">
        <ele>482</ele>
        <time>2013-11-11T07:21:00Z</time>
      </trkpt>
      <trkpt lat="45.32326" lon="5.28549">
        <ele>489</ele>
        <time>2013-11-11T07:21:07Z</time>
      </trkpt>
      <trkpt lat="45.32313" lon="5.28566">
        <ele>489</ele>
        <time>2013-11-11T07:21:15Z</time>
      </trkpt>
      <trkpt lat="45.32299" lon="5.28582">
        <ele>490</ele>
        <time>2013-11-11T07:21:23Z</time>
      </trkpt>
      <trkpt lat="45.32285" lon="5.28596">
        <ele>488</ele>
        <time>2013-11-11T07:21:31Z</time>
      </trkpt>
      <trkpt lat="45.3227" lon="5.28611">
        <ele>488</ele>
        <time>2013-11-11T07:21:39Z</time>
      </trkpt>
      <trkpt lat="45.32253" lon="5.28626">
        <ele>488</ele>
        <time>2013-11-11T07:21:47Z</time>
      </trkpt>
      <trkpt lat="45.32235" lon="5.28634">
        <ele>492</ele>
        <time>2013-11-11T07:21:55Z</time>
      </trkpt>
      <trkpt lat="45.32216" lon="5.28636">
        <ele>493</ele>
        <time>2013-11-11T07:22:03Z</time>
      </trkpt>
      <trkpt lat="45.32198" lon="5.28635">
        <ele>493</ele>
        <time>2013-11-11T07:22:12Z</time>
      </trkpt>
      <trkpt lat="45.32186" lon="5.28668">
        <ele>492</ele>
        <time>2013-11-11T07:22:20Z</time>
      </trkpt>
      <trkpt lat="45.32172" lon="5.28691">
        <ele>492</ele>
        <time>2013-11-11T07:22:25Z</time>
      </trkpt>
      <trkpt lat="45.32157" lon="5.28708">
        <ele>493</ele>
        <time>2013-11-11T07:22:30Z</time>
      </trkpt>
      <trkpt lat="45.32143" lon="5.28725">
        <ele>493</ele>
        <time>2013-11-11T07:22:35Z</time>
      </trkpt>
      <trkpt lat="45.32133" lon="5.28748">
        <ele>493</ele>
        <time>2013-11-11T07:22:40Z</time>
      </trkpt>
      <trkpt lat="45.32129" lon="5.28776">
        <ele>492</ele>
        <time>2013-11-11T07:22:45Z</time>
      </trkpt>
      <trkpt lat="45.32122" lon="5.28805">
        <ele>492</ele>
        <time>2013-11-11T07:22:50Z</time>
      </trkpt>
      <trkpt lat="45.32114" lon="5.28833">
        <ele>493</ele>
        <time>2013-11-11T07:22:55Z</time>
      </trkpt>
      <trkpt lat="45.32106" lon="5.28857">
        <ele>493</ele>
        <time>2013-11-11T07:22:59Z</time>
      </trkpt>
      <trkpt lat="45.32086" lon="5.28873">
        <ele>494</ele>
        <time>2013-11-11T07:23:04Z</time>
      </trkpt>
      <trkpt lat="45.32068" lon="5.28883">
        <ele>492</ele>
        <time>2013-11-11T07:23:08Z</time>
      </trkpt>
      <trkpt lat="45.32049" lon="5.28893">
        <ele>492</ele>
        <time>2013-11-11T07:23:13Z</time>
      </trkpt>
      <trkpt lat="45.32031" lon="5.28903">
        <ele>492</ele>
        <time>2013-11-11T07:23:18Z</time>
      </trkpt>
      <trkpt lat="45.32012" lon="5.28911">
        <ele>491</ele>
        <time>2013-11-11T07:23:23Z</time>
      </trkpt>
      <trkpt lat="45.31991" lon="5.28909">
        <ele>490</ele>
        <time>2013-11-11T07:23:28Z</time>
      </trkpt>
      <trkpt lat="45.3197" lon="5.28897">
        <ele>488</ele>
        <time>2013-11-11T07:23:33Z</time>
      </trkpt>
      <trkpt lat="45.31953" lon="5.28883">
        <ele>487</ele>
        <time>2013-11-11T07:23:37Z</time>
      </trkpt>
      <trkpt lat="45.31932" lon="5.28868">
        <ele>486</ele>
        <time>2013-11-11T07:23:41Z</time>
      </trkpt>
      <trkpt lat="45.31913" lon="5.28859">
        <ele>482</ele>
        <time>2013-11-11T07:23:44Z</time>
      </trkpt>
      <trkpt lat="45.31891" lon="5.28854">
        <ele>481</ele>
        <time>2013-11-11T07:23:47Z</time>
      </trkpt>
      <trkpt lat="45.31866" lon="5.28851">
        <ele>479</ele>
        <time>2013-11-11T07:23:50Z</time>
      </trkpt>
      <trkpt lat="45.31847" lon="5.28849">
        <ele>478</ele>
        <time>2013-11-11T07:23:52Z</time>
      </trkpt>
      <trkpt lat="45.31828" lon="5.28846">
        <ele>474</ele>
        <time>2013-11-11T07:23:54Z</time>
      </trkpt>
      <trkpt lat="45.31802" lon="5.28843">
        <ele>473</ele>
        <time>2013-11-11T07:23:57Z</time>
      </trkpt>
      <trkpt lat="45.31783" lon="5.28842">
        <ele>472</ele>
        <time>2013-11-11T07:24:00Z</time>
      </trkpt>
      <trkpt lat="45.31769" lon="5.28846">
        <ele>471</ele>
        <time>2013-11-11T07:24:10Z</time>
      </trkpt>
      <trkpt lat="45.31782" lon="5.28839">
        <ele>471</ele>
        <time>2013-11-11T07:24:22Z</time>
      </trkpt>
      <trkpt lat="45.31803" lon="5.28841">
        <ele>473</ele>
        <time>2013-11-11T07:24:31Z</time>
      </trkpt>
      <trkpt lat="45.31823" lon="5.28845">
        <ele>474</ele>
        <time>2013-11-11T07:24:40Z</time>
      </trkpt>
      <trkpt lat="45.31845" lon="5.28848">
        <ele>477</ele>
        <time>2013-11-11T07:24:50Z</time>
      </trkpt>
      <trkpt lat="45.31864" lon="5.28851">
        <ele>479</ele>
        <time>2013-11-11T07:25:01Z</time>
      </trkpt>
      <trkpt lat="45.31883" lon="5.28853">
        <ele>480</ele>
        <time>2013-11-11T07:25:13Z</time>
      </trkpt>
      <trkpt lat="45.31901" lon="5.28855">
        <ele>481</ele>
        <time>2013-11-11T07:25:24Z</time>
      </trkpt>
      <trkpt lat="45.3192" lon="5.2886">
        <ele>486</ele>
        <time>2013-11-11T07:25:36Z</time>
      </trkpt>
      <trkpt lat="45.31937" lon="5.2887">
        <ele>487</ele>
        <time>2013-11-11T07:25:47Z</time>
      </trkpt>
      <trkpt lat="45.31955" lon="5.28881">
        <ele>487</ele>
        <time>2013-11-11T07:25:59Z</time>
      </trkpt>
      <trkpt lat="45.31973" lon="5.28894">
        <ele>488</ele>
        <time>2013-11-11T07:26:09Z</time>
      </trkpt>
      <trkpt lat="45.3199" lon="5.28907">
        <ele>489</ele>
        <time>2013-11-11T07:26:17Z</time>
      </trkpt>
      <trkpt lat="45.3201" lon="5.28911">
        <ele>491</ele>
        <time>2013-11-11T07:26:25Z</time>
      </trkpt>
      <trkpt lat="45.32029" lon="5.28906">
        <ele>492</ele>
        <time>2013-11-11T07:26:32Z</time>
      </trkpt>
      <trkpt lat="45.32047" lon="5.28895">
        <ele>492</ele>
        <time>2013-11-11T07:26:39Z</time>
      </trkpt>
      <trkpt lat="45.32064" lon="5.28885">
        <ele>492</ele>
        <time>2013-11-11T07:26:46Z</time>
      </trkpt>
      <trkpt lat="45.32083" lon="5.28874">
        <ele>492</ele>
        <time>2013-11-11T07:26:53Z</time>
      </trkpt>
      <trkpt lat="45.321" lon="5.28865">
        <ele>494</ele>
        <time>2013-11-11T07:27:00Z</time>
      </trkpt>
      <trkpt lat="45.32105" lon="5.2888">
        <ele>494</ele>
        <time>2013-11-11T07:27:10Z</time>
      </trkpt>
      <trkpt lat="45.32095" lon="5.28907">
        <ele>495</ele>
        <time>2013-11-11T07:27:17Z</time>
      </trkpt>
      <trkpt lat="45.32082" lon="5.28927">
        <ele>495</ele>
        <time>2013-11-11T07:27:24Z</time>
      </trkpt>
      <trkpt lat="45.32068" lon="5.28947">
        <ele>495</ele>
        <time>2013-11-11T07:27:31Z</time>
      </trkpt>
      <trkpt lat="45.32055" lon="5.28968">
        <ele>495</ele>
        <time>2013-11-11T07:27:37Z</time>
      </trkpt>
      <trkpt lat="45.32043" lon="5.28993">
        <ele>494</ele>
        <time>2013-11-11T07:27:42Z</time>
      </trkpt>
      <trkpt lat="45.32035" lon="5.29016">
        <ele>494</ele>
        <time>2013-11-11T07:27:46Z</time>
      </trkpt>
      <trkpt lat="45.32025" lon="5.29044">
        <ele>494</ele>
        <time>2013-11-11T07:27:50Z</time>
      </trkpt>
      <trkpt lat="45.32018" lon="5.2907">
        <ele>492</ele>
        <time>2013-11-11T07:27:53Z</time>
      </trkpt>
      <trkpt lat="45.32011" lon="5.29098">
        <ele>492</ele>
        <time>2013-11-11T07:27:56Z</time>
      </trkpt>
      <trkpt lat="45.32007" lon="5.2913">
        <ele>493</ele>
        <time>2013-11-11T07:27:59Z</time>
      </trkpt>
      <trkpt lat="45.32006" lon="5.29161">
        <ele>490</ele>
        <time>2013-11-11T07:28:02Z</time>
      </trkpt>
      <trkpt lat="45.32005" lon="5.29189">
        <ele>492</ele>
        <time>2013-11-11T07:28:05Z</time>
      </trkpt>
      <trkpt lat="45.32003" lon="5.29217">
        <ele>493</ele>
        <time>2013-11-11T07:28:08Z</time>
      </trkpt>
      <trkpt lat="45.32002" lon="5.29243">
        <ele>489</ele>
        <time>2013-11-11T07:28:11Z</time>
      </trkpt>
      <trkpt lat="45.31999" lon="5.2927">
        <ele>485</ele>
        <time>2013-11-11T07:28:14Z</time>
      </trkpt>
      <trkpt lat="45.31994" lon="5.29303">
        <ele>485</ele>
        <time>2013-11-11T07:28:18Z</time>
      </trkpt>
      <trkpt lat="45.31988" lon="5.29328">
        <ele>487</ele>
        <time>2013-11-11T07:28:22Z</time>
      </trkpt>
      <trkpt lat="45.31973" lon="5.29351">
        <ele>487</ele>
        <time>2013-11-11T07:28:27Z</time>
      </trkpt>
      <trkpt lat="45.31955" lon="5.29364">
        <ele>486</ele>
        <time>2013-11-11T07:28:31Z</time>
      </trkpt>
      <trkpt lat="45.31936" lon="5.29378">
        <ele>485</ele>
        <time>2013-11-11T07:28:36Z</time>
      </trkpt>
      <trkpt lat="45.31922" lon="5.29401">
        <ele>485</ele>
        <time>2013-11-11T07:28:41Z</time>
      </trkpt>
      <trkpt lat="45.31912" lon="5.29424">
        <ele>486</ele>
        <time>2013-11-11T07:28:46Z</time>
      </trkpt>
      <trkpt lat="45.31903" lon="5.29447">
        <ele>487</ele>
        <time>2013-11-11T07:28:51Z</time>
      </trkpt>
      <trkpt lat="45.31891" lon="5.29465">
        <ele>488</ele>
        <time>2013-11-11T07:28:57Z</time>
      </trkpt>
      <trkpt lat="45.31889" lon="5.29495">
        <ele>488</ele>
        <time>2013-11-11T07:29:03Z</time>
      </trkpt>
      <trkpt lat="45.31889" lon="5.29526">
        <ele>488</ele>
        <time>2013-11-11T07:29:08Z</time>
      </trkpt>
      <trkpt lat="45.31889" lon="5.29552">
        <ele>488</ele>
        <time>2013-11-11T07:29:12Z</time>
      </trkpt>
      <trkpt lat="45.31887" lon="5.29579">
        <ele>488</ele>
        <time>2013-11-11T07:29:16Z</time>
      </trkpt>
      <trkpt lat="45.31885" lon="5.29605">
        <ele>487</ele>
        <time>2013-11-11T07:29:20Z</time>
      </trkpt>
      <trkpt lat="45.31879" lon="5.2963">
        <ele>487</ele>
        <time>2013-11-11T07:29:24Z</time>
      </trkpt>
      <trkpt lat="45.31873" lon="5.29654">
        <ele>487</ele>
        <time>2013-11-11T07:29:28Z</time>
      </trkpt>
      <trkpt lat="45.31865" lon="5.29679">
        <ele>486</ele>
        <time>2013-11-11T07:29:32Z</time>
      </trkpt>
      <trkpt lat="45.31858" lon="5.29705">
        <ele>486</ele>
        <time>2013-11-11T07:29:36Z</time>
      </trkpt>
      <trkpt lat="45.31852" lon="5.29731">
        <ele>485</ele>
        <time>2013-11-11T07:29:40Z</time>
      </trkpt>
      <trkpt lat="45.31847" lon="5.29759">
        <ele>484</ele>
        <time>2013-11-11T07:29:44Z</time>
      </trkpt>
      <trkpt lat="45.31842" lon="5.29784">
        <ele>484</ele>
        <time>2013-11-11T07:29:47Z</time>
      </trkpt>
      <trkpt lat="45.31839" lon="5.29813">
        <ele>483</ele>
        <time>2013-11-11T07:29:50Z</time>
      </trkpt>
      <trkpt lat="45.31835" lon="5.29843">
        <ele>483</ele>
        <time>2013-11-11T07:29:53Z</time>
      </trkpt>
      <trkpt lat="45.31831" lon="5.29871">
        <ele>483</ele>
        <time>2013-11-11T07:29:56Z</time>
      </trkpt>
      <trkpt lat="45.31829" lon="5.29899">
        <ele>483</ele>
        <time>2013-11-11T07:29:59Z</time>
      </trkpt>
      <trkpt lat="45.31827" lon="5.29926">
        <ele>483</ele>
        <time>2013-11-11T07:30:02Z</time>
      </trkpt>
      <trkpt lat="45.31823" lon="5.29951">
        <ele>483</ele>
        <time>2013-11-11T07:30:05Z</time>
      </trkpt>
      <trkpt lat="45.31816" lon="5.29983">
        <ele>482</ele>
        <time>2013-11-11T07:30:09Z</time>
      </trkpt>
      <trkpt lat="45.31816" lon="5.30014">
        <ele>481</ele>
        <time>2013-11-11T07:30:13Z</time>
      </trkpt>
      <trkpt lat="45.31819" lon="5.30043">
        <ele>481</ele>
        <time>2013-11-11T07:30:17Z</time>
      </trkpt>
      <trkpt lat="45.3182" lon="5.30072">
        <ele>481</ele>
        <time>2013-11-11T07:30:21Z</time>
      </trkpt>
      <trkpt lat="45.3182" lon="5.30101">
        <ele>480</ele>
        <time>2013-11-11T07:30:25Z</time>
      </trkpt>
      <trkpt lat="45.31819" lon="5.3013">
        <ele>480</ele>
        <time>2013-11-11T07:30:29Z</time>
      </trkpt>
      <trkpt lat="45.31818" lon="5.30157">
        <ele>480</ele>
        <time>2013-11-11T07:30:33Z</time>
      </trkpt>
      <trkpt lat="45.31816" lon="5.30185">
        <ele>480</ele>
        <time>2013-11-11T07:30:37Z</time>
      </trkpt>
      <trkpt lat="45.31812" lon="5.30214">
        <ele>480</ele>
        <time>2013-11-11T07:30:41Z</time>
      </trkpt>
      <trkpt lat="45.31807" lon="5.30241">
        <ele>480</ele>
        <time>2013-11-11T07:30:45Z</time>
      </trkpt>
      <trkpt lat="45.31801" lon="5.30268">
        <ele>479</ele>
        <time>2013-11-11T07:30:49Z</time>
      </trkpt>
      <trkpt lat="45.31794" lon="5.30298">
        <ele>479</ele>
        <time>2013-11-11T07:30:54Z</time>
      </trkpt>
      <trkpt lat="45.31788" lon="5.30329">
        <ele>478</ele>
        <time>2013-11-11T07:30:59Z</time>
      </trkpt>
      <trkpt lat="45.31788" lon="5.30361">
        <ele>477</ele>
        <time>2013-11-11T07:31:03Z</time>
      </trkpt>
      <trkpt lat="45.31791" lon="5.30393">
        <ele>476</ele>
        <time>2013-11-11T07:31:07Z</time>
      </trkpt>
      <trkpt lat="45.31799" lon="5.30423">
        <ele>474</ele>
        <time>2013-11-11T07:31:11Z</time>
      </trkpt>
      <trkpt lat="45.31808" lon="5.30454">
        <ele>474</ele>
        <time>2013-11-11T07:31:15Z</time>
      </trkpt>
      <trkpt lat="45.31818" lon="5.30477">
        <ele>473</ele>
        <time>2013-11-11T07:31:18Z</time>
      </trkpt>
      <trkpt lat="45.3183" lon="5.30501">
        <ele>473</ele>
        <time>2013-11-11T07:31:21Z</time>
      </trkpt>
      <trkpt lat="45.31843" lon="5.30524">
        <ele>472</ele>
        <time>2013-11-11T07:31:24Z</time>
      </trkpt>
      <trkpt lat="45.31856" lon="5.30545">
        <ele>470</ele>
        <time>2013-11-11T07:31:27Z</time>
      </trkpt>
      <trkpt lat="45.31869" lon="5.30564">
        <ele>470</ele>
        <time>2013-11-11T07:31:30Z</time>
      </trkpt>
      <trkpt lat="45.31886" lon="5.30584">
        <ele>465</ele>
        <time>2013-11-11T07:31:33Z</time>
      </trkpt>
      <trkpt lat="45.31902" lon="5.30606">
        <ele>465</ele>
        <time>2013-11-11T07:31:36Z</time>
      </trkpt>
      <trkpt lat="45.31918" lon="5.30626">
        <ele>469</ele>
        <time>2013-11-11T07:31:39Z</time>
      </trkpt>
      <trkpt lat="45.31935" lon="5.30642">
        <ele>469</ele>
        <time>2013-11-11T07:31:42Z</time>
      </trkpt>
      <trkpt lat="45.31951" lon="5.30664">
        <ele>469</ele>
        <time>2013-11-11T07:31:45Z</time>
      </trkpt>
      <trkpt lat="45.31964" lon="5.30691">
        <ele>465</ele>
        <time>2013-11-11T07:31:48Z</time>
      </trkpt>
      <trkpt lat="45.31976" lon="5.30719">
        <ele>464</ele>
        <time>2013-11-11T07:31:51Z</time>
      </trkpt>
      <trkpt lat="45.3199" lon="5.30746">
        <ele>463</ele>
        <time>2013-11-11T07:31:54Z</time>
      </trkpt>
      <trkpt lat="45.32007" lon="5.30765">
        <ele>457</ele>
        <time>2013-11-11T07:31:57Z</time>
      </trkpt>
      <trkpt lat="45.32026" lon="5.3078">
        <ele>453</ele>
        <time>2013-11-11T07:32:00Z</time>
      </trkpt>
      <trkpt lat="45.32045" lon="5.30786">
        <ele>452</ele>
        <time>2013-11-11T07:32:03Z</time>
      </trkpt>
      <trkpt lat="45.32065" lon="5.30788">
        <ele>451</ele>
        <time>2013-11-11T07:32:06Z</time>
      </trkpt>
      <trkpt lat="45.32085" lon="5.30795">
        <ele>443</ele>
        <time>2013-11-11T07:32:11Z</time>
      </trkpt>
      <trkpt lat="45.32084" lon="5.30824">
        <ele>442</ele>
        <time>2013-11-11T07:32:20Z</time>
      </trkpt>
      <trkpt lat="45.32087" lon="5.30858">
        <ele>437</ele>
        <time>2013-11-11T07:32:25Z</time>
      </trkpt>
      <trkpt lat="45.32071" lon="5.30881">
        <ele>438</ele>
        <time>2013-11-11T07:32:34Z</time>
      </trkpt>
      <trkpt lat="45.32053" lon="5.30889">
        <ele>438</ele>
        <time>2013-11-11T07:32:43Z</time>
      </trkpt>
      <trkpt lat="45.32034" lon="5.3089">
        <ele>438</ele>
        <time>2013-11-11T07:32:50Z</time>
      </trkpt>
      <trkpt lat="45.32015" lon="5.30887">
        <ele>439</ele>
        <time>2013-11-11T07:32:57Z</time>
      </trkpt>
      <trkpt lat="45.31998" lon="5.30876">
        <ele>442</ele>
        <time>2013-11-11T07:33:05Z</time>
      </trkpt>
      <trkpt lat="45.31984" lon="5.3086">
        <ele>443</ele>
        <time>2013-11-11T07:33:12Z</time>
      </trkpt>
      <trkpt lat="45.31969" lon="5.30842">
        <ele>444</ele>
        <time>2013-11-11T07:33:21Z</time>
      </trkpt>
      <trkpt lat="45.31948" lon="5.30834">
        <ele>444</ele>
        <time>2013-11-11T07:33:29Z</time>
      </trkpt>
      <trkpt lat="45.31911" lon="5.3083">
        <ele>446</ele>
        <time>2013-11-11T07:33:35Z</time>
      </trkpt>
      <trkpt lat="45.3189" lon="5.30833">
        <ele>448</ele>
        <time>2013-11-11T07:33:44Z</time>
      </trkpt>
      <trkpt lat="45.31869" lon="5.30836">
        <ele>449</ele>
        <time>2013-11-11T07:34:03Z</time>
      </trkpt>
      <trkpt lat="45.31848" lon="5.30839">
        <ele>450</ele>
        <time>2013-11-11T07:34:23Z</time>
      </trkpt>
      <trkpt lat="45.31825" lon="5.30843">
        <ele>456</ele>
        <time>2013-11-11T07:34:41Z</time>
      </trkpt>
      <trkpt lat="45.31806" lon="5.30847">
        <ele>459</ele>
        <time>2013-11-11T07:34:59Z</time>
      </trkpt>
      <trkpt lat="45.31791" lon="5.30836">
        <ele>461</ele>
        <time>2013-11-11T07:35:38Z</time>
      </trkpt>
      <trkpt lat="45.31776" lon="5.30816">
        <ele>458</ele>
        <time>2013-11-11T07:35:47Z</time>
      </trkpt>
      <trkpt lat="45.31762" lon="5.30797">
        <ele>458</ele>
        <time>2013-11-11T07:35:54Z</time>
      </trkpt>
      <trkpt lat="45.31747" lon="5.30778">
        <ele>466</ele>
        <time>2013-11-11T07:36:01Z</time>
      </trkpt>
      <trkpt lat="45.31729" lon="5.30761">
        <ele>466</ele>
        <time>2013-11-11T07:36:08Z</time>
      </trkpt>
      <trkpt lat="45.31711" lon="5.30746">
        <ele>462</ele>
        <time>2013-11-11T07:36:15Z</time>
      </trkpt>
      <trkpt lat="45.31694" lon="5.30732">
        <ele>464</ele>
        <time>2013-11-11T07:36:23Z</time>
      </trkpt>
      <trkpt lat="45.3168" lon="5.30715">
        <ele>464</ele>
        <time>2013-11-11T07:36:34Z</time>
      </trkpt>
      <trkpt lat="45.31664" lon="5.30699">
        <ele>472</ele>
        <time>2013-11-11T07:36:49Z</time>
      </trkpt>
      <trkpt lat="45.31645" lon="5.30682">
        <ele>471</ele>
        <time>2013-11-11T07:37:00Z</time>
      </trkpt>
      <trkpt lat="45.31627" lon="5.30667">
        <ele>473</ele>
        <time>2013-11-11T07:37:11Z</time>
      </trkpt>
      <trkpt lat="45.31608" lon="5.30656">
        <ele>469</ele>
        <time>2013-11-11T07:37:22Z</time>
      </trkpt>
      <trkpt lat="45.31588" lon="5.30649">
        <ele>471</ele>
        <time>2013-11-11T07:37:33Z</time>
      </trkpt>
      <trkpt lat="45.31568" lon="5.30651">
        <ele>475</ele>
        <time>2013-11-11T07:37:43Z</time>
      </trkpt>
      <trkpt lat="45.31548" lon="5.30656">
        <ele>475</ele>
        <time>2013-11-11T07:37:52Z</time>
      </trkpt>
      <trkpt lat="45.31527" lon="5.30663">
        <ele>475</ele>
        <time>2013-11-11T07:38:01Z</time>
      </trkpt>
      <trkpt lat="45.31513" lon="5.30679">
        <ele>480</ele>
        <time>2013-11-11T07:38:11Z</time>
      </trkpt>
      <trkpt lat="45.31525" lon="5.30701">
        <ele>482</ele>
        <time>2013-11-11T07:38:24Z</time>
      </trkpt>
      <trkpt lat="45.31543" lon="5.30717">
        <ele>482</ele>
        <time>2013-11-11T07:38:38Z</time>
      </trkpt>
      <trkpt lat="45.31559" lon="5.30732">
        <ele>483</ele>
        <time>2013-11-11T07:38:49Z</time>
      </trkpt>
      <trkpt lat="45.31573" lon="5.30749">
        <ele>484</ele>
        <time>2013-11-11T07:39:01Z</time>
      </trkpt>
      <trkpt lat="45.31586" lon="5.30769">
        <ele>486</ele>
        <time>2013-11-11T07:39:14Z</time>
      </trkpt>
      <trkpt lat="45.31593" lon="5.30793">
        <ele>488</ele>
        <time>2013-11-11T07:39:27Z</time>
      </trkpt>
      <trkpt lat="45.31591" lon="5.30817">
        <ele>492</ele>
        <time>2013-11-11T07:39:42Z</time>
      </trkpt>
      <trkpt lat="45.31574" lon="5.30823">
        <ele>496</ele>
        <time>2013-11-11T07:40:00Z</time>
      </trkpt>
      <trkpt lat="45.31554" lon="5.30829">
        <ele>496</ele>
        <time>2013-11-11T07:40:16Z</time>
      </trkpt>
      <trkpt lat="45.31541" lon="5.30834">
        <ele>505</ele>
        <time>2013-11-11T07:40:48Z</time>
      </trkpt>
      <trkpt lat="45.31531" lon="5.30843">
        <ele>506</ele>
        <time>2013-11-11T07:41:19Z</time>
      </trkpt>
      <trkpt lat="45.3151" lon="5.30857">
        <ele>507</ele>
        <time>2013-11-11T07:41:43Z</time>
      </trkpt>
      <trkpt lat="45.31493" lon="5.30872">
        <ele>507</ele>
        <time>2013-11-11T07:42:11Z</time>
      </trkpt>
      <trkpt lat="45.31484" lon="5.30891">
        <ele>509</ele>
        <time>2013-11-11T07:43:18Z</time>
      </trkpt>
      <trkpt lat="45.31483" lon="5.30917">
        <ele>519</ele>
        <time>2013-11-11T07:43:38Z</time>
      </trkpt>
      <trkpt lat="45.31483" lon="5.3094">
        <ele>519</ele>
        <time>2013-11-11T07:44:05Z</time>
      </trkpt>
      <trkpt lat="45.3148" lon="5.30969">
        <ele>521</ele>
        <time>2013-11-11T07:44:31Z</time>
      </trkpt>
      <trkpt lat="45.31478" lon="5.30991">
        <ele>523</ele>
        <time>2013-11-11T07:44:54Z</time>
      </trkpt>
      <trkpt lat="45.31473" lon="5.3101">
        <ele>527</ele>
        <time>2013-11-11T07:46:00Z</time>
      </trkpt>
      <trkpt lat="45.31467" lon="5.31035">
        <ele>527</ele>
        <time>2013-11-11T07:46:12Z</time>
      </trkpt>
      <trkpt lat="45.31469" lon="5.31061">
        <ele>528</ele>
        <time>2013-11-11T07:46:22Z</time>
      </trkpt>
      <trkpt lat="45.31477" lon="5.31086">
        <ele>533</ele>
        <time>2013-11-11T07:46:33Z</time>
      </trkpt>
      <trkpt lat="45.31477" lon="5.31113">
        <ele>533</ele>
        <time>2013-11-11T07:46:44Z</time>
      </trkpt>
      <trkpt lat="45.31474" lon="5.31138">
        <ele>534</ele>
        <time>2013-11-11T07:46:54Z</time>
      </trkpt>
      <trkpt lat="45.31471" lon="5.31165">
        <ele>534</ele>
        <time>2013-11-11T07:47:05Z</time>
      </trkpt>
      <trkpt lat="45.31467" lon="5.31192">
        <ele>538</ele>
        <time>2013-11-11T07:47:16Z</time>
      </trkpt>
      <trkpt lat="45.31463" lon="5.31218">
        <ele>538</ele>
        <time>2013-11-11T07:47:27Z</time>
      </trkpt>
      <trkpt lat="45.31459" lon="5.31244">
        <ele>539</ele>
        <time>2013-11-11T07:47:38Z</time>
      </trkpt>
      <trkpt lat="45.31461" lon="5.31271">
        <ele>544</ele>
        <time>2013-11-11T07:47:50Z</time>
      </trkpt>
      <trkpt lat="45.31471" lon="5.31292">
        <ele>546</ele>
        <time>2013-11-11T07:48:04Z</time>
      </trkpt>
      <trkpt lat="45.31482" lon="5.31312">
        <ele>548</ele>
        <time>2013-11-11T07:48:20Z</time>
      </trkpt>
      <trkpt lat="45.31487" lon="5.31319">
        <ele>550</ele>
        <time>2013-11-11T07:49:53Z</time>
      </trkpt>
      <trkpt lat="45.31488" lon="5.31342">
        <ele>554</ele>
        <time>2013-11-11T07:50:15Z</time>
      </trkpt>
      <trkpt lat="45.31486" lon="5.31347">
        <ele>554</ele>
        <time>2013-11-11T07:52:24Z</time>
      </trkpt>
      <trkpt lat="45.31477" lon="5.31369">
        <ele>555</ele>
        <time>2013-11-11T07:52:38Z</time>
      </trkpt>
      <trkpt lat="45.31467" lon="5.31392">
        <ele>555</ele>
        <time>2013-11-11T07:52:52Z</time>
      </trkpt>
      <trkpt lat="45.31459" lon="5.31415">
        <ele>556</ele>
        <time>2013-11-11T07:53:07Z</time>
      </trkpt>
      <trkpt lat="45.31454" lon="5.31439">
        <ele>563</ele>
        <time>2013-11-11T07:53:23Z</time>
      </trkpt>
      <trkpt lat="45.31455" lon="5.31465">
        <ele>565</ele>
        <time>2013-11-11T07:53:41Z</time>
      </trkpt>
      <trkpt lat="45.31456" lon="5.31491">
        <ele>566</ele>
        <time>2013-11-11T07:53:59Z</time>
      </trkpt>
      <trkpt lat="45.31459" lon="5.31518">
        <ele>574</ele>
        <time>2013-11-11T07:54:17Z</time>
      </trkpt>
      <trkpt lat="45.31466" lon="5.31541">
        <ele>575</ele>
        <time>2013-11-11T07:54:35Z</time>
      </trkpt>
      <trkpt lat="45.31467" lon="5.31566">
        <ele>577</ele>
        <time>2013-11-11T07:54:54Z</time>
      </trkpt>
      <trkpt lat="45.31476" lon="5.31585">
        <ele>584</ele>
        <time>2013-11-11T07:55:40Z</time>
      </trkpt>
      <trkpt lat="45.31485" lon="5.31608">
        <ele>585</ele>
        <time>2013-11-11T07:55:55Z</time>
      </trkpt>
      <trkpt lat="45.31495" lon="5.31631">
        <ele>587</ele>
        <time>2013-11-11T07:56:09Z</time>
      </trkpt>
      <trkpt lat="45.31505" lon="5.31653">
        <ele>589</ele>
        <time>2013-11-11T07:56:22Z</time>
      </trkpt>
      <trkpt lat="45.31505" lon="5.31676">
        <ele>593</ele>
        <time>2013-11-11T07:56:35Z</time>
      </trkpt>
      <trkpt lat="45.31493" lon="5.31696">
        <ele>594</ele>
        <time>2013-11-11T07:56:48Z</time>
      </trkpt>
      <trkpt lat="45.31482" lon="5.31718">
        <ele>595</ele>
        <time>2013-11-11T07:57:00Z</time>
      </trkpt>
      <trkpt lat="45.31476" lon="5.31743">
        <ele>596</ele>
        <time>2013-11-11T07:57:12Z</time>
      </trkpt>
      <trkpt lat="45.31472" lon="5.31768">
        <ele>600</ele>
        <time>2013-11-11T07:57:25Z</time>
      </trkpt>
      <trkpt lat="45.31467" lon="5.31795">
        <ele>602</ele>
        <time>2013-11-11T07:57:39Z</time>
      </trkpt>
      <trkpt lat="45.31459" lon="5.31817">
        <ele>603</ele>
        <time>2013-11-11T07:57:52Z</time>
      </trkpt>
      <trkpt lat="45.31456" lon="5.31842">
        <ele>608</ele>
        <time>2013-11-11T08:01:47Z</time>
      </trkpt>
      <trkpt lat="45.31447" lon="5.31873">
        <ele>610</ele>
        <time>2013-11-11T08:01:59Z</time>
      </trkpt>
      <trkpt lat="45.31442" lon="5.31904">
        <ele>612</ele>
        <time>2013-11-11T08:02:14Z</time>
      </trkpt>
      <trkpt lat="45.31443" lon="5.31944">
        <ele>610</ele>
        <time>2013-11-11T08:02:29Z</time>
      </trkpt>
      <trkpt lat="45.31451" lon="5.31977">
        <ele>608</ele>
        <time>2013-11-11T08:02:35Z</time>
      </trkpt>
      <trkpt lat="45.31448" lon="5.32021">
        <ele>600</ele>
        <time>2013-11-11T08:02:40Z</time>
      </trkpt>
      <trkpt lat="45.31454" lon="5.32071">
        <ele>596</ele>
        <time>2013-11-11T08:02:45Z</time>
      </trkpt>
      <trkpt lat="45.31458" lon="5.32102">
        <ele>589</ele>
        <time>2013-11-11T08:02:49Z</time>
      </trkpt>
      <trkpt lat="45.31455" lon="5.32142">
        <ele>586</ele>
        <time>2013-11-11T08:02:52Z</time>
      </trkpt>
      <trkpt lat="45.31449" lon="5.32178">
        <ele>581</ele>
        <time>2013-11-11T08:02:56Z</time>
      </trkpt>
      <trkpt lat="45.31447" lon="5.32213">
        <ele>581</ele>
        <time>2013-11-11T08:03:00Z</time>
      </trkpt>
      <trkpt lat="45.31446" lon="5.32247">
        <ele>580</ele>
        <time>2013-11-11T08:03:04Z</time>
      </trkpt>
      <trkpt lat="45.31453" lon="5.32274">
        <ele>579</ele>
        <time>2013-11-11T08:03:08Z</time>
      </trkpt>
      <trkpt lat="45.31459" lon="5.323">
        <ele>579</ele>
        <time>2013-11-11T08:03:16Z</time>
      </trkpt>
      <trkpt lat="45.31465" lon="5.32321">
        <ele>579</ele>
        <time>2013-11-11T08:04:23Z</time>
      </trkpt>
      <trkpt lat="45.31478" lon="5.32344">
        <ele>580</ele>
        <time>2013-11-11T08:04:33Z</time>
      </trkpt>
      <trkpt lat="45.31487" lon="5.32368">
        <ele>580</ele>
        <time>2013-11-11T08:04:40Z</time>
      </trkpt>
      <trkpt lat="45.31496" lon="5.3239">
        <ele>582</ele>
        <time>2013-11-11T08:04:48Z</time>
      </trkpt>
      <trkpt lat="45.31513" lon="5.32405">
        <ele>579</ele>
        <time>2013-11-11T08:04:56Z</time>
      </trkpt>
      <trkpt lat="45.31533" lon="5.3243">
        <ele>579</ele>
        <time>2013-11-11T08:05:02Z</time>
      </trkpt>
      <trkpt lat="45.31549" lon="5.32447">
        <ele>577</ele>
        <time>2013-11-11T08:05:08Z</time>
      </trkpt>
      <trkpt lat="45.31568" lon="5.32457">
        <ele>576</ele>
        <time>2013-11-11T08:05:14Z</time>
      </trkpt>
      <trkpt lat="45.31677" lon="5.32585">
        <ele>556</ele>
        <time>2013-11-11T08:05:19Z</time>
      </trkpt>
      <trkpt lat="45.31699" lon="5.32598">
        <ele>552</ele>
        <time>2013-11-11T08:05:22Z</time>
      </trkpt>
      <trkpt lat="45.31718" lon="5.32613">
        <ele>549</ele>
        <time>2013-11-11T08:05:25Z</time>
      </trkpt>
      <trkpt lat="45.31737" lon="5.32632">
        <ele>548</ele>
        <time>2013-11-11T08:05:28Z</time>
      </trkpt>
      <trkpt lat="45.31755" lon="5.32652">
        <ele>535</ele>
        <time>2013-11-11T08:05:31Z</time>
      </trkpt>
      <trkpt lat="45.31775" lon="5.32667">
        <ele>532</ele>
        <time>2013-11-11T08:05:36Z</time>
      </trkpt>
      <trkpt lat="45.31787" lon="5.32695">
        <ele>529</ele>
        <time>2013-11-11T08:05:42Z</time>
      </trkpt>
      <trkpt lat="45.31788" lon="5.32727">
        <ele>529</ele>
        <time>2013-11-11T08:05:47Z</time>
      </trkpt>
      <trkpt lat="45.31786" lon="5.3276">
        <ele>531</ele>
        <time>2013-11-11T08:05:52Z</time>
      </trkpt>
      <trkpt lat="45.31784" lon="5.32791">
        <ele>531</ele>
        <time>2013-11-11T08:05:56Z</time>
      </trkpt>
      <trkpt lat="45.31786" lon="5.32826">
        <ele>531</ele>
        <time>2013-11-11T08:06:01Z</time>
      </trkpt>
      <trkpt lat="45.31802" lon="5.32863">
        <ele>526</ele>
        <time>2013-11-11T08:06:05Z</time>
      </trkpt>
      <trkpt lat="45.31823" lon="5.32897">
        <ele>521</ele>
        <time>2013-11-11T08:06:08Z</time>
      </trkpt>
      <trkpt lat="45.31838" lon="5.32927">
        <ele>510</ele>
        <time>2013-11-11T08:06:11Z</time>
      </trkpt>
      <trkpt lat="45.31861" lon="5.32957">
        <ele>505</ele>
        <time>2013-11-11T08:06:15Z</time>
      </trkpt>
      <trkpt lat="45.31871" lon="5.32989">
        <ele>504</ele>
        <time>2013-11-11T08:06:19Z</time>
      </trkpt>
      <trkpt lat="45.31881" lon="5.33017">
        <ele>503</ele>
        <time>2013-11-11T08:06:23Z</time>
      </trkpt>
      <trkpt lat="45.319" lon="5.33032">
        <ele>501</ele>
        <time>2013-11-11T08:06:29Z</time>
      </trkpt>
      <trkpt lat="45.31922" lon="5.33038">
        <ele>488</ele>
        <time>2013-11-11T08:06:34Z</time>
      </trkpt>
      <trkpt lat="45.31944" lon="5.33054">
        <ele>487</ele>
        <time>2013-11-11T08:06:40Z</time>
      </trkpt>
      <trkpt lat="45.31959" lon="5.3307">
        <ele>486</ele>
        <time>2013-11-11T08:06:48Z</time>
      </trkpt>
      <trkpt lat="45.31977" lon="5.33089">
        <ele>484</ele>
        <time>2013-11-11T08:06:53Z</time>
      </trkpt>
      <trkpt lat="45.31987" lon="5.33115">
        <ele>484</ele>
        <time>2013-11-11T08:06:57Z</time>
      </trkpt>
      <trkpt lat="45.31998" lon="5.33143">
        <ele>483</ele>
        <time>2013-11-11T08:07:01Z</time>
      </trkpt>
      <trkpt lat="45.32015" lon="5.33159">
        <ele>477</ele>
        <time>2013-11-11T08:07:04Z</time>
      </trkpt>
      <trkpt lat="45.32034" lon="5.33172">
        <ele>475</ele>
        <time>2013-11-11T08:07:07Z</time>
      </trkpt>
      <trkpt lat="45.32056" lon="5.33184">
        <ele>472</ele>
        <time>2013-11-11T08:07:10Z</time>
      </trkpt>
      <trkpt lat="45.32072" lon="5.33198">
        <ele>472</ele>
        <time>2013-11-11T08:07:12Z</time>
      </trkpt>
      <trkpt lat="45.32092" lon="5.33218">
        <ele>465</ele>
        <time>2013-11-11T08:07:14Z</time>
      </trkpt>
      <trkpt lat="45.32106" lon="5.33237">
        <ele>465</ele>
        <time>2013-11-11T08:07:16Z</time>
      </trkpt>
      <trkpt lat="45.32117" lon="5.33268">
        <ele>463</ele>
        <time>2013-11-11T08:07:19Z</time>
      </trkpt>
      <trkpt lat="45.32133" lon="5.33282">
        <ele>462</ele>
        <time>2013-11-11T08:07:22Z</time>
      </trkpt>
      <trkpt lat="45.32154" lon="5.33279">
        <ele>461</ele>
        <time>2013-11-11T08:07:25Z</time>
      </trkpt>
      <trkpt lat="45.32177" lon="5.33268">
        <ele>454</ele>
        <time>2013-11-11T08:07:28Z</time>
      </trkpt>
      <trkpt lat="45.322" lon="5.3327">
        <ele>452</ele>
        <time>2013-11-11T08:07:32Z</time>
      </trkpt>
      <trkpt lat="45.32221" lon="5.33276">
        <ele>450</ele>
        <time>2013-11-11T08:07:35Z</time>
      </trkpt>
      <trkpt lat="45.32245" lon="5.33283">
        <ele>449</ele>
        <time>2013-11-11T08:07:38Z</time>
      </trkpt>
      <trkpt lat="45.3227" lon="5.33289">
        <ele>443</ele>
        <time>2013-11-11T08:07:41Z</time>
      </trkpt>
      <trkpt lat="45.32288" lon="5.33294">
        <ele>442</ele>
        <time>2013-11-11T08:07:44Z</time>
      </trkpt>
      <trkpt lat="45.32297" lon="5.33271">
        <ele>442</ele>
        <time>2013-11-11T08:07:50Z</time>
      </trkpt>
      <trkpt lat="45.32296" lon="5.33241">
        <ele>442</ele>
        <time>2013-11-11T08:07:55Z</time>
      </trkpt>
      <trkpt lat="45.32296" lon="5.33213">
        <ele>442</ele>
        <time>2013-11-11T08:07:59Z</time>
      </trkpt>
      <trkpt lat="45.32297" lon="5.33186">
        <ele>442</ele>
        <time>2013-11-11T08:08:03Z</time>
      </trkpt>
      <trkpt lat="45.32298" lon="5.33159">
        <ele>441</ele>
        <time>2013-11-11T08:08:07Z</time>
      </trkpt>
      <trkpt lat="45.32299" lon="5.33131">
        <ele>441</ele>
        <time>2013-11-11T08:08:11Z</time>
      </trkpt>
      <trkpt lat="45.32297" lon="5.33104">
        <ele>441</ele>
        <time>2013-11-11T08:08:15Z</time>
      </trkpt>
      <trkpt lat="45.32294" lon="5.33078">
        <ele>440</ele>
        <time>2013-11-11T08:08:19Z</time>
      </trkpt>
      <trkpt lat="45.32295" lon="5.3305">
        <ele>440</ele>
        <time>2013-11-11T08:08:23Z</time>
      </trkpt>
      <trkpt lat="45.32296" lon="5.33022">
        <ele>440</ele>
        <time>2013-11-11T08:08:27Z</time>
      </trkpt>
      <trkpt lat="45.32309" lon="5.33005">
        <ele>439</ele>
        <time>2013-11-11T08:08:31Z</time>
      </trkpt>
      <trkpt lat="45.32333" lon="5.33003">
        <ele>437</ele>
        <time>2013-11-11T08:08:35Z</time>
      </trkpt>
      <trkpt lat="45.32351" lon="5.33002">
        <ele>436</ele>
        <time>2013-11-11T08:08:38Z</time>
      </trkpt>
      <trkpt lat="45.32369" lon="5.33002">
        <ele>435</ele>
        <time>2013-11-11T08:08:41Z</time>
      </trkpt>
      <trkpt lat="45.32388" lon="5.32999">
        <ele>433</ele>
        <time>2013-11-11T08:08:44Z</time>
      </trkpt>
      <trkpt lat="45.32406" lon="5.32987">
        <ele>433</ele>
        <time>2013-11-11T08:08:47Z</time>
      </trkpt>
      <trkpt lat="45.32426" lon="5.32974">
        <ele>430</ele>
        <time>2013-11-11T08:08:51Z</time>
      </trkpt>
      <trkpt lat="45.32446" lon="5.32978">
        <ele>429</ele>
        <time>2013-11-11T08:08:54Z</time>
      </trkpt>
      <trkpt lat="45.32467" lon="5.32986">
        <ele>428</ele>
        <time>2013-11-11T08:08:57Z</time>
      </trkpt>
      <trkpt lat="45.32491" lon="5.32995">
        <ele>426</ele>
        <time>2013-11-11T08:09:00Z</time>
      </trkpt>
      <trkpt lat="45.32509" lon="5.33">
        <ele>424</ele>
        <time>2013-11-11T08:09:02Z</time>
      </trkpt>
      <trkpt lat="45.32528" lon="5.33006">
        <ele>424</ele>
        <time>2013-11-11T08:09:04Z</time>
      </trkpt>
      <trkpt lat="45.32546" lon="5.33012">
        <ele>423</ele>
        <time>2013-11-11T08:09:06Z</time>
      </trkpt>
      <trkpt lat="45.32573" lon="5.3302">
        <ele>422</ele>
        <time>2013-11-11T08:09:09Z</time>
      </trkpt>
      <trkpt lat="45.32599" lon="5.33026">
        <ele>420</ele>
        <time>2013-11-11T08:09:12Z</time>
      </trkpt>
      <trkpt lat="45.32621" lon="5.33032">
        <ele>420</ele>
        <time>2013-11-11T08:09:15Z</time>
      </trkpt>
      <trkpt lat="45.32641" lon="5.33041">
        <ele>420</ele>
        <time>2013-11-11T08:09:18Z</time>
      </trkpt>
      <trkpt lat="45.32661" lon="5.3305">
        <ele>420</ele>
        <time>2013-11-11T08:09:21Z</time>
      </trkpt>
      <trkpt lat="45.32682" lon="5.3306">
        <ele>420</ele>
        <time>2013-11-11T08:09:25Z</time>
      </trkpt>
      <trkpt lat="45.32701" lon="5.33069">
        <ele>419</ele>
        <time>2013-11-11T08:09:29Z</time>
      </trkpt>
      <trkpt lat="45.32721" lon="5.33081">
        <ele>420</ele>
        <time>2013-11-11T08:09:33Z</time>
      </trkpt>
      <trkpt lat="45.32742" lon="5.3309">
        <ele>420</ele>
        <time>2013-11-11T08:09:37Z</time>
      </trkpt>
      <trkpt lat="45.32763" lon="5.33099">
        <ele>420</ele>
        <time>2013-11-11T08:09:41Z</time>
      </trkpt>
      <trkpt lat="45.32777" lon="5.33119">
        <ele>420</ele>
        <time>2013-11-11T08:09:46Z</time>
      </trkpt>
      <trkpt lat="45.32777" lon="5.33147">
        <ele>420</ele>
        <time>2013-11-11T08:09:50Z</time>
      </trkpt>
      <trkpt lat="45.32778" lon="5.33174">
        <ele>421</ele>
        <time>2013-11-11T08:09:54Z</time>
      </trkpt>
      <trkpt lat="45.32779" lon="5.33204">
        <ele>421</ele>
        <time>2013-11-11T08:09:59Z</time>
      </trkpt>
      <trkpt lat="45.32781" lon="5.33233">
        <ele>421</ele>
        <time>2013-11-11T08:10:04Z</time>
      </trkpt>
      <trkpt lat="45.32783" lon="5.3326">
        <ele>421</ele>
        <time>2013-11-11T08:10:09Z</time>
      </trkpt>
      <trkpt lat="45.32784" lon="5.33287">
        <ele>421</ele>
        <time>2013-11-11T08:10:14Z</time>
      </trkpt>
      <trkpt lat="45.32784" lon="5.33316">
        <ele>421</ele>
        <time>2013-11-11T08:10:19Z</time>
      </trkpt>
      <trkpt lat="45.32783" lon="5.33346">
        <ele>421</ele>
        <time>2013-11-11T08:10:24Z</time>
      </trkpt>
      <trkpt lat="45.32781" lon="5.33377">
        <ele>422</ele>
        <time>2013-11-11T08:10:29Z</time>
      </trkpt>
      <trkpt lat="45.32778" lon="5.33406">
        <ele>422</ele>
        <time>2013-11-11T08:10:34Z</time>
      </trkpt>
      <trkpt lat="45.32776" lon="5.33437">
        <ele>423</ele>
        <time>2013-11-11T08:10:39Z</time>
      </trkpt>
      <trkpt lat="45.32773" lon="5.33467">
        <ele>424</ele>
        <time>2013-11-11T08:10:44Z</time>
      </trkpt>
      <trkpt lat="45.32771" lon="5.33497">
        <ele>424</ele>
        <time>2013-11-11T08:10:49Z</time>
      </trkpt>
      <trkpt lat="45.3277" lon="5.33525">
        <ele>424</ele>
        <time>2013-11-11T08:10:54Z</time>
      </trkpt>
      <trkpt lat="45.32772" lon="5.33555">
        <ele>424</ele>
        <time>2013-11-11T08:10:59Z</time>
      </trkpt>
      <trkpt lat="45.32775" lon="5.33581">
        <ele>425</ele>
        <time>2013-11-11T08:11:03Z</time>
      </trkpt>
      <trkpt lat="45.32779" lon="5.33606">
        <ele>425</ele>
        <time>2013-11-11T08:11:07Z</time>
      </trkpt>
      <trkpt lat="45.32783" lon="5.33632">
        <ele>425</ele>
        <time>2013-11-11T08:11:11Z</time>
      </trkpt>
      <trkpt lat="45.32786" lon="5.33658">
        <ele>425</ele>
        <time>2013-11-11T08:11:15Z</time>
      </trkpt>
      <trkpt lat="45.3279" lon="5.33685">
        <ele>426</ele>
        <time>2013-11-11T08:11:19Z</time>
      </trkpt>
      <trkpt lat="45.32792" lon="5.33711">
        <ele>425</ele>
        <time>2013-11-11T08:11:23Z</time>
      </trkpt>
      <trkpt lat="45.32794" lon="5.33737">
        <ele>425</ele>
        <time>2013-11-11T08:11:27Z</time>
      </trkpt>
      <trkpt lat="45.32796" lon="5.33763">
        <ele>426</ele>
        <time>2013-11-11T08:11:31Z</time>
      </trkpt>
      <trkpt lat="45.32799" lon="5.3379">
        <ele>426</ele>
        <time>2013-11-11T08:11:35Z</time>
      </trkpt>
      <trkpt lat="45.32801" lon="5.33817">
        <ele>426</ele>
        <time>2013-11-11T08:11:39Z</time>
      </trkpt>
      <trkpt lat="45.32801" lon="5.33845">
        <ele>427</ele>
        <time>2013-11-11T08:11:43Z</time>
      </trkpt>
      <trkpt lat="45.32802" lon="5.33873">
        <ele>427</ele>
        <time>2013-11-11T08:11:47Z</time>
      </trkpt>
      <trkpt lat="45.32801" lon="5.33901">
        <ele>427</ele>
        <time>2013-11-11T08:11:51Z</time>
      </trkpt>
      <trkpt lat="45.32801" lon="5.33928">
        <ele>427</ele>
        <time>2013-11-11T08:11:55Z</time>
      </trkpt>
      <trkpt lat="45.32801" lon="5.33957">
        <ele>428</ele>
        <time>2013-11-11T08:11:59Z</time>
      </trkpt>
      <trkpt lat="45.32809" lon="5.33981">
        <ele>428</ele>
        <time>2013-11-11T08:12:03Z</time>
      </trkpt>
      <trkpt lat="45.3283" lon="5.33987">
        <ele>427</ele>
        <time>2013-11-11T08:12:07Z</time>
      </trkpt>
      <trkpt lat="45.32854" lon="5.33986">
        <ele>426</ele>
        <time>2013-11-11T08:12:11Z</time>
      </trkpt>
      <trkpt lat="45.32874" lon="5.33989">
        <ele>425</ele>
        <time>2013-11-11T08:12:15Z</time>
      </trkpt>
      <trkpt lat="45.32872" lon="5.34004">
        <ele>426</ele>
        <time>2013-11-11T08:12:27Z</time>
      </trkpt>
      <trkpt lat="45.32852" lon="5.34007">
        <ele>426</ele>
        <time>2013-11-11T08:12:36Z</time>
      </trkpt>
      <trkpt lat="45.32833" lon="5.34007">
        <ele>427</ele>
        <time>2013-11-11T08:12:42Z</time>
      </trkpt>
      <trkpt lat="45.32813" lon="5.34013">
        <ele>427</ele>
        <time>2013-11-11T08:12:48Z</time>
      </trkpt>
      <trkpt lat="45.32794" lon="5.3402">
        <ele>427</ele>
        <time>2013-11-11T08:12:54Z</time>
      </trkpt>
      <trkpt lat="45.32794" lon="5.3405">
        <ele>427</ele>
        <time>2013-11-11T08:13:00Z</time>
      </trkpt>
      <trkpt lat="45.32794" lon="5.3408">
        <ele>427</ele>
        <time>2013-11-11T08:13:05Z</time>
      </trkpt>
      <trkpt lat="45.32795" lon="5.34106">
        <ele>426</ele>
        <time>2013-11-11T08:13:09Z</time>
      </trkpt>
      <trkpt lat="45.32796" lon="5.34134">
        <ele>426</ele>
        <time>2013-11-11T08:13:13Z</time>
      </trkpt>
      <trkpt lat="45.32797" lon="5.3416">
        <ele>426</ele>
        <time>2013-11-11T08:13:17Z</time>
      </trkpt>
      <trkpt lat="45.32797" lon="5.34186">
        <ele>426</ele>
        <time>2013-11-11T08:13:22Z</time>
      </trkpt>
      <trkpt lat="45.32795" lon="5.34213">
        <ele>426</ele>
        <time>2013-11-11T08:13:29Z</time>
      </trkpt>
      <trkpt lat="45.32789" lon="5.3424">
        <ele>426</ele>
        <time>2013-11-11T08:13:37Z</time>
      </trkpt>
      <trkpt lat="45.32781" lon="5.3427">
        <ele>423</ele>
        <time>2013-11-11T08:13:43Z</time>
      </trkpt>
      <trkpt lat="45.3277" lon="5.34309">
        <ele>421</ele>
        <time>2013-11-11T08:13:48Z</time>
      </trkpt>
      <trkpt lat="45.32744" lon="5.34346">
        <ele>420</ele>
        <time>2013-11-11T08:13:53Z</time>
      </trkpt>
      <trkpt lat="45.32723" lon="5.34377">
        <ele>419</ele>
        <time>2013-11-11T08:13:58Z</time>
      </trkpt>
      <trkpt lat="45.32704" lon="5.34396">
        <ele>419</ele>
        <time>2013-11-11T08:14:04Z</time>
      </trkpt>
      <trkpt lat="45.32702" lon="5.34421">
        <ele>416</ele>
        <time>2013-11-11T08:14:12Z</time>
      </trkpt>
      <trkpt lat="45.32696" lon="5.34447">
        <ele>416</ele>
        <time>2013-11-11T08:14:20Z</time>
      </trkpt>
      <trkpt lat="45.32685" lon="5.34469">
        <ele>416</ele>
        <time>2013-11-11T08:14:27Z</time>
      </trkpt>
      <trkpt lat="45.32675" lon="5.3449">
        <ele>416</ele>
        <time>2013-11-11T08:14:33Z</time>
      </trkpt>
      <trkpt lat="45.32673" lon="5.34517">
        <ele>415</ele>
        <time>2013-11-11T08:14:40Z</time>
      </trkpt>
      <trkpt lat="45.32658" lon="5.34533">
        <ele>417</ele>
        <time>2013-11-11T08:14:48Z</time>
      </trkpt>
      <trkpt lat="45.32639" lon="5.3454">
        <ele>417</ele>
        <time>2013-11-11T08:14:54Z</time>
      </trkpt>
      <trkpt lat="45.3262" lon="5.34547">
        <ele>417</ele>
        <time>2013-11-11T08:15:00Z</time>
      </trkpt>
      <trkpt lat="45.32602" lon="5.34555">
        <ele>418</ele>
        <time>2013-11-11T08:15:06Z</time>
      </trkpt>
      <trkpt lat="45.32583" lon="5.34566">
        <ele>419</ele>
        <time>2013-11-11T08:15:13Z</time>
      </trkpt>
      <trkpt lat="45.32567" lon="5.34583">
        <ele>420</ele>
        <time>2013-11-11T08:15:21Z</time>
      </trkpt>
      <trkpt lat="45.32553" lon="5.34599">
        <ele>425</ele>
        <time>2013-11-11T08:15:32Z</time>
      </trkpt>
      <trkpt lat="45.32548" lon="5.34621">
        <ele>426</ele>
        <time>2013-11-11T08:15:46Z</time>
      </trkpt>
      <trkpt lat="45.3255" lon="5.34647">
        <ele>428</ele>
        <time>2013-11-11T08:16:10Z</time>
      </trkpt>
      <trkpt lat="45.32553" lon="5.34677">
        <ele>438</ele>
        <time>2013-11-11T08:16:23Z</time>
      </trkpt>
      <trkpt lat="45.32554" lon="5.34703">
        <ele>440</ele>
        <time>2013-11-11T08:16:36Z</time>
      </trkpt>
      <trkpt lat="45.3256" lon="5.34734">
        <ele>443</ele>
        <time>2013-11-11T08:16:51Z</time>
      </trkpt>
      <trkpt lat="45.32562" lon="5.34761">
        <ele>451</ele>
        <time>2013-11-11T08:17:14Z</time>
      </trkpt>
      <trkpt lat="45.32562" lon="5.34783">
        <ele>452</ele>
        <time>2013-11-11T08:17:46Z</time>
      </trkpt>
      <trkpt lat="45.32561" lon="5.34809">
        <ele>454</ele>
        <time>2013-11-11T08:18:06Z</time>
      </trkpt>
      <trkpt lat="45.32561" lon="5.34835">
        <ele>460</ele>
        <time>2013-11-11T08:18:22Z</time>
      </trkpt>
      <trkpt lat="45.32568" lon="5.34863">
        <ele>460</ele>
        <time>2013-11-11T08:18:43Z</time>
      </trkpt>
      <trkpt lat="45.32579" lon="5.34896">
        <ele>462</ele>
        <time>2013-11-11T08:19:03Z</time>
      </trkpt>
      <trkpt lat="45.32587" lon="5.34922">
        <ele>464</ele>
        <time>2013-11-11T08:19:19Z</time>
      </trkpt>
      <trkpt lat="45.32595" lon="5.34958">
        <ele>463</ele>
        <time>2013-11-11T08:19:40Z</time>
      </trkpt>
      <trkpt lat="45.32602" lon="5.34992">
        <ele>464</ele>
        <time>2013-11-11T08:19:57Z</time>
      </trkpt>
      <trkpt lat="45.32604" lon="5.35022">
        <ele>464</ele>
        <time>2013-11-11T08:20:11Z</time>
      </trkpt>
      <trkpt lat="45.32621" lon="5.35055">
        <ele>463</ele>
        <time>2013-11-11T08:20:25Z</time>
      </trkpt>
      <trkpt lat="45.32628" lon="5.35083">
        <ele>463</ele>
        <time>2013-11-11T08:20:33Z</time>
      </trkpt>
      <trkpt lat="45.32637" lon="5.35115">
        <ele>464</ele>
        <time>2013-11-11T08:20:42Z</time>
      </trkpt>
      <trkpt lat="45.32643" lon="5.35145">
        <ele>465</ele>
        <time>2013-11-11T08:20:50Z</time>
      </trkpt>
      <trkpt lat="45.32649" lon="5.35175">
        <ele>466</ele>
        <time>2013-11-11T08:20:57Z</time>
      </trkpt>
      <trkpt lat="45.32654" lon="5.35206">
        <ele>468</ele>
        <time>2013-11-11T08:21:04Z</time>
      </trkpt>
      <trkpt lat="45.32655" lon="5.35234">
        <ele>469</ele>
        <time>2013-11-11T08:21:10Z</time>
      </trkpt>
      <trkpt lat="45.32652" lon="5.3526">
        <ele>471</ele>
        <time>2013-11-11T08:21:16Z</time>
      </trkpt>
      <trkpt lat="45.32649" lon="5.35289">
        <ele>472</ele>
        <time>2013-11-11T08:21:22Z</time>
      </trkpt>
      <trkpt lat="45.32646" lon="5.35319">
        <ele>472</ele>
        <time>2013-11-11T08:21:28Z</time>
      </trkpt>
      <trkpt lat="45.32647" lon="5.35349">
        <ele>472</ele>
        <time>2013-11-11T08:21:34Z</time>
      </trkpt>
      <trkpt lat="45.32647" lon="5.35377">
        <ele>471</ele>
        <time>2013-11-11T08:21:40Z</time>
      </trkpt>
      <trkpt lat="45.32648" lon="5.35404">
        <ele>471</ele>
        <time>2013-11-11T08:21:46Z</time>
      </trkpt>
      <trkpt lat="45.32646" lon="5.35432">
        <ele>470</ele>
        <time>2013-11-11T08:21:52Z</time>
      </trkpt>
      <trkpt lat="45.32643" lon="5.35461">
        <ele>470</ele>
        <time>2013-11-11T08:21:58Z</time>
      </trkpt>
      <trkpt lat="45.32639" lon="5.35488">
        <ele>470</ele>
        <time>2013-11-11T08:22:04Z</time>
      </trkpt>
      <trkpt lat="45.32637" lon="5.35517">
        <ele>470</ele>
        <time>2013-11-11T08:22:10Z</time>
      </trkpt>
      <trkpt lat="45.32641" lon="5.35545">
        <ele>470</ele>
        <time>2013-11-11T08:22:16Z</time>
      </trkpt>
      <trkpt lat="45.32655" lon="5.35568">
        <ele>470</ele>
        <time>2013-11-11T08:22:22Z</time>
      </trkpt>
      <trkpt lat="45.32684" lon="5.35579">
        <ele>472</ele>
        <time>2013-11-11T08:22:30Z</time>
      </trkpt>
      <trkpt lat="45.32704" lon="5.35593">
        <ele>472</ele>
        <time>2013-11-11T08:22:35Z</time>
      </trkpt>
      <trkpt lat="45.32723" lon="5.35614">
        <ele>473</ele>
        <time>2013-11-11T08:22:41Z</time>
      </trkpt>
      <trkpt lat="45.32739" lon="5.35632">
        <ele>473</ele>
        <time>2013-11-11T08:22:46Z</time>
      </trkpt>
      <trkpt lat="45.32756" lon="5.35651">
        <ele>474</ele>
        <time>2013-11-11T08:22:51Z</time>
      </trkpt>
      <trkpt lat="45.32772" lon="5.35671">
        <ele>475</ele>
        <time>2013-11-11T08:22:57Z</time>
      </trkpt>
      <trkpt lat="45.32778" lon="5.35694">
        <ele>476</ele>
        <time>2013-11-11T08:23:06Z</time>
      </trkpt>
      <trkpt lat="45.32763" lon="5.35715">
        <ele>476</ele>
        <time>2013-11-11T08:23:15Z</time>
      </trkpt>
      <trkpt lat="45.32746" lon="5.35732">
        <ele>475</ele>
        <time>2013-11-11T08:23:22Z</time>
      </trkpt>
      <trkpt lat="45.3273" lon="5.35746">
        <ele>475</ele>
        <time>2013-11-11T08:23:29Z</time>
      </trkpt>
      <trkpt lat="45.32713" lon="5.3576">
        <ele>475</ele>
        <time>2013-11-11T08:23:36Z</time>
      </trkpt>
      <trkpt lat="45.32695" lon="5.35777">
        <ele>475</ele>
        <time>2013-11-11T08:23:44Z</time>
      </trkpt>
      <trkpt lat="45.32675" lon="5.3579">
        <ele>475</ele>
        <time>2013-11-11T08:23:51Z</time>
      </trkpt>
      <trkpt lat="45.32656" lon="5.35797">
        <ele>469</ele>
        <time>2013-11-11T08:23:57Z</time>
      </trkpt>
      <trkpt lat="45.3264" lon="5.35811">
        <ele>468</ele>
        <time>2013-11-11T08:24:02Z</time>
      </trkpt>
      <trkpt lat="45.32628" lon="5.35835">
        <ele>468</ele>
        <time>2013-11-11T08:24:07Z</time>
      </trkpt>
      <trkpt lat="45.32621" lon="5.35863">
        <ele>468</ele>
        <time>2013-11-11T08:24:12Z</time>
      </trkpt>
      <trkpt lat="45.32619" lon="5.3589">
        <ele>468</ele>
        <time>2013-11-11T08:24:16Z</time>
      </trkpt>
      <trkpt lat="45.32617" lon="5.35918">
        <ele>469</ele>
        <time>2013-11-11T08:24:20Z</time>
      </trkpt>
      <trkpt lat="45.32614" lon="5.35949">
        <ele>469</ele>
        <time>2013-11-11T08:24:24Z</time>
      </trkpt>
      <trkpt lat="45.32611" lon="5.3598">
        <ele>468</ele>
        <time>2013-11-11T08:24:28Z</time>
      </trkpt>
      <trkpt lat="45.32608" lon="5.36015">
        <ele>470</ele>
        <time>2013-11-11T08:24:32Z</time>
      </trkpt>
      <trkpt lat="45.32605" lon="5.3605">
        <ele>472</ele>
        <time>2013-11-11T08:24:36Z</time>
      </trkpt>
      <trkpt lat="45.326" lon="5.36079">
        <ele>470</ele>
        <time>2013-11-11T08:24:39Z</time>
      </trkpt>
      <trkpt lat="45.32592" lon="5.36109">
        <ele>474</ele>
        <time>2013-11-11T08:24:42Z</time>
      </trkpt>
      <trkpt lat="45.32584" lon="5.3614">
        <ele>474</ele>
        <time>2013-11-11T08:24:45Z</time>
      </trkpt>
      <trkpt lat="45.32573" lon="5.36175">
        <ele>465</ele>
        <time>2013-11-11T08:24:48Z</time>
      </trkpt>
      <trkpt lat="45.32562" lon="5.36212">
        <ele>464</ele>
        <time>2013-11-11T08:24:51Z</time>
      </trkpt>
      <trkpt lat="45.3255" lon="5.36247">
        <ele>464</ele>
        <time>2013-11-11T08:24:54Z</time>
      </trkpt>
      <trkpt lat="45.32539" lon="5.36281">
        <ele>465</ele>
        <time>2013-11-11T08:24:57Z</time>
      </trkpt>
      <trkpt lat="45.3253" lon="5.36305">
        <ele>464</ele>
        <time>2013-11-11T08:24:59Z</time>
      </trkpt>
      <trkpt lat="45.32517" lon="5.36328">
        <ele>461</ele>
        <time>2013-11-11T08:25:02Z</time>
      </trkpt>
      <trkpt lat="45.32504" lon="5.3635">
        <ele>464</ele>
        <time>2013-11-11T08:25:04Z</time>
      </trkpt>
      <trkpt lat="45.32489" lon="5.36379">
        <ele>456</ele>
        <time>2013-11-11T08:25:07Z</time>
      </trkpt>
      <trkpt lat="45.32476" lon="5.36405">
        <ele>457</ele>
        <time>2013-11-11T08:25:10Z</time>
      </trkpt>
      <trkpt lat="45.32466" lon="5.36431">
        <ele>461</ele>
        <time>2013-11-11T08:25:13Z</time>
      </trkpt>
      <trkpt lat="45.32459" lon="5.36455">
        <ele>461</ele>
        <time>2013-11-11T08:25:16Z</time>
      </trkpt>
      <trkpt lat="45.32451" lon="5.36484">
        <ele>461</ele>
        <time>2013-11-11T08:25:20Z</time>
      </trkpt>
      <trkpt lat="45.32443" lon="5.36513">
        <ele>465</ele>
        <time>2013-11-11T08:25:24Z</time>
      </trkpt>
      <trkpt lat="45.32431" lon="5.36535">
        <ele>465</ele>
        <time>2013-11-11T08:25:28Z</time>
      </trkpt>
      <trkpt lat="45.32415" lon="5.36546">
        <ele>456</ele>
        <time>2013-11-11T08:25:33Z</time>
      </trkpt>
      <trkpt lat="45.32393" lon="5.36554">
        <ele>456</ele>
        <time>2013-11-11T08:25:40Z</time>
      </trkpt>
      <trkpt lat="45.32375" lon="5.36566">
        <ele>457</ele>
        <time>2013-11-11T08:25:46Z</time>
      </trkpt>
      <trkpt lat="45.32356" lon="5.36585">
        <ele>459</ele>
        <time>2013-11-11T08:25:53Z</time>
      </trkpt>
      <trkpt lat="45.32338" lon="5.36602">
        <ele>459</ele>
        <time>2013-11-11T08:25:59Z</time>
      </trkpt>
      <trkpt lat="45.32321" lon="5.36618">
        <ele>458</ele>
        <time>2013-11-11T08:26:05Z</time>
      </trkpt>
      <trkpt lat="45.32304" lon="5.36633">
        <ele>458</ele>
        <time>2013-11-11T08:26:11Z</time>
      </trkpt>
      <trkpt lat="45.32287" lon="5.36648">
        <ele>458</ele>
        <time>2013-11-11T08:26:18Z</time>
      </trkpt>
      <trkpt lat="45.3227" lon="5.3666">
        <ele>458</ele>
        <time>2013-11-11T08:26:27Z</time>
      </trkpt>
      <trkpt lat="45.32274" lon="5.3669">
        <ele>462</ele>
        <time>2013-11-11T08:26:40Z</time>
      </trkpt>
      <trkpt lat="45.32286" lon="5.36716">
        <ele>463</ele>
        <time>2013-11-11T08:26:54Z</time>
      </trkpt>
      <trkpt lat="45.32293" lon="5.36746">
        <ele>464</ele>
        <time>2013-11-11T08:27:08Z</time>
      </trkpt>
      <trkpt lat="45.32283" lon="5.36771">
        <ele>469</ele>
        <time>2013-11-11T08:27:26Z</time>
      </trkpt>
      <trkpt lat="45.32278" lon="5.36797">
        <ele>470</ele>
        <time>2013-11-11T08:27:40Z</time>
      </trkpt>
      <trkpt lat="45.32268" lon="5.36826">
        <ele>472</ele>
        <time>2013-11-11T08:27:51Z</time>
      </trkpt>
      <trkpt lat="45.32266" lon="5.36852">
        <ele>474</ele>
        <time>2013-11-11T08:27:59Z</time>
      </trkpt>
      <trkpt lat="45.32264" lon="5.36878">
        <ele>474</ele>
        <time>2013-11-11T08:28:06Z</time>
      </trkpt>
      <trkpt lat="45.32264" lon="5.36904">
        <ele>475</ele>
        <time>2013-11-11T08:28:13Z</time>
      </trkpt>
      <trkpt lat="45.32264" lon="5.36933">
        <ele>475</ele>
        <time>2013-11-11T08:28:20Z</time>
      </trkpt>
      <trkpt lat="45.32261" lon="5.36962">
        <ele>475</ele>
        <time>2013-11-11T08:28:28Z</time>
      </trkpt>
      <trkpt lat="45.32259" lon="5.36994">
        <ele>475</ele>
        <time>2013-11-11T08:28:49Z</time>
      </trkpt>
      <trkpt lat="45.32264" lon="5.37034">
        <ele>474</ele>
        <time>2013-11-11T08:28:58Z</time>
      </trkpt>
      <trkpt lat="45.32258" lon="5.37062">
        <ele>473</ele>
        <time>2013-11-11T08:29:05Z</time>
      </trkpt>
      <trkpt lat="45.32255" lon="5.37091">
        <ele>473</ele>
        <time>2013-11-11T08:29:12Z</time>
      </trkpt>
      <trkpt lat="45.32251" lon="5.37121">
        <ele>475</ele>
        <time>2013-11-11T08:29:19Z</time>
      </trkpt>
      <trkpt lat="45.32246" lon="5.37149">
        <ele>476</ele>
        <time>2013-11-11T08:29:26Z</time>
      </trkpt>
      <trkpt lat="45.32243" lon="5.37177">
        <ele>476</ele>
        <time>2013-11-11T08:29:33Z</time>
      </trkpt>
      <trkpt lat="45.32241" lon="5.37202">
        <ele>477</ele>
        <time>2013-11-11T08:29:39Z</time>
      </trkpt>
      <trkpt lat="45.32241" lon="5.37221">
        <ele>477</ele>
        <time>2013-11-11T08:30:50Z</time>
      </trkpt>
      <trkpt lat="45.3223" lon="5.37248">
        <ele>477</ele>
        <time>2013-11-11T08:30:57Z</time>
      </trkpt>
      <trkpt lat="45.32223" lon="5.37277">
        <ele>478</ele>
        <time>2013-11-11T08:31:03Z</time>
      </trkpt>
      <trkpt lat="45.32219" lon="5.37291">
        <ele>478</ele>
        <time>2013-11-11T08:31:48Z</time>
      </trkpt>
      <trkpt lat="45.32209" lon="5.37313">
        <ele>479</ele>
        <time>2013-11-11T08:31:55Z</time>
      </trkpt>
      <trkpt lat="45.32199" lon="5.37337">
        <ele>482</ele>
        <time>2013-11-11T08:32:02Z</time>
      </trkpt>
      <trkpt lat="45.32197" lon="5.37363">
        <ele>482</ele>
        <time>2013-11-11T08:32:08Z</time>
      </trkpt>
      <trkpt lat="45.32204" lon="5.37391">
        <ele>482</ele>
        <time>2013-11-11T08:32:14Z</time>
      </trkpt>
      <trkpt lat="45.32209" lon="5.37419">
        <ele>484</ele>
        <time>2013-11-11T08:32:22Z</time>
      </trkpt>
      <trkpt lat="45.32211" lon="5.37446">
        <ele>485</ele>
        <time>2013-11-11T08:32:31Z</time>
      </trkpt>
      <trkpt lat="45.32218" lon="5.37472">
        <ele>484</ele>
        <time>2013-11-11T08:32:40Z</time>
      </trkpt>
      <trkpt lat="45.32208" lon="5.37498">
        <ele>486</ele>
        <time>2013-11-11T08:32:49Z</time>
      </trkpt>
      <trkpt lat="45.32203" lon="5.37527">
        <ele>487</ele>
        <time>2013-11-11T08:32:59Z</time>
      </trkpt>
      <trkpt lat="45.32206" lon="5.37558">
        <ele>487</ele>
        <time>2013-11-11T08:33:07Z</time>
      </trkpt>
      <trkpt lat="45.32213" lon="5.37585">
        <ele>488</ele>
        <time>2013-11-11T08:33:13Z</time>
      </trkpt>
      <trkpt lat="45.32218" lon="5.37614">
        <ele>488</ele>
        <time>2013-11-11T08:33:19Z</time>
      </trkpt>
      <trkpt lat="45.32221" lon="5.37641">
        <ele>488</ele>
        <time>2013-11-11T08:33:24Z</time>
      </trkpt>
      <trkpt lat="45.32222" lon="5.37672">
        <ele>489</ele>
        <time>2013-11-11T08:33:29Z</time>
      </trkpt>
      <trkpt lat="45.32225" lon="5.37697">
        <ele>489</ele>
        <time>2013-11-11T08:33:33Z</time>
      </trkpt>
      <trkpt lat="45.32224" lon="5.37724">
        <ele>488</ele>
        <time>2013-11-11T08:33:39Z</time>
      </trkpt>
      <trkpt lat="45.32226" lon="5.3775">
        <ele>487</ele>
        <time>2013-11-11T08:33:45Z</time>
      </trkpt>
      <trkpt lat="45.32224" lon="5.37778">
        <ele>488</ele>
        <time>2013-11-11T08:33:51Z</time>
      </trkpt>
      <trkpt lat="45.32224" lon="5.37801">
        <ele>488</ele>
        <time>2013-11-11T08:33:57Z</time>
      </trkpt>
      <trkpt lat="45.32224" lon="5.3783">
        <ele>488</ele>
        <time>2013-11-11T08:34:05Z</time>
      </trkpt>
      <trkpt lat="45.32203" lon="5.37858">
        <ele>489</ele>
        <time>2013-11-11T08:34:13Z</time>
      </trkpt>
      <trkpt lat="45.32194" lon="5.37895">
        <ele>490</ele>
        <time>2013-11-11T08:34:24Z</time>
      </trkpt>
      <trkpt lat="45.32192" lon="5.3793">
        <ele>490</ele>
        <time>2013-11-11T08:34:32Z</time>
      </trkpt>
      <trkpt lat="45.32196" lon="5.37959">
        <ele>489</ele>
        <time>2013-11-11T08:34:39Z</time>
      </trkpt>
      <trkpt lat="45.32199" lon="5.37986">
        <ele>489</ele>
        <time>2013-11-11T08:34:49Z</time>
      </trkpt>
      <trkpt lat="45.32194" lon="5.38014">
        <ele>490</ele>
        <time>2013-11-11T08:35:04Z</time>
      </trkpt>
      <trkpt lat="45.32188" lon="5.38042">
        <ele>490</ele>
        <time>2013-11-11T08:35:21Z</time>
      </trkpt>
      <trkpt lat="45.32185" lon="5.38074">
        <ele>491</ele>
        <time>2013-11-11T08:35:37Z</time>
      </trkpt>
      <trkpt lat="45.32183" lon="5.38101">
        <ele>492</ele>
        <time>2013-11-11T08:35:50Z</time>
      </trkpt>
      <trkpt lat="45.32184" lon="5.38128">
        <ele>491</ele>
        <time>2013-11-11T08:36:04Z</time>
      </trkpt>
      <trkpt lat="45.32182" lon="5.38154">
        <ele>492</ele>
        <time>2013-11-11T08:36:19Z</time>
      </trkpt>
      <trkpt lat="45.32174" lon="5.38181">
        <ele>492</ele>
        <time>2013-11-11T08:36:29Z</time>
      </trkpt>
      <trkpt lat="45.32163" lon="5.38207">
        <ele>497</ele>
        <time>2013-11-11T08:36:38Z</time>
      </trkpt>
      <trkpt lat="45.32153" lon="5.3823">
        <ele>495</ele>
        <time>2013-11-11T08:36:48Z</time>
      </trkpt>
      <trkpt lat="45.32137" lon="5.38244">
        <ele>497</ele>
        <time>2013-11-11T08:37:03Z</time>
      </trkpt>
      <trkpt lat="45.32122" lon="5.38259">
        <ele>496</ele>
        <time>2013-11-11T08:37:23Z</time>
      </trkpt>
      <trkpt lat="45.32105" lon="5.38272">
        <ele>497</ele>
        <time>2013-11-11T08:37:37Z</time>
      </trkpt>
      <trkpt lat="45.32094" lon="5.38292">
        <ele>497</ele>
        <time>2013-11-11T08:37:50Z</time>
      </trkpt>
      <trkpt lat="45.32083" lon="5.38312">
        <ele>503</ele>
        <time>2013-11-11T08:38:04Z</time>
      </trkpt>
      <trkpt lat="45.32076" lon="5.38337">
        <ele>501</ele>
        <time>2013-11-11T08:38:20Z</time>
      </trkpt>
      <trkpt lat="45.32066" lon="5.38353">
        <ele>503</ele>
        <time>2013-11-11T08:39:21Z</time>
      </trkpt>
      <trkpt lat="45.32049" lon="5.38373">
        <ele>504</ele>
        <time>2013-11-11T08:39:37Z</time>
      </trkpt>
      <trkpt lat="45.32035" lon="5.38391">
        <ele>505</ele>
        <time>2013-11-11T08:39:54Z</time>
      </trkpt>
      <trkpt lat="45.32021" lon="5.38408">
        <ele>506</ele>
        <time>2013-11-11T08:40:10Z</time>
      </trkpt>
      <trkpt lat="45.32008" lon="5.38426">
        <ele>506</ele>
        <time>2013-11-11T08:40:26Z</time>
      </trkpt>
      <trkpt lat="45.31994" lon="5.38443">
        <ele>511</ele>
        <time>2013-11-11T08:40:39Z</time>
      </trkpt>
      <trkpt lat="45.31979" lon="5.38458">
        <ele>511</ele>
        <time>2013-11-11T08:40:50Z</time>
      </trkpt>
      <trkpt lat="45.31963" lon="5.38472">
        <ele>512</ele>
        <time>2013-11-11T08:41:02Z</time>
      </trkpt>
      <trkpt lat="45.31948" lon="5.38487">
        <ele>513</ele>
        <time>2013-11-11T08:41:17Z</time>
      </trkpt>
      <trkpt lat="45.31933" lon="5.38503">
        <ele>516</ele>
        <time>2013-11-11T08:41:31Z</time>
      </trkpt>
      <trkpt lat="45.31921" lon="5.38524">
        <ele>516</ele>
        <time>2013-11-11T08:41:44Z</time>
      </trkpt>
      <trkpt lat="45.31909" lon="5.38544">
        <ele>526</ele>
        <time>2013-11-11T08:41:59Z</time>
      </trkpt>
      <trkpt lat="45.31902" lon="5.38563">
        <ele>527</ele>
        <time>2013-11-11T08:42:50Z</time>
      </trkpt>
      <trkpt lat="45.3189" lon="5.38583">
        <ele>528</ele>
        <time>2013-11-11T08:43:09Z</time>
      </trkpt>
      <trkpt lat="45.3188" lon="5.38601">
        <ele>533</ele>
        <time>2013-11-11T08:43:31Z</time>
      </trkpt>
      <trkpt lat="45.31866" lon="5.38622">
        <ele>534</ele>
        <time>2013-11-11T08:43:45Z</time>
      </trkpt>
      <trkpt lat="45.3186" lon="5.38644">
        <ele>536</ele>
        <time>2013-11-11T08:44:01Z</time>
      </trkpt>
      <trkpt lat="45.31855" lon="5.38625">
        <ele>535</ele>
        <time>2013-11-11T08:44:36Z</time>
      </trkpt>
      <trkpt lat="45.31846" lon="5.38602">
        <ele>536</ele>
        <time>2013-11-11T08:44:43Z</time>
      </trkpt>
      <trkpt lat="45.31838" lon="5.38577">
        <ele>535</ele>
        <time>2013-11-11T08:44:52Z</time>
      </trkpt>
      <trkpt lat="45.31834" lon="5.38553">
        <ele>531</ele>
        <time>2013-11-11T08:45:05Z</time>
      </trkpt>
      <trkpt lat="45.31814" lon="5.38567">
        <ele>545</ele>
        <time>2013-11-11T08:45:21Z</time>
      </trkpt>
      <trkpt lat="45.31811" lon="5.3859">
        <ele>549</ele>
        <time>2013-11-11T08:45:44Z</time>
      </trkpt>
      <trkpt lat="45.31807" lon="5.38608">
        <ele>552</ele>
        <time>2013-11-11T08:46:54Z</time>
      </trkpt>
      <trkpt lat="45.31805" lon="5.38631">
        <ele>553</ele>
        <time>2013-11-11T08:47:10Z</time>
      </trkpt>
      <trkpt lat="45.31801" lon="5.38656">
        <ele>554</ele>
        <time>2013-11-11T08:47:26Z</time>
      </trkpt>
      <trkpt lat="45.31788" lon="5.38677">
        <ele>558</ele>
        <time>2013-11-11T08:47:51Z</time>
      </trkpt>
      <trkpt lat="45.31779" lon="5.38698">
        <ele>560</ele>
        <time>2013-11-11T08:48:10Z</time>
      </trkpt>
      <trkpt lat="45.31775" lon="5.38722">
        <ele>560</ele>
        <time>2013-11-11T08:48:33Z</time>
      </trkpt>
      <trkpt lat="45.31757" lon="5.38736">
        <ele>563</ele>
        <time>2013-11-11T08:48:58Z</time>
      </trkpt>
      <trkpt lat="45.3174" lon="5.38759">
        <ele>574</ele>
        <time>2013-11-11T08:49:24Z</time>
      </trkpt>
      <trkpt lat="45.31723" lon="5.38779">
        <ele>581</ele>
        <time>2013-11-11T08:49:44Z</time>
      </trkpt>
      <trkpt lat="45.31709" lon="5.38797">
        <ele>584</ele>
        <time>2013-11-11T08:50:06Z</time>
      </trkpt>
      <trkpt lat="45.31696" lon="5.38813">
        <ele>587</ele>
        <time>2013-11-11T08:50:52Z</time>
      </trkpt>
      <trkpt lat="45.31694" lon="5.3884">
        <ele>591</ele>
        <time>2013-11-11T08:51:23Z</time>
      </trkpt>
      <trkpt lat="45.31694" lon="5.38869">
        <ele>590</ele>
        <time>2013-11-11T08:51:42Z</time>
      </trkpt>
      <trkpt lat="45.3169" lon="5.38901">
        <ele>592</ele>
        <time>2013-11-11T08:51:58Z</time>
      </trkpt>
      <trkpt lat="45.3169" lon="5.38936">
        <ele>593</ele>
        <time>2013-11-11T08:52:15Z</time>
      </trkpt>
      <trkpt lat="45.31674" lon="5.38961">
        <ele>593</ele>
        <time>2013-11-11T08:52:31Z</time>
      </trkpt>
      <trkpt lat="45.31667" lon="5.38989">
        <ele>596</ele>
        <time>2013-11-11T08:52:45Z</time>
      </trkpt>
      <trkpt lat="45.31669" lon="5.39017">
        <ele>596</ele>
        <time>2013-11-11T08:52:53Z</time>
      </trkpt>
      <trkpt lat="45.31674" lon="5.39044">
        <ele>594</ele>
        <time>2013-11-11T08:53:01Z</time>
      </trkpt>
      <trkpt lat="45.31676" lon="5.39071">
        <ele>597</ele>
        <time>2013-11-11T08:53:11Z</time>
      </trkpt>
      <trkpt lat="45.31679" lon="5.39097">
        <ele>598</ele>
        <time>2013-11-11T08:53:24Z</time>
      </trkpt>
      <trkpt lat="45.31686" lon="5.39126">
        <ele>598</ele>
        <time>2013-11-11T08:53:41Z</time>
      </trkpt>
      <trkpt lat="45.31669" lon="5.39132">
        <ele>600</ele>
        <time>2013-11-11T08:54:00Z</time>
      </trkpt>
      <trkpt lat="45.31653" lon="5.39124">
        <ele>608</ele>
        <time>2013-11-11T08:54:17Z</time>
      </trkpt>
      <trkpt lat="45.31636" lon="5.39116">
        <ele>609</ele>
        <time>2013-11-11T08:54:37Z</time>
      </trkpt>
      <trkpt lat="45.3162" lon="5.3911">
        <ele>610</ele>
        <time>2013-11-11T08:54:54Z</time>
      </trkpt>
      <trkpt lat="45.31609" lon="5.39107">
        <ele>610</ele>
        <time>2013-11-11T08:56:37Z</time>
      </trkpt>
      <trkpt lat="45.31591" lon="5.39112">
        <ele>611</ele>
        <time>2013-11-11T08:56:50Z</time>
      </trkpt>
      <trkpt lat="45.31575" lon="5.39124">
        <ele>612</ele>
        <time>2013-11-11T08:57:03Z</time>
      </trkpt>
      <trkpt lat="45.31561" lon="5.39142">
        <ele>611</ele>
        <time>2013-11-11T08:57:14Z</time>
      </trkpt>
      <trkpt lat="45.31549" lon="5.39161">
        <ele>610</ele>
        <time>2013-11-11T08:57:21Z</time>
      </trkpt>
      <trkpt lat="45.31544" lon="5.39188">
        <ele>608</ele>
        <time>2013-11-11T08:57:27Z</time>
      </trkpt>
      <trkpt lat="45.31527" lon="5.39189">
        <ele>607</ele>
        <time>2013-11-11T08:57:36Z</time>
      </trkpt>
      <trkpt lat="45.31501" lon="5.39184">
        <ele>605</ele>
        <time>2013-11-11T08:57:45Z</time>
      </trkpt>
      <trkpt lat="45.31493" lon="5.39221">
        <ele>598</ele>
        <time>2013-11-11T08:57:49Z</time>
      </trkpt>
      <trkpt lat="45.31476" lon="5.39243">
        <ele>597</ele>
        <time>2013-11-11T08:57:51Z</time>
      </trkpt>
      <trkpt lat="45.31459" lon="5.39263">
        <ele>597</ele>
        <time>2013-11-11T08:57:53Z</time>
      </trkpt>
      <trkpt lat="45.31442" lon="5.39286">
        <ele>597</ele>
        <time>2013-11-11T08:57:56Z</time>
      </trkpt>
      <trkpt lat="45.31437" lon="5.39309">
        <ele>598</ele>
        <time>2013-11-11T08:58:02Z</time>
      </trkpt>
      <trkpt lat="45.31433" lon="5.39334">
        <ele>599</ele>
        <time>2013-11-11T08:58:12Z</time>
      </trkpt>
      <trkpt lat="45.31419" lon="5.39347">
        <ele>599</ele>
        <time>2013-11-11T08:58:24Z</time>
      </trkpt>
      <trkpt lat="45.31408" lon="5.39369">
        <ele>600</ele>
        <time>2013-11-11T08:58:37Z</time>
      </trkpt>
      <trkpt lat="45.31401" lon="5.39391">
        <ele>600</ele>
        <time>2013-11-11T08:59:05Z</time>
      </trkpt>
      <trkpt lat="45.31401" lon="5.39402">
        <ele>600</ele>
        <time>2013-11-11T09:03:59Z</time>
      </trkpt>
      <trkpt lat="45.31401" lon="5.394">
        <ele>600</ele>
        <time>2013-11-11T09:05:41Z</time>
      </trkpt>
      <trkpt lat="45.31403" lon="5.39392">
        <ele>600</ele>
        <time>2013-11-11T09:07:23Z</time>
      </trkpt>
      <trkpt lat="45.31395" lon="5.39397">
        <ele>600</ele>
        <time>2013-11-11T09:09:13Z</time>
      </trkpt>
      <trkpt lat="45.31381" lon="5.39415">
        <ele>600</ele>
        <time>2013-11-11T09:09:25Z</time>
      </trkpt>
      <trkpt lat="45.3137" lon="5.39435">
        <ele>603</ele>
        <time>2013-11-11T09:09:36Z</time>
      </trkpt>
      <trkpt lat="45.31359" lon="5.39457">
        <ele>604</ele>
        <time>2013-11-11T09:09:50Z</time>
      </trkpt>
      <trkpt lat="45.31347" lon="5.39476">
        <ele>605</ele>
        <time>2013-11-11T09:10:04Z</time>
      </trkpt>
      <trkpt lat="45.31336" lon="5.39499">
        <ele>608</ele>
        <time>2013-11-11T09:10:18Z</time>
      </trkpt>
      <trkpt lat="45.31322" lon="5.3952">
        <ele>613</ele>
        <time>2013-11-11T09:10:32Z</time>
      </trkpt>
      <trkpt lat="45.31309" lon="5.39539">
        <ele>615</ele>
        <time>2013-11-11T09:10:47Z</time>
      </trkpt>
      <trkpt lat="45.31297" lon="5.39558">
        <ele>616</ele>
        <time>2013-11-11T09:11:00Z</time>
      </trkpt>
      <trkpt lat="45.31287" lon="5.39579">
        <ele>618</ele>
        <time>2013-11-11T09:11:15Z</time>
      </trkpt>
      <trkpt lat="45.31277" lon="5.396">
        <ele>625</ele>
        <time>2013-11-11T09:11:33Z</time>
      </trkpt>
      <trkpt lat="45.31263" lon="5.39623">
        <ele>627</ele>
        <time>2013-11-11T09:11:54Z</time>
      </trkpt>
      <trkpt lat="45.31256" lon="5.39647">
        <ele>630</ele>
        <time>2013-11-11T09:12:12Z</time>
      </trkpt>
      <trkpt lat="45.31243" lon="5.39672">
        <ele>638</ele>
        <time>2013-11-11T09:12:36Z</time>
      </trkpt>
      <trkpt lat="45.31229" lon="5.39695">
        <ele>642</ele>
        <time>2013-11-11T09:13:00Z</time>
      </trkpt>
      <trkpt lat="45.31216" lon="5.39706">
        <ele>643</ele>
        <time>2013-11-11T09:14:12Z</time>
      </trkpt>
      <trkpt lat="45.31204" lon="5.39724">
        <ele>645</ele>
        <time>2013-11-11T09:14:42Z</time>
      </trkpt>
      <trkpt lat="45.31191" lon="5.3974">
        <ele>646</ele>
        <time>2013-11-11T09:15:09Z</time>
      </trkpt>
      <trkpt lat="45.3118" lon="5.39756">
        <ele>651</ele>
        <time>2013-11-11T09:15:57Z</time>
      </trkpt>
      <trkpt lat="45.31167" lon="5.39774">
        <ele>652</ele>
        <time>2013-11-11T09:16:29Z</time>
      </trkpt>
      <trkpt lat="45.31156" lon="5.39794">
        <ele>660</ele>
        <time>2013-11-11T09:17:27Z</time>
      </trkpt>
      <trkpt lat="45.31144" lon="5.39815">
        <ele>661</ele>
        <time>2013-11-11T09:17:48Z</time>
      </trkpt>
      <trkpt lat="45.31132" lon="5.39833">
        <ele>666</ele>
        <time>2013-11-11T09:18:09Z</time>
      </trkpt>
      <trkpt lat="45.31122" lon="5.3985">
        <ele>668</ele>
        <time>2013-11-11T09:18:32Z</time>
      </trkpt>
      <trkpt lat="45.31113" lon="5.39874">
        <ele>669</ele>
        <time>2013-11-11T09:18:51Z</time>
      </trkpt>
      <trkpt lat="45.31105" lon="5.39898">
        <ele>671</ele>
        <time>2013-11-11T09:19:10Z</time>
      </trkpt>
      <trkpt lat="45.31099" lon="5.39922">
        <ele>676</ele>
        <time>2013-11-11T09:19:30Z</time>
      </trkpt>
      <trkpt lat="45.31091" lon="5.39947">
        <ele>677</ele>
        <time>2013-11-11T09:19:48Z</time>
      </trkpt>
      <trkpt lat="45.31084" lon="5.39971">
        <ele>680</ele>
        <time>2013-11-11T09:20:05Z</time>
      </trkpt>
      <trkpt lat="45.31076" lon="5.39993">
        <ele>685</ele>
        <time>2013-11-11T09:20:22Z</time>
      </trkpt>
      <trkpt lat="45.31071" lon="5.4002">
        <ele>687</ele>
        <time>2013-11-11T09:20:41Z</time>
      </trkpt>
      <trkpt lat="45.31065" lon="5.40045">
        <ele>688</ele>
        <time>2013-11-11T09:21:02Z</time>
      </trkpt>
      <trkpt lat="45.31061" lon="5.40068">
        <ele>689</ele>
        <time>2013-11-11T09:22:21Z</time>
      </trkpt>
      <trkpt lat="45.31057" lon="5.40092">
        <ele>696</ele>
        <time>2013-11-11T09:22:42Z</time>
      </trkpt>
      <trkpt lat="45.31051" lon="5.40116">
        <ele>697</ele>
        <time>2013-11-11T09:23:08Z</time>
      </trkpt>
      <trkpt lat="45.31046" lon="5.4014">
        <ele>699</ele>
        <time>2013-11-11T09:23:42Z</time>
      </trkpt>
      <trkpt lat="45.31036" lon="5.40163">
        <ele>700</ele>
        <time>2013-11-11T09:24:15Z</time>
      </trkpt>
      <trkpt lat="45.31032" lon="5.40188">
        <ele>710</ele>
        <time>2013-11-11T09:24:45Z</time>
      </trkpt>
      <trkpt lat="45.31031" lon="5.40213">
        <ele>712</ele>
        <time>2013-11-11T09:25:13Z</time>
      </trkpt>
      <trkpt lat="45.31032" lon="5.40236">
        <ele>714</ele>
        <time>2013-11-11T09:25:43Z</time>
      </trkpt>
      <trkpt lat="45.31033" lon="5.40264">
        <ele>722</ele>
        <time>2013-11-11T09:26:13Z</time>
      </trkpt>
      <trkpt lat="45.31036" lon="5.40293">
        <ele>724</ele>
        <time>2013-11-11T09:26:46Z</time>
      </trkpt>
      <trkpt lat="45.31039" lon="5.40318">
        <ele>725</ele>
        <time>2013-11-11T09:27:13Z</time>
      </trkpt>
      <trkpt lat="45.31044" lon="5.40345">
        <ele>730</ele>
        <time>2013-11-11T09:27:44Z</time>
      </trkpt>
      <trkpt lat="45.31051" lon="5.40369">
        <ele>731</ele>
        <time>2013-11-11T09:28:09Z</time>
      </trkpt>
      <trkpt lat="45.31058" lon="5.40391">
        <ele>733</ele>
        <time>2013-11-11T09:28:30Z</time>
      </trkpt>
      <trkpt lat="45.3106" lon="5.40417">
        <ele>736</ele>
        <time>2013-11-11T09:28:41Z</time>
      </trkpt>
      <trkpt lat="45.3106" lon="5.40444">
        <ele>736</ele>
        <time>2013-11-11T09:28:50Z</time>
      </trkpt>
      <trkpt lat="45.31061" lon="5.40471">
        <ele>737</ele>
        <time>2013-11-11T09:28:57Z</time>
      </trkpt>
      <trkpt lat="45.31061" lon="5.40497">
        <ele>739</ele>
        <time>2013-11-11T09:29:04Z</time>
      </trkpt>
      <trkpt lat="45.31059" lon="5.40523">
        <ele>742</ele>
        <time>2013-11-11T09:29:11Z</time>
      </trkpt>
      <trkpt lat="45.31055" lon="5.40548">
        <ele>743</ele>
        <time>2013-11-11T09:29:20Z</time>
      </trkpt>
      <trkpt lat="45.31049" lon="5.4057">
        <ele>743</ele>
        <time>2013-11-11T09:29:43Z</time>
      </trkpt>
      <trkpt lat="45.31044" lon="5.40595">
        <ele>751</ele>
        <time>2013-11-11T09:29:59Z</time>
      </trkpt>
      <trkpt lat="45.31039" lon="5.40621">
        <ele>753</ele>
        <time>2013-11-11T09:30:16Z</time>
      </trkpt>
      <trkpt lat="45.31034" lon="5.40642">
        <ele>755</ele>
        <time>2013-11-11T09:31:00Z</time>
      </trkpt>
      <trkpt lat="45.31026" lon="5.40662">
        <ele>756</ele>
        <time>2013-11-11T09:31:44Z</time>
      </trkpt>
      <trkpt lat="45.31016" lon="5.40684">
        <ele>765</ele>
        <time>2013-11-11T09:31:55Z</time>
      </trkpt>
      <trkpt lat="45.31001" lon="5.40701">
        <ele>767</ele>
        <time>2013-11-11T09:32:06Z</time>
      </trkpt>
      <trkpt lat="45.30983" lon="5.40711">
        <ele>768</ele>
        <time>2013-11-11T09:32:16Z</time>
      </trkpt>
      <trkpt lat="45.30965" lon="5.40718">
        <ele>769</ele>
        <time>2013-11-11T09:32:26Z</time>
      </trkpt>
      <trkpt lat="45.30947" lon="5.40725">
        <ele>770</ele>
        <time>2013-11-11T09:32:36Z</time>
      </trkpt>
      <trkpt lat="45.30928" lon="5.4073">
        <ele>772</ele>
        <time>2013-11-11T09:32:46Z</time>
      </trkpt>
      <trkpt lat="45.3091" lon="5.40737">
        <ele>772</ele>
        <time>2013-11-11T09:32:55Z</time>
      </trkpt>
      <trkpt lat="45.30892" lon="5.40748">
        <ele>770</ele>
        <time>2013-11-11T09:33:04Z</time>
      </trkpt>
      <trkpt lat="45.30881" lon="5.40769">
        <ele>773</ele>
        <time>2013-11-11T09:33:12Z</time>
      </trkpt>
      <trkpt lat="45.30882" lon="5.40797">
        <ele>772</ele>
        <time>2013-11-11T09:33:23Z</time>
      </trkpt>
      <trkpt lat="45.30888" lon="5.40823">
        <ele>774</ele>
        <time>2013-11-11T09:33:33Z</time>
      </trkpt>
      <trkpt lat="45.30898" lon="5.40849">
        <ele>772</ele>
        <time>2013-11-11T09:33:43Z</time>
      </trkpt>
      <trkpt lat="45.30907" lon="5.40874">
        <ele>771</ele>
        <time>2013-11-11T09:33:51Z</time>
      </trkpt>
      <trkpt lat="45.30915" lon="5.40901">
        <ele>773</ele>
        <time>2013-11-11T09:33:57Z</time>
      </trkpt>
      <trkpt lat="45.30923" lon="5.40928">
        <ele>778</ele>
        <time>2013-11-11T09:34:02Z</time>
      </trkpt>
      <trkpt lat="45.30932" lon="5.40958">
        <ele>777</ele>
        <time>2013-11-11T09:34:07Z</time>
      </trkpt>
      <trkpt lat="45.30937" lon="5.40983">
        <ele>776</ele>
        <time>2013-11-11T09:34:11Z</time>
      </trkpt>
      <trkpt lat="45.30938" lon="5.41012">
        <ele>774</ele>
        <time>2013-11-11T09:34:15Z</time>
      </trkpt>
      <trkpt lat="45.30936" lon="5.41038">
        <ele>774</ele>
        <time>2013-11-11T09:34:19Z</time>
      </trkpt>
      <trkpt lat="45.30926" lon="5.41067">
        <ele>772</ele>
        <time>2013-11-11T09:34:24Z</time>
      </trkpt>
      <trkpt lat="45.30916" lon="5.41092">
        <ele>765</ele>
        <time>2013-11-11T09:34:28Z</time>
      </trkpt>
      <trkpt lat="45.30906" lon="5.41118">
        <ele>761</ele>
        <time>2013-11-11T09:34:32Z</time>
      </trkpt>
      <trkpt lat="45.30891" lon="5.41144">
        <ele>760</ele>
        <time>2013-11-11T09:34:36Z</time>
      </trkpt>
      <trkpt lat="45.3087" lon="5.41162">
        <ele>758</ele>
        <time>2013-11-11T09:34:40Z</time>
      </trkpt>
      <trkpt lat="45.30853" lon="5.41182">
        <ele>755</ele>
        <time>2013-11-11T09:34:44Z</time>
      </trkpt>
      <trkpt lat="45.30838" lon="5.41202">
        <ele>754</ele>
        <time>2013-11-11T09:34:49Z</time>
      </trkpt>
      <trkpt lat="45.30824" lon="5.41222">
        <ele>748</ele>
        <time>2013-11-11T09:34:54Z</time>
      </trkpt>
      <trkpt lat="45.30813" lon="5.41246">
        <ele>749</ele>
        <time>2013-11-11T09:34:59Z</time>
      </trkpt>
      <trkpt lat="45.30804" lon="5.4127">
        <ele>747</ele>
        <time>2013-11-11T09:35:03Z</time>
      </trkpt>
      <trkpt lat="45.30798" lon="5.41305">
        <ele>745</ele>
        <time>2013-11-11T09:35:07Z</time>
      </trkpt>
      <trkpt lat="45.30797" lon="5.41336">
        <ele>740</ele>
        <time>2013-11-11T09:35:10Z</time>
      </trkpt>
      <trkpt lat="45.30793" lon="5.41367">
        <ele>739</ele>
        <time>2013-11-11T09:35:13Z</time>
      </trkpt>
      <trkpt lat="45.30787" lon="5.41397">
        <ele>737</ele>
        <time>2013-11-11T09:35:17Z</time>
      </trkpt>
      <trkpt lat="45.30784" lon="5.41425">
        <ele>730</ele>
        <time>2013-11-11T09:35:20Z</time>
      </trkpt>
      <trkpt lat="45.30776" lon="5.41451">
        <ele>728</ele>
        <time>2013-11-11T09:35:23Z</time>
      </trkpt>
      <trkpt lat="45.30769" lon="5.41481">
        <ele>726</ele>
        <time>2013-11-11T09:35:27Z</time>
      </trkpt>
      <trkpt lat="45.30756" lon="5.41507">
        <ele>718</ele>
        <time>2013-11-11T09:35:30Z</time>
      </trkpt>
      <trkpt lat="45.30739" lon="5.41524">
        <ele>712</ele>
        <time>2013-11-11T09:35:33Z</time>
      </trkpt>
      <trkpt lat="45.30719" lon="5.41538">
        <ele>708</ele>
        <time>2013-11-11T09:35:37Z</time>
      </trkpt>
      <trkpt lat="45.30698" lon="5.41553">
        <ele>705</ele>
        <time>2013-11-11T09:35:41Z</time>
      </trkpt>
      <trkpt lat="45.30678" lon="5.41567">
        <ele>702</ele>
        <time>2013-11-11T09:35:45Z</time>
      </trkpt>
      <trkpt lat="45.3066" lon="5.41579">
        <ele>696</ele>
        <time>2013-11-11T09:35:49Z</time>
      </trkpt>
      <trkpt lat="45.3064" lon="5.41596">
        <ele>684</ele>
        <time>2013-11-11T09:35:53Z</time>
      </trkpt>
      <trkpt lat="45.30623" lon="5.41604">
        <ele>681</ele>
        <time>2013-11-11T09:35:56Z</time>
      </trkpt>
      <trkpt lat="45.30602" lon="5.41614">
        <ele>679</ele>
        <time>2013-11-11T09:36:00Z</time>
      </trkpt>
      <trkpt lat="45.30582" lon="5.41627">
        <ele>666</ele>
        <time>2013-11-11T09:36:04Z</time>
      </trkpt>
      <trkpt lat="45.30577" lon="5.41656">
        <ele>664</ele>
        <time>2013-11-11T09:36:08Z</time>
      </trkpt>
      <trkpt lat="45.30581" lon="5.41684">
        <ele>656</ele>
        <time>2013-11-11T09:36:12Z</time>
      </trkpt>
      <trkpt lat="45.30592" lon="5.41708">
        <ele>658</ele>
        <time>2013-11-11T09:36:15Z</time>
      </trkpt>
      <trkpt lat="45.30608" lon="5.41729">
        <ele>655</ele>
        <time>2013-11-11T09:36:18Z</time>
      </trkpt>
      <trkpt lat="45.30627" lon="5.4175">
        <ele>655</ele>
        <time>2013-11-11T09:36:21Z</time>
      </trkpt>
      <trkpt lat="45.30648" lon="5.41767">
        <ele>644</ele>
        <time>2013-11-11T09:36:24Z</time>
      </trkpt>
      <trkpt lat="45.30668" lon="5.41784">
        <ele>645</ele>
        <time>2013-11-11T09:36:27Z</time>
      </trkpt>
      <trkpt lat="45.30686" lon="5.41803">
        <ele>643</ele>
        <time>2013-11-11T09:36:30Z</time>
      </trkpt>
      <trkpt lat="45.30697" lon="5.41826">
        <ele>642</ele>
        <time>2013-11-11T09:36:33Z</time>
      </trkpt>
      <trkpt lat="45.30694" lon="5.41853">
        <ele>638</ele>
        <time>2013-11-11T09:36:37Z</time>
      </trkpt>
      <trkpt lat="45.30674" lon="5.41858">
        <ele>638</ele>
        <time>2013-11-11T09:36:43Z</time>
      </trkpt>
      <trkpt lat="45.30655" lon="5.41858">
        <ele>637</ele>
        <time>2013-11-11T09:36:50Z</time>
      </trkpt>
      <trkpt lat="45.30636" lon="5.41854">
        <ele>636</ele>
        <time>2013-11-11T09:37:18Z</time>
      </trkpt>
      <trkpt lat="45.30617" lon="5.41855">
        <ele>636</ele>
        <time>2013-11-11T09:37:22Z</time>
      </trkpt>
      <trkpt lat="45.30597" lon="5.41864">
        <ele>635</ele>
        <time>2013-11-11T09:37:26Z</time>
      </trkpt>
      <trkpt lat="45.30576" lon="5.41875">
        <ele>631</ele>
        <time>2013-11-11T09:37:30Z</time>
      </trkpt>
      <trkpt lat="45.30553" lon="5.41881">
        <ele>631</ele>
        <time>2013-11-11T09:37:34Z</time>
      </trkpt>
      <trkpt lat="45.30536" lon="5.41888">
        <ele>630</ele>
        <time>2013-11-11T09:37:37Z</time>
      </trkpt>
      <trkpt lat="45.3052" lon="5.41904">
        <ele>629</ele>
        <time>2013-11-11T09:37:40Z</time>
      </trkpt>
      <trkpt lat="45.30506" lon="5.41927">
        <ele>631</ele>
        <time>2013-11-11T09:37:44Z</time>
      </trkpt>
      <trkpt lat="45.30487" lon="5.41939">
        <ele>632</ele>
        <time>2013-11-11T09:37:49Z</time>
      </trkpt>
      <trkpt lat="45.3048" lon="5.41959">
        <ele>634</ele>
        <time>2013-11-11T09:37:56Z</time>
      </trkpt>
      <trkpt lat="45.30492" lon="5.4198">
        <ele>635</ele>
        <time>2013-11-11T09:38:05Z</time>
      </trkpt>
      <trkpt lat="45.30503" lon="5.42003">
        <ele>637</ele>
        <time>2013-11-11T09:38:17Z</time>
      </trkpt>
      <trkpt lat="45.3051" lon="5.42029">
        <ele>644</ele>
        <time>2013-11-11T09:38:31Z</time>
      </trkpt>
      <trkpt lat="45.30517" lon="5.42054">
        <ele>647</ele>
        <time>2013-11-11T09:38:44Z</time>
      </trkpt>
      <trkpt lat="45.30524" lon="5.4208">
        <ele>648</ele>
        <time>2013-11-11T09:38:59Z</time>
      </trkpt>
      <trkpt lat="45.30534" lon="5.42105">
        <ele>656</ele>
        <time>2013-11-11T09:39:14Z</time>
      </trkpt>
      <trkpt lat="45.30537" lon="5.42128">
        <ele>658</ele>
        <time>2013-11-11T09:39:30Z</time>
      </trkpt>
      <trkpt lat="45.30544" lon="5.42153">
        <ele>659</ele>
        <time>2013-11-11T09:39:46Z</time>
      </trkpt>
      <trkpt lat="45.30552" lon="5.42175">
        <ele>665</ele>
        <time>2013-11-11T09:40:02Z</time>
      </trkpt>
      <trkpt lat="45.30548" lon="5.42192">
        <ele>665</ele>
        <time>2013-11-11T09:40:19Z</time>
      </trkpt>
      <trkpt lat="45.30531" lon="5.42179">
        <ele>664</ele>
        <time>2013-11-11T09:40:34Z</time>
      </trkpt>
      <trkpt lat="45.30518" lon="5.42161">
        <ele>658</ele>
        <time>2013-11-11T09:40:50Z</time>
      </trkpt>
      <trkpt lat="45.30504" lon="5.42145">
        <ele>658</ele>
        <time>2013-11-11T09:41:04Z</time>
      </trkpt>
      <trkpt lat="45.30487" lon="5.42132">
        <ele>659</ele>
        <time>2013-11-11T09:41:20Z</time>
      </trkpt>
      <trkpt lat="45.30472" lon="5.42139">
        <ele>660</ele>
        <time>2013-11-11T09:41:36Z</time>
      </trkpt>
      <trkpt lat="45.30481" lon="5.42169">
        <ele>666</ele>
        <time>2013-11-11T09:41:51Z</time>
      </trkpt>
      <trkpt lat="45.30491" lon="5.422">
        <ele>669</ele>
        <time>2013-11-11T09:42:02Z</time>
      </trkpt>
      <trkpt lat="45.30497" lon="5.42229">
        <ele>671</ele>
        <time>2013-11-11T09:42:14Z</time>
      </trkpt>
      <trkpt lat="45.30492" lon="5.42258">
        <ele>675</ele>
        <time>2013-11-11T09:42:37Z</time>
      </trkpt>
      <trkpt lat="45.30482" lon="5.4228">
        <ele>680</ele>
        <time>2013-11-11T09:43:19Z</time>
      </trkpt>
      <trkpt lat="45.30474" lon="5.42304">
        <ele>682</ele>
        <time>2013-11-11T09:43:50Z</time>
      </trkpt>
      <trkpt lat="45.30468" lon="5.42323">
        <ele>683</ele>
        <time>2013-11-11T09:44:20Z</time>
      </trkpt>
      <trkpt lat="45.30485" lon="5.42336">
        <ele>688</ele>
        <time>2013-11-11T09:44:35Z</time>
      </trkpt>
      <trkpt lat="45.30503" lon="5.42347">
        <ele>684</ele>
        <time>2013-11-11T09:44:48Z</time>
      </trkpt>
      <trkpt lat="45.30519" lon="5.42358">
        <ele>686</ele>
        <time>2013-11-11T09:45:00Z</time>
      </trkpt>
      <trkpt lat="45.30534" lon="5.42375">
        <ele>687</ele>
        <time>2013-11-11T09:45:14Z</time>
      </trkpt>
      <trkpt lat="45.30548" lon="5.42392">
        <ele>688</ele>
        <time>2013-11-11T09:45:27Z</time>
      </trkpt>
      <trkpt lat="45.30558" lon="5.42413">
        <ele>689</ele>
        <time>2013-11-11T09:45:39Z</time>
      </trkpt>
      <trkpt lat="45.30568" lon="5.42434">
        <ele>698</ele>
        <time>2013-11-11T09:45:51Z</time>
      </trkpt>
      <trkpt lat="45.30577" lon="5.42458">
        <ele>701</ele>
        <time>2013-11-11T09:46:04Z</time>
      </trkpt>
      <trkpt lat="45.30586" lon="5.42482">
        <ele>704</ele>
        <time>2013-11-11T09:46:16Z</time>
      </trkpt>
      <trkpt lat="45.30593" lon="5.42506">
        <ele>709</ele>
        <time>2013-11-11T09:46:26Z</time>
      </trkpt>
      <trkpt lat="45.306" lon="5.4253">
        <ele>712</ele>
        <time>2013-11-11T09:46:36Z</time>
      </trkpt>
      <trkpt lat="45.30607" lon="5.42558">
        <ele>714</ele>
        <time>2013-11-11T09:46:46Z</time>
      </trkpt>
      <trkpt lat="45.30611" lon="5.42583">
        <ele>715</ele>
        <time>2013-11-11T09:46:57Z</time>
      </trkpt>
      <trkpt lat="45.30615" lon="5.42611">
        <ele>718</ele>
        <time>2013-11-11T09:47:10Z</time>
      </trkpt>
      <trkpt lat="45.30619" lon="5.42637">
        <ele>718</ele>
        <time>2013-11-11T09:47:21Z</time>
      </trkpt>
      <trkpt lat="45.30623" lon="5.42662">
        <ele>718</ele>
        <time>2013-11-11T09:47:30Z</time>
      </trkpt>
      <trkpt lat="45.30627" lon="5.42688">
        <ele>719</ele>
        <time>2013-11-11T09:47:40Z</time>
      </trkpt>
      <trkpt lat="45.30623" lon="5.42713">
        <ele>719</ele>
        <time>2013-11-11T09:47:51Z</time>
      </trkpt>
      <trkpt lat="45.30616" lon="5.42737">
        <ele>720</ele>
        <time>2013-11-11T09:48:05Z</time>
      </trkpt>
      <trkpt lat="45.30612" lon="5.42764">
        <ele>721</ele>
        <time>2013-11-11T09:48:21Z</time>
      </trkpt>
      <trkpt lat="45.30607" lon="5.42793">
        <ele>721</ele>
        <time>2013-11-11T09:48:41Z</time>
      </trkpt>
      <trkpt lat="45.30604" lon="5.42821">
        <ele>722</ele>
        <time>2013-11-11T09:48:59Z</time>
      </trkpt>
      <trkpt lat="45.30593" lon="5.42837">
        <ele>723</ele>
        <time>2013-11-11T09:49:15Z</time>
      </trkpt>
      <trkpt lat="45.30576" lon="5.42833">
        <ele>725</ele>
        <time>2013-11-11T09:49:31Z</time>
      </trkpt>
      <trkpt lat="45.30562" lon="5.42816">
        <ele>727</ele>
        <time>2013-11-11T09:49:45Z</time>
      </trkpt>
      <trkpt lat="45.30545" lon="5.42802">
        <ele>728</ele>
        <time>2013-11-11T09:49:58Z</time>
      </trkpt>
      <trkpt lat="45.30528" lon="5.42792">
        <ele>729</ele>
        <time>2013-11-11T09:50:12Z</time>
      </trkpt>
      <trkpt lat="45.30509" lon="5.42784">
        <ele>731</ele>
        <time>2013-11-11T09:50:26Z</time>
      </trkpt>
      <trkpt lat="45.30491" lon="5.4278">
        <ele>735</ele>
        <time>2013-11-11T09:50:39Z</time>
      </trkpt>
      <trkpt lat="45.30473" lon="5.42771">
        <ele>736</ele>
        <time>2013-11-11T09:50:52Z</time>
      </trkpt>
      <trkpt lat="45.30458" lon="5.42758">
        <ele>737</ele>
        <time>2013-11-11T09:51:04Z</time>
      </trkpt>
      <trkpt lat="45.30443" lon="5.42743">
        <ele>742</ele>
        <time>2013-11-11T09:51:16Z</time>
      </trkpt>
      <trkpt lat="45.30428" lon="5.42726">
        <ele>743</ele>
        <time>2013-11-11T09:51:27Z</time>
      </trkpt>
      <trkpt lat="45.3041" lon="5.42716">
        <ele>748</ele>
        <time>2013-11-11T09:51:39Z</time>
      </trkpt>
      <trkpt lat="45.3039" lon="5.42713">
        <ele>749</ele>
        <time>2013-11-11T09:51:51Z</time>
      </trkpt>
      <trkpt lat="45.30372" lon="5.42712">
        <ele>750</ele>
        <time>2013-11-11T09:52:02Z</time>
      </trkpt>
      <trkpt lat="45.30353" lon="5.42704">
        <ele>751</ele>
        <time>2013-11-11T09:52:14Z</time>
      </trkpt>
      <trkpt lat="45.30339" lon="5.42687">
        <ele>753</ele>
        <time>2013-11-11T09:52:27Z</time>
      </trkpt>
      <trkpt lat="45.30328" lon="5.42666">
        <ele>756</ele>
        <time>2013-11-11T09:52:37Z</time>
      </trkpt>
      <trkpt lat="45.30317" lon="5.42641">
        <ele>755</ele>
        <time>2013-11-11T09:52:45Z</time>
      </trkpt>
      <trkpt lat="45.30306" lon="5.42619">
        <ele>754</ele>
        <time>2013-11-11T09:52:50Z</time>
      </trkpt>
      <trkpt lat="45.30293" lon="5.42599">
        <ele>753</ele>
        <time>2013-11-11T09:52:54Z</time>
      </trkpt>
      <trkpt lat="45.3028" lon="5.4258">
        <ele>748</ele>
        <time>2013-11-11T09:52:58Z</time>
      </trkpt>
      <trkpt lat="45.30265" lon="5.42561">
        <ele>748</ele>
        <time>2013-11-11T09:53:02Z</time>
      </trkpt>
      <trkpt lat="45.30248" lon="5.42544">
        <ele>749</ele>
        <time>2013-11-11T09:53:07Z</time>
      </trkpt>
      <trkpt lat="45.30232" lon="5.4255">
        <ele>750</ele>
        <time>2013-11-11T09:53:16Z</time>
      </trkpt>
      <trkpt lat="45.30216" lon="5.42564">
        <ele>750</ele>
        <time>2013-11-11T09:53:28Z</time>
      </trkpt>
      <trkpt lat="45.30198" lon="5.42555">
        <ele>750</ele>
        <time>2013-11-11T09:53:38Z</time>
      </trkpt>
      <trkpt lat="45.30181" lon="5.42541">
        <ele>750</ele>
        <time>2013-11-11T09:53:45Z</time>
      </trkpt>
      <trkpt lat="45.30163" lon="5.42526">
        <ele>749</ele>
        <time>2013-11-11T09:53:51Z</time>
      </trkpt>
      <trkpt lat="45.30145" lon="5.42511">
        <ele>748</ele>
        <time>2013-11-11T09:53:56Z</time>
      </trkpt>
      <trkpt lat="45.30128" lon="5.42497">
        <ele>744</ele>
        <time>2013-11-11T09:54:00Z</time>
      </trkpt>
      <trkpt lat="45.3011" lon="5.42482">
        <ele>744</ele>
        <time>2013-11-11T09:54:04Z</time>
      </trkpt>
      <trkpt lat="45.30093" lon="5.42467">
        <ele>744</ele>
        <time>2013-11-11T09:54:08Z</time>
      </trkpt>
      <trkpt lat="45.30075" lon="5.42451">
        <ele>746</ele>
        <time>2013-11-11T09:54:12Z</time>
      </trkpt>
      <trkpt lat="45.30061" lon="5.42428">
        <ele>746</ele>
        <time>2013-11-11T09:54:16Z</time>
      </trkpt>
      <trkpt lat="45.30054" lon="5.42401">
        <ele>745</ele>
        <time>2013-11-11T09:54:20Z</time>
      </trkpt>
      <trkpt lat="45.30047" lon="5.42372">
        <ele>744</ele>
        <time>2013-11-11T09:54:24Z</time>
      </trkpt>
      <trkpt lat="45.30035" lon="5.42344">
        <ele>744</ele>
        <time>2013-11-11T09:54:28Z</time>
      </trkpt>
      <trkpt lat="45.30023" lon="5.42315">
        <ele>742</ele>
        <time>2013-11-11T09:54:32Z</time>
      </trkpt>
      <trkpt lat="45.30009" lon="5.42297">
        <ele>742</ele>
        <time>2013-11-11T09:54:36Z</time>
      </trkpt>
      <trkpt lat="45.2999" lon="5.42285">
        <ele>742</ele>
        <time>2013-11-11T09:54:41Z</time>
      </trkpt>
      <trkpt lat="45.29983" lon="5.42262">
        <ele>742</ele>
        <time>2013-11-11T09:54:46Z</time>
      </trkpt>
      <trkpt lat="45.29983" lon="5.42233">
        <ele>736</ele>
        <time>2013-11-11T09:54:50Z</time>
      </trkpt>
      <trkpt lat="45.29977" lon="5.42201">
        <ele>733</ele>
        <time>2013-11-11T09:54:54Z</time>
      </trkpt>
      <trkpt lat="45.29973" lon="5.42176">
        <ele>731</ele>
        <time>2013-11-11T09:54:57Z</time>
      </trkpt>
      <trkpt lat="45.29969" lon="5.42143">
        <ele>723</ele>
        <time>2013-11-11T09:55:01Z</time>
      </trkpt>
      <trkpt lat="45.29963" lon="5.4211">
        <ele>720</ele>
        <time>2013-11-11T09:55:04Z</time>
      </trkpt>
      <trkpt lat="45.29956" lon="5.42077">
        <ele>715</ele>
        <time>2013-11-11T09:55:07Z</time>
      </trkpt>
      <trkpt lat="45.2995" lon="5.42044">
        <ele>715</ele>
        <time>2013-11-11T09:55:10Z</time>
      </trkpt>
      <trkpt lat="45.29942" lon="5.42016">
        <ele>714</ele>
        <time>2013-11-11T09:55:13Z</time>
      </trkpt>
      <trkpt lat="45.29933" lon="5.41991">
        <ele>713</ele>
        <time>2013-11-11T09:55:16Z</time>
      </trkpt>
      <trkpt lat="45.29926" lon="5.41961">
        <ele>713</ele>
        <time>2013-11-11T09:55:20Z</time>
      </trkpt>
      <trkpt lat="45.29918" lon="5.41933">
        <ele>714</ele>
        <time>2013-11-11T09:55:24Z</time>
      </trkpt>
      <trkpt lat="45.29906" lon="5.41909">
        <ele>711</ele>
        <time>2013-11-11T09:55:28Z</time>
      </trkpt>
      <trkpt lat="45.29887" lon="5.41888">
        <ele>707</ele>
        <time>2013-11-11T09:55:32Z</time>
      </trkpt>
      <trkpt lat="45.29872" lon="5.41863">
        <ele>705</ele>
        <time>2013-11-11T09:55:36Z</time>
      </trkpt>
      <trkpt lat="45.29865" lon="5.41835">
        <ele>704</ele>
        <time>2013-11-11T09:55:39Z</time>
      </trkpt>
      <trkpt lat="45.29858" lon="5.41806">
        <ele>701</ele>
        <time>2013-11-11T09:55:42Z</time>
      </trkpt>
      <trkpt lat="45.29852" lon="5.41774">
        <ele>700</ele>
        <time>2013-11-11T09:55:45Z</time>
      </trkpt>
      <trkpt lat="45.2985" lon="5.4174">
        <ele>698</ele>
        <time>2013-11-11T09:55:48Z</time>
      </trkpt>
      <trkpt lat="45.29849" lon="5.41706">
        <ele>696</ele>
        <time>2013-11-11T09:55:51Z</time>
      </trkpt>
      <trkpt lat="45.29847" lon="5.4167">
        <ele>695</ele>
        <time>2013-11-11T09:55:54Z</time>
      </trkpt>
      <trkpt lat="45.29844" lon="5.41634">
        <ele>691</ele>
        <time>2013-11-11T09:55:57Z</time>
      </trkpt>
      <trkpt lat="45.29841" lon="5.41601">
        <ele>690</ele>
        <time>2013-11-11T09:56:00Z</time>
      </trkpt>
      <trkpt lat="45.29837" lon="5.41569">
        <ele>686</ele>
        <time>2013-11-11T09:56:03Z</time>
      </trkpt>
      <trkpt lat="45.29836" lon="5.41535">
        <ele>682</ele>
        <time>2013-11-11T09:56:06Z</time>
      </trkpt>
      <trkpt lat="45.29837" lon="5.41498">
        <ele>680</ele>
        <time>2013-11-11T09:56:09Z</time>
      </trkpt>
      <trkpt lat="45.29834" lon="5.41462">
        <ele>676</ele>
        <time>2013-11-11T09:56:12Z</time>
      </trkpt>
      <trkpt lat="45.29826" lon="5.4143">
        <ele>675</ele>
        <time>2013-11-11T09:56:15Z</time>
      </trkpt>
      <trkpt lat="45.29822" lon="5.41396">
        <ele>672</ele>
        <time>2013-11-11T09:56:18Z</time>
      </trkpt>
      <trkpt lat="45.29822" lon="5.4136">
        <ele>669</ele>
        <time>2013-11-11T09:56:21Z</time>
      </trkpt>
      <trkpt lat="45.29817" lon="5.41323">
        <ele>666</ele>
        <time>2013-11-11T09:56:24Z</time>
      </trkpt>
      <trkpt lat="45.2981" lon="5.4129">
        <ele>664</ele>
        <time>2013-11-11T09:56:27Z</time>
      </trkpt>
      <trkpt lat="45.29805" lon="5.41259">
        <ele>663</ele>
        <time>2013-11-11T09:56:30Z</time>
      </trkpt>
      <trkpt lat="45.29803" lon="5.41227">
        <ele>660</ele>
        <time>2013-11-11T09:56:33Z</time>
      </trkpt>
      <trkpt lat="45.29804" lon="5.41189">
        <ele>658</ele>
        <time>2013-11-11T09:56:36Z</time>
      </trkpt>
      <trkpt lat="45.29804" lon="5.41163">
        <ele>654</ele>
        <time>2013-11-11T09:56:38Z</time>
      </trkpt>
      <trkpt lat="45.29802" lon="5.41135">
        <ele>653</ele>
        <time>2013-11-11T09:56:40Z</time>
      </trkpt>
      <trkpt lat="45.29798" lon="5.41109">
        <ele>652</ele>
        <time>2013-11-11T09:56:42Z</time>
      </trkpt>
      <trkpt lat="45.29793" lon="5.41082">
        <ele>645</ele>
        <time>2013-11-11T09:56:44Z</time>
      </trkpt>
      <trkpt lat="45.29788" lon="5.41053">
        <ele>644</ele>
        <time>2013-11-11T09:56:46Z</time>
      </trkpt>
      <trkpt lat="45.29782" lon="5.41028">
        <ele>642</ele>
        <time>2013-11-11T09:56:48Z</time>
      </trkpt>
      <trkpt lat="45.29772" lon="5.40999">
        <ele>637</ele>
        <time>2013-11-11T09:56:51Z</time>
      </trkpt>
      <trkpt lat="45.29766" lon="5.40971">
        <ele>635</ele>
        <time>2013-11-11T09:56:54Z</time>
      </trkpt>
      <trkpt lat="45.29761" lon="5.40941">
        <ele>634</ele>
        <time>2013-11-11T09:56:57Z</time>
      </trkpt>
      <trkpt lat="45.29752" lon="5.40912">
        <ele>632</ele>
        <time>2013-11-11T09:57:00Z</time>
      </trkpt>
      <trkpt lat="45.29745" lon="5.40887">
        <ele>625</ele>
        <time>2013-11-11T09:57:03Z</time>
      </trkpt>
      <trkpt lat="45.29742" lon="5.40858">
        <ele>623</ele>
        <time>2013-11-11T09:57:08Z</time>
      </trkpt>
      <trkpt lat="45.29753" lon="5.40834">
        <ele>625</ele>
        <time>2013-11-11T09:57:24Z</time>
      </trkpt>
      <trkpt lat="45.29766" lon="5.40811">
        <ele>616</ele>
        <time>2013-11-11T09:57:27Z</time>
      </trkpt>
      <trkpt lat="45.29773" lon="5.40778">
        <ele>612</ele>
        <time>2013-11-11T09:57:31Z</time>
      </trkpt>
      <trkpt lat="45.29776" lon="5.40751">
        <ele>611</ele>
        <time>2013-11-11T09:57:34Z</time>
      </trkpt>
      <trkpt lat="45.29782" lon="5.40721">
        <ele>603</ele>
        <time>2013-11-11T09:57:37Z</time>
      </trkpt>
      <trkpt lat="45.29788" lon="5.40695">
        <ele>602</ele>
        <time>2013-11-11T09:57:40Z</time>
      </trkpt>
      <trkpt lat="45.2979" lon="5.40669">
        <ele>600</ele>
        <time>2013-11-11T09:57:44Z</time>
      </trkpt>
      <trkpt lat="45.29789" lon="5.40645">
        <ele>595</ele>
        <time>2013-11-11T09:57:59Z</time>
      </trkpt>
      <trkpt lat="45.29795" lon="5.40615">
        <ele>593</ele>
        <time>2013-11-11T09:58:03Z</time>
      </trkpt>
      <trkpt lat="45.29795" lon="5.40579">
        <ele>585</ele>
        <time>2013-11-11T09:58:06Z</time>
      </trkpt>
      <trkpt lat="45.29794" lon="5.40546">
        <ele>583</ele>
        <time>2013-11-11T09:58:09Z</time>
      </trkpt>
      <trkpt lat="45.29796" lon="5.40518">
        <ele>581</ele>
        <time>2013-11-11T09:58:13Z</time>
      </trkpt>
      <trkpt lat="45.29794" lon="5.40487">
        <ele>572</ele>
        <time>2013-11-11T09:58:19Z</time>
      </trkpt>
      <trkpt lat="45.29786" lon="5.40459">
        <ele>572</ele>
        <time>2013-11-11T09:58:27Z</time>
      </trkpt>
      <trkpt lat="45.29786" lon="5.40426">
        <ele>570</ele>
        <time>2013-11-11T09:58:32Z</time>
      </trkpt>
      <trkpt lat="45.29781" lon="5.40396">
        <ele>565</ele>
        <time>2013-11-11T09:58:35Z</time>
      </trkpt>
      <trkpt lat="45.29777" lon="5.40367">
        <ele>564</ele>
        <time>2013-11-11T09:58:38Z</time>
      </trkpt>
      <trkpt lat="45.29775" lon="5.40337">
        <ele>564</ele>
        <time>2013-11-11T09:58:41Z</time>
      </trkpt>
      <trkpt lat="45.29772" lon="5.40305">
        <ele>558</ele>
        <time>2013-11-11T09:58:44Z</time>
      </trkpt>
      <trkpt lat="45.29773" lon="5.4027">
        <ele>556</ele>
        <time>2013-11-11T09:58:47Z</time>
      </trkpt>
      <trkpt lat="45.29775" lon="5.40239">
        <ele>551</ele>
        <time>2013-11-11T09:58:50Z</time>
      </trkpt>
      <trkpt lat="45.29773" lon="5.40206">
        <ele>548</ele>
        <time>2013-11-11T09:58:54Z</time>
      </trkpt>
      <trkpt lat="45.2977" lon="5.40174">
        <ele>544</ele>
        <time>2013-11-11T09:58:59Z</time>
      </trkpt>
      <trkpt lat="45.29754" lon="5.40148">
        <ele>539</ele>
        <time>2013-11-11T09:59:07Z</time>
      </trkpt>
      <trkpt lat="45.29732" lon="5.40153">
        <ele>538</ele>
        <time>2013-11-11T09:59:17Z</time>
      </trkpt>
      <trkpt lat="45.29714" lon="5.40165">
        <ele>538</ele>
        <time>2013-11-11T09:59:40Z</time>
      </trkpt>
      <trkpt lat="45.29697" lon="5.40179">
        <ele>543</ele>
        <time>2013-11-11T09:59:46Z</time>
      </trkpt>
      <trkpt lat="45.2968" lon="5.4019">
        <ele>544</ele>
        <time>2013-11-11T09:59:51Z</time>
      </trkpt>
      <trkpt lat="45.29661" lon="5.40203">
        <ele>543</ele>
        <time>2013-11-11T09:59:57Z</time>
      </trkpt>
      <trkpt lat="45.29642" lon="5.40214">
        <ele>544</ele>
        <time>2013-11-11T10:00:03Z</time>
      </trkpt>
      <trkpt lat="45.29623" lon="5.40226">
        <ele>544</ele>
        <time>2013-11-11T10:00:09Z</time>
      </trkpt>
      <trkpt lat="45.29603" lon="5.40238">
        <ele>543</ele>
        <time>2013-11-11T10:00:15Z</time>
      </trkpt>
      <trkpt lat="45.29586" lon="5.40248">
        <ele>542</ele>
        <time>2013-11-11T10:00:21Z</time>
      </trkpt>
      <trkpt lat="45.29568" lon="5.40256">
        <ele>545</ele>
        <time>2013-11-11T10:00:28Z</time>
      </trkpt>
      <trkpt lat="45.29551" lon="5.40266">
        <ele>546</ele>
        <time>2013-11-11T10:00:35Z</time>
      </trkpt>
      <trkpt lat="45.29535" lon="5.40282">
        <ele>546</ele>
        <time>2013-11-11T10:00:42Z</time>
      </trkpt>
      <trkpt lat="45.29518" lon="5.40292">
        <ele>546</ele>
        <time>2013-11-11T10:00:48Z</time>
      </trkpt>
      <trkpt lat="45.29505" lon="5.4031">
        <ele>546</ele>
        <time>2013-11-11T10:00:54Z</time>
      </trkpt>
      <trkpt lat="45.29501" lon="5.40336">
        <ele>546</ele>
        <time>2013-11-11T10:01:00Z</time>
      </trkpt>
      <trkpt lat="45.29501" lon="5.40362">
        <ele>553</ele>
        <time>2013-11-11T10:01:07Z</time>
      </trkpt>
      <trkpt lat="45.29503" lon="5.40389">
        <ele>555</ele>
        <time>2013-11-11T10:01:15Z</time>
      </trkpt>
      <trkpt lat="45.29507" lon="5.40415">
        <ele>552</ele>
        <time>2013-11-11T10:01:23Z</time>
      </trkpt>
      <trkpt lat="45.2951" lon="5.40442">
        <ele>559</ele>
        <time>2013-11-11T10:01:31Z</time>
      </trkpt>
      <trkpt lat="45.29514" lon="5.40467">
        <ele>561</ele>
        <time>2013-11-11T10:01:38Z</time>
      </trkpt>
      <trkpt lat="45.29518" lon="5.40495">
        <ele>560</ele>
        <time>2013-11-11T10:01:46Z</time>
      </trkpt>
      <trkpt lat="45.2952" lon="5.40526">
        <ele>562</ele>
        <time>2013-11-11T10:01:54Z</time>
      </trkpt>
      <trkpt lat="45.29519" lon="5.40555">
        <ele>562</ele>
        <time>2013-11-11T10:02:01Z</time>
      </trkpt>
      <trkpt lat="45.29517" lon="5.40584">
        <ele>559</ele>
        <time>2013-11-11T10:02:08Z</time>
      </trkpt>
      <trkpt lat="45.29511" lon="5.40607">
        <ele>560</ele>
        <time>2013-11-11T10:02:16Z</time>
      </trkpt>
      <trkpt lat="45.29493" lon="5.40615">
        <ele>558</ele>
        <time>2013-11-11T10:02:26Z</time>
      </trkpt>
      <trkpt lat="45.29475" lon="5.4062">
        <ele>559</ele>
        <time>2013-11-11T10:02:37Z</time>
      </trkpt>
      <trkpt lat="45.29457" lon="5.40617">
        <ele>561</ele>
        <time>2013-11-11T10:02:48Z</time>
      </trkpt>
      <trkpt lat="45.29438" lon="5.40615">
        <ele>562</ele>
        <time>2013-11-11T10:03:00Z</time>
      </trkpt>
      <trkpt lat="45.29433" lon="5.40635">
        <ele>563</ele>
        <time>2013-11-11T10:03:13Z</time>
      </trkpt>
      <trkpt lat="45.29447" lon="5.40653">
        <ele>562</ele>
        <time>2013-11-11T10:03:26Z</time>
      </trkpt>
      <trkpt lat="45.29457" lon="5.40681">
        <ele>565</ele>
        <time>2013-11-11T10:03:39Z</time>
      </trkpt>
      <trkpt lat="45.29458" lon="5.40707">
        <ele>565</ele>
        <time>2013-11-11T10:03:51Z</time>
      </trkpt>
      <trkpt lat="45.29454" lon="5.40731">
        <ele>567</ele>
        <time>2013-11-11T10:04:04Z</time>
      </trkpt>
      <trkpt lat="45.29451" lon="5.40758">
        <ele>572</ele>
        <time>2013-11-11T10:04:18Z</time>
      </trkpt>
      <trkpt lat="45.2945" lon="5.40784">
        <ele>573</ele>
        <time>2013-11-11T10:04:31Z</time>
      </trkpt>
      <trkpt lat="45.29451" lon="5.40811">
        <ele>573</ele>
        <time>2013-11-11T10:04:44Z</time>
      </trkpt>
      <trkpt lat="45.29452" lon="5.40837">
        <ele>577</ele>
        <time>2013-11-11T10:04:57Z</time>
      </trkpt>
      <trkpt lat="45.29451" lon="5.40864">
        <ele>577</ele>
        <time>2013-11-11T10:05:10Z</time>
      </trkpt>
      <trkpt lat="45.29444" lon="5.40888">
        <ele>579</ele>
        <time>2013-11-11T10:05:23Z</time>
      </trkpt>
      <trkpt lat="45.29437" lon="5.40912">
        <ele>583</ele>
        <time>2013-11-11T10:05:36Z</time>
      </trkpt>
      <trkpt lat="45.29435" lon="5.40939">
        <ele>584</ele>
        <time>2013-11-11T10:05:49Z</time>
      </trkpt>
      <trkpt lat="45.2944" lon="5.40966">
        <ele>583</ele>
        <time>2013-11-11T10:06:03Z</time>
      </trkpt>
      <trkpt lat="45.29443" lon="5.40992">
        <ele>584</ele>
        <time>2013-11-11T10:06:17Z</time>
      </trkpt>
      <trkpt lat="45.29445" lon="5.41019">
        <ele>586</ele>
        <time>2013-11-11T10:06:31Z</time>
      </trkpt>
      <trkpt lat="45.29446" lon="5.41045">
        <ele>586</ele>
        <time>2013-11-11T10:06:46Z</time>
      </trkpt>
      <trkpt lat="45.29435" lon="5.41063">
        <ele>589</ele>
        <time>2013-11-11T10:07:22Z</time>
      </trkpt>
      <trkpt lat="45.2942" lon="5.41079">
        <ele>595</ele>
        <time>2013-11-11T10:07:33Z</time>
      </trkpt>
      <trkpt lat="45.29404" lon="5.41093">
        <ele>604</ele>
        <time>2013-11-11T10:07:45Z</time>
      </trkpt>
      <trkpt lat="45.29388" lon="5.41106">
        <ele>608</ele>
        <time>2013-11-11T10:07:58Z</time>
      </trkpt>
      <trkpt lat="45.29377" lon="5.41126">
        <ele>611</ele>
        <time>2013-11-11T10:08:12Z</time>
      </trkpt>
      <trkpt lat="45.2939" lon="5.41144">
        <ele>610</ele>
        <time>2013-11-11T10:08:28Z</time>
      </trkpt>
      <trkpt lat="45.29411" lon="5.41161">
        <ele>607</ele>
        <time>2013-11-11T10:08:43Z</time>
      </trkpt>
      <trkpt lat="45.29419" lon="5.41185">
        <ele>602</ele>
        <time>2013-11-11T10:08:57Z</time>
      </trkpt>
      <trkpt lat="45.29422" lon="5.41212">
        <ele>602</ele>
        <time>2013-11-11T10:09:11Z</time>
      </trkpt>
      <trkpt lat="45.29421" lon="5.41238">
        <ele>607</ele>
        <time>2013-11-11T10:09:24Z</time>
      </trkpt>
      <trkpt lat="45.29416" lon="5.41263">
        <ele>616</ele>
        <time>2013-11-11T10:09:36Z</time>
      </trkpt>
      <trkpt lat="45.29414" lon="5.41288">
        <ele>620</ele>
        <time>2013-11-11T10:09:47Z</time>
      </trkpt>
      <trkpt lat="45.29417" lon="5.41315">
        <ele>611</ele>
        <time>2013-11-11T10:09:57Z</time>
      </trkpt>
      <trkpt lat="45.29423" lon="5.41341">
        <ele>612</ele>
        <time>2013-11-11T10:10:06Z</time>
      </trkpt>
      <trkpt lat="45.29427" lon="5.41366">
        <ele>610</ele>
        <time>2013-11-11T10:10:14Z</time>
      </trkpt>
      <trkpt lat="45.29427" lon="5.41392">
        <ele>610</ele>
        <time>2013-11-11T10:10:21Z</time>
      </trkpt>
      <trkpt lat="45.29406" lon="5.41391">
        <ele>617</ele>
        <time>2013-11-11T10:10:31Z</time>
      </trkpt>
      <trkpt lat="45.29386" lon="5.4139">
        <ele>620</ele>
        <time>2013-11-11T10:10:42Z</time>
      </trkpt>
      <trkpt lat="45.29368" lon="5.41387">
        <ele>621</ele>
        <time>2013-11-11T10:10:54Z</time>
      </trkpt>
      <trkpt lat="45.2935" lon="5.41388">
        <ele>623</ele>
        <time>2013-11-11T10:11:08Z</time>
      </trkpt>
      <trkpt lat="45.29332" lon="5.41389">
        <ele>635</ele>
        <time>2013-11-11T10:11:24Z</time>
      </trkpt>
      <trkpt lat="45.29314" lon="5.4139">
        <ele>636</ele>
        <time>2013-11-11T10:11:39Z</time>
      </trkpt>
      <trkpt lat="45.29293" lon="5.414">
        <ele>639</ele>
        <time>2013-11-11T10:11:56Z</time>
      </trkpt>
      <trkpt lat="45.29274" lon="5.41418">
        <ele>638</ele>
        <time>2013-11-11T10:12:13Z</time>
      </trkpt>
      <trkpt lat="45.29256" lon="5.41431">
        <ele>640</ele>
        <time>2013-11-11T10:12:29Z</time>
      </trkpt>
      <trkpt lat="45.2924" lon="5.41447">
        <ele>649</ele>
        <time>2013-11-11T10:12:45Z</time>
      </trkpt>
      <trkpt lat="45.29226" lon="5.41462">
        <ele>650</ele>
        <time>2013-11-11T10:13:02Z</time>
      </trkpt>
      <trkpt lat="45.29208" lon="5.41471">
        <ele>651</ele>
        <time>2013-11-11T10:13:19Z</time>
      </trkpt>
      <trkpt lat="45.29186" lon="5.41475">
        <ele>653</ele>
        <time>2013-11-11T10:13:35Z</time>
      </trkpt>
      <trkpt lat="45.29168" lon="5.41478">
        <ele>654</ele>
        <time>2013-11-11T10:13:53Z</time>
      </trkpt>
      <trkpt lat="45.29149" lon="5.41482">
        <ele>660</ele>
        <time>2013-11-11T10:14:10Z</time>
      </trkpt>
      <trkpt lat="45.29153" lon="5.41468">
        <ele>662</ele>
        <time>2013-11-11T10:14:27Z</time>
      </trkpt>
      <trkpt lat="45.29174" lon="5.41458">
        <ele>655</ele>
        <time>2013-11-11T10:14:44Z</time>
      </trkpt>
      <trkpt lat="45.29189" lon="5.41435">
        <ele>656</ele>
        <time>2013-11-11T10:15:01Z</time>
      </trkpt>
      <trkpt lat="45.29195" lon="5.4141">
        <ele>661</ele>
        <time>2013-11-11T10:15:18Z</time>
      </trkpt>
      <trkpt lat="45.29202" lon="5.41383">
        <ele>661</ele>
        <time>2013-11-11T10:15:35Z</time>
      </trkpt>
      <trkpt lat="45.29207" lon="5.41358">
        <ele>661</ele>
        <time>2013-11-11T10:15:52Z</time>
      </trkpt>
      <trkpt lat="45.292" lon="5.41334">
        <ele>663</ele>
        <time>2013-11-11T10:16:08Z</time>
      </trkpt>
      <trkpt lat="45.29185" lon="5.41316">
        <ele>663</ele>
        <time>2013-11-11T10:16:25Z</time>
      </trkpt>
      <trkpt lat="45.29168" lon="5.41302">
        <ele>663</ele>
        <time>2013-11-11T10:16:45Z</time>
      </trkpt>
      <trkpt lat="45.29152" lon="5.41312">
        <ele>673</ele>
        <time>2013-11-11T10:17:02Z</time>
      </trkpt>
      <trkpt lat="45.29144" lon="5.41336">
        <ele>674</ele>
        <time>2013-11-11T10:17:21Z</time>
      </trkpt>
      <trkpt lat="45.2913" lon="5.41349">
        <ele>675</ele>
        <time>2013-11-11T10:17:39Z</time>
      </trkpt>
      <trkpt lat="45.29118" lon="5.41334">
        <ele>677</ele>
        <time>2013-11-11T10:18:09Z</time>
      </trkpt>
      <trkpt lat="45.29101" lon="5.41328">
        <ele>680</ele>
        <time>2013-11-11T10:18:25Z</time>
      </trkpt>
      <trkpt lat="45.29084" lon="5.41334">
        <ele>684</ele>
        <time>2013-11-11T10:18:42Z</time>
      </trkpt>
      <trkpt lat="45.29067" lon="5.41337">
        <ele>687</ele>
        <time>2013-11-11T10:18:59Z</time>
      </trkpt>
      <trkpt lat="45.2905" lon="5.41341">
        <ele>688</ele>
        <time>2013-11-11T10:19:28Z</time>
      </trkpt>
      <trkpt lat="45.29034" lon="5.41342">
        <ele>690</ele>
        <time>2013-11-11T10:19:55Z</time>
      </trkpt>
      <trkpt lat="45.29016" lon="5.41344">
        <ele>693</ele>
        <time>2013-11-11T10:20:22Z</time>
      </trkpt>
      <trkpt lat="45.29" lon="5.41351">
        <ele>700</ele>
        <time>2013-11-11T10:20:53Z</time>
      </trkpt>
      <trkpt lat="45.28984" lon="5.41364">
        <ele>700</ele>
        <time>2013-11-11T10:21:16Z</time>
      </trkpt>
      <trkpt lat="45.28968" lon="5.41379">
        <ele>700</ele>
        <time>2013-11-11T10:21:26Z</time>
      </trkpt>
      <trkpt lat="45.28952" lon="5.4139">
        <ele>701</ele>
        <time>2013-11-11T10:21:36Z</time>
      </trkpt>
      <trkpt lat="45.28936" lon="5.41403">
        <ele>703</ele>
        <time>2013-11-11T10:21:46Z</time>
      </trkpt>
      <trkpt lat="45.28919" lon="5.41416">
        <ele>706</ele>
        <time>2013-11-11T10:21:57Z</time>
      </trkpt>
      <trkpt lat="45.28902" lon="5.41429">
        <ele>708</ele>
        <time>2013-11-11T10:22:08Z</time>
      </trkpt>
      <trkpt lat="45.28887" lon="5.41444">
        <ele>710</ele>
        <time>2013-11-11T10:22:19Z</time>
      </trkpt>
      <trkpt lat="45.28872" lon="5.41457">
        <ele>711</ele>
        <time>2013-11-11T10:22:29Z</time>
      </trkpt>
      <trkpt lat="45.28858" lon="5.41476">
        <ele>713</ele>
        <time>2013-11-11T10:22:40Z</time>
      </trkpt>
      <trkpt lat="45.28841" lon="5.41488">
        <ele>716</ele>
        <time>2013-11-11T10:22:53Z</time>
      </trkpt>
      <trkpt lat="45.28825" lon="5.415">
        <ele>722</ele>
        <time>2013-11-11T10:23:08Z</time>
      </trkpt>
      <trkpt lat="45.28809" lon="5.41511">
        <ele>724</ele>
        <time>2013-11-11T10:23:25Z</time>
      </trkpt>
      <trkpt lat="45.28792" lon="5.41519">
        <ele>725</ele>
        <time>2013-11-11T10:23:40Z</time>
      </trkpt>
      <trkpt lat="45.28777" lon="5.41531">
        <ele>726</ele>
        <time>2013-11-11T10:23:53Z</time>
      </trkpt>
      <trkpt lat="45.2876" lon="5.41542">
        <ele>727</ele>
        <time>2013-11-11T10:24:06Z</time>
      </trkpt>
      <trkpt lat="45.28744" lon="5.41553">
        <ele>733</ele>
        <time>2013-11-11T10:24:20Z</time>
      </trkpt>
      <trkpt lat="45.28729" lon="5.41565">
        <ele>734</ele>
        <time>2013-11-11T10:24:35Z</time>
      </trkpt>
      <trkpt lat="45.28724" lon="5.41538">
        <ele>734</ele>
        <time>2013-11-11T10:24:52Z</time>
      </trkpt>
      <trkpt lat="45.28719" lon="5.41513">
        <ele>734</ele>
        <time>2013-11-11T10:25:07Z</time>
      </trkpt>
      <trkpt lat="45.28706" lon="5.41504">
        <ele>735</ele>
        <time>2013-11-11T10:26:43Z</time>
      </trkpt>
      <trkpt lat="45.28687" lon="5.41512">
        <ele>736</ele>
        <time>2013-11-11T10:26:56Z</time>
      </trkpt>
      <trkpt lat="45.2867" lon="5.41521">
        <ele>737</ele>
        <time>2013-11-11T10:27:09Z</time>
      </trkpt>
      <trkpt lat="45.28652" lon="5.41526">
        <ele>743</ele>
        <time>2013-11-11T10:27:24Z</time>
      </trkpt>
      <trkpt lat="45.28631" lon="5.41526">
        <ele>744</ele>
        <time>2013-11-11T10:27:40Z</time>
      </trkpt>
      <trkpt lat="45.28611" lon="5.41521">
        <ele>745</ele>
        <time>2013-11-11T10:27:54Z</time>
      </trkpt>
      <trkpt lat="45.28593" lon="5.41511">
        <ele>746</ele>
        <time>2013-11-11T10:28:07Z</time>
      </trkpt>
      <trkpt lat="45.28576" lon="5.41499">
        <ele>746</ele>
        <time>2013-11-11T10:28:19Z</time>
      </trkpt>
      <trkpt lat="45.28565" lon="5.41478">
        <ele>744</ele>
        <time>2013-11-11T10:28:29Z</time>
      </trkpt>
      <trkpt lat="45.28553" lon="5.41458">
        <ele>744</ele>
        <time>2013-11-11T10:28:38Z</time>
      </trkpt>
      <trkpt lat="45.28542" lon="5.41437">
        <ele>744</ele>
        <time>2013-11-11T10:28:47Z</time>
      </trkpt>
      <trkpt lat="45.28529" lon="5.41419">
        <ele>746</ele>
        <time>2013-11-11T10:28:57Z</time>
      </trkpt>
      <trkpt lat="45.28515" lon="5.41402">
        <ele>748</ele>
        <time>2013-11-11T10:29:08Z</time>
      </trkpt>
      <trkpt lat="45.28497" lon="5.41391">
        <ele>754</ele>
        <time>2013-11-11T10:29:21Z</time>
      </trkpt>
      <trkpt lat="45.28482" lon="5.4138">
        <ele>754</ele>
        <time>2013-11-11T10:29:35Z</time>
      </trkpt>
      <trkpt lat="45.28465" lon="5.41368">
        <ele>755</ele>
        <time>2013-11-11T10:29:50Z</time>
      </trkpt>
      <trkpt lat="45.28449" lon="5.41356">
        <ele>756</ele>
        <time>2013-11-11T10:30:04Z</time>
      </trkpt>
      <trkpt lat="45.28433" lon="5.41345">
        <ele>758</ele>
        <time>2013-11-11T10:30:17Z</time>
      </trkpt>
      <trkpt lat="45.28415" lon="5.41335">
        <ele>761</ele>
        <time>2013-11-11T10:30:31Z</time>
      </trkpt>
      <trkpt lat="45.28396" lon="5.4132">
        <ele>762</ele>
        <time>2013-11-11T10:30:48Z</time>
      </trkpt>
      <trkpt lat="45.28376" lon="5.41311">
        <ele>763</ele>
        <time>2013-11-11T10:31:02Z</time>
      </trkpt>
      <trkpt lat="45.28357" lon="5.413">
        <ele>764</ele>
        <time>2013-11-11T10:31:16Z</time>
      </trkpt>
      <trkpt lat="45.28336" lon="5.41289">
        <ele>765</ele>
        <time>2013-11-11T10:31:31Z</time>
      </trkpt>
      <trkpt lat="45.28317" lon="5.41279">
        <ele>769</ele>
        <time>2013-11-11T10:31:46Z</time>
      </trkpt>
      <trkpt lat="45.28299" lon="5.41273">
        <ele>770</ele>
        <time>2013-11-11T10:32:03Z</time>
      </trkpt>
      <trkpt lat="45.28278" lon="5.41271">
        <ele>771</ele>
        <time>2013-11-11T10:32:17Z</time>
      </trkpt>
      <trkpt lat="45.28258" lon="5.41278">
        <ele>771</ele>
        <time>2013-11-11T10:32:30Z</time>
      </trkpt>
      <trkpt lat="45.28238" lon="5.41283">
        <ele>771</ele>
        <time>2013-11-11T10:32:41Z</time>
      </trkpt>
      <trkpt lat="45.2822" lon="5.41293">
        <ele>770</ele>
        <time>2013-11-11T10:32:48Z</time>
      </trkpt>
      <trkpt lat="45.28198" lon="5.41304">
        <ele>769</ele>
        <time>2013-11-11T10:32:53Z</time>
      </trkpt>
      <trkpt lat="45.28175" lon="5.41314">
        <ele>768</ele>
        <time>2013-11-11T10:32:57Z</time>
      </trkpt>
      <trkpt lat="45.28154" lon="5.41313">
        <ele>766</ele>
        <time>2013-11-11T10:33:00Z</time>
      </trkpt>
      <trkpt lat="45.28134" lon="5.41303">
        <ele>766</ele>
        <time>2013-11-11T10:33:03Z</time>
      </trkpt>
      <trkpt lat="45.28114" lon="5.41294">
        <ele>765</ele>
        <time>2013-11-11T10:33:07Z</time>
      </trkpt>
      <trkpt lat="45.28095" lon="5.41289">
        <ele>765</ele>
        <time>2013-11-11T10:33:12Z</time>
      </trkpt>
      <trkpt lat="45.28074" lon="5.41288">
        <ele>763</ele>
        <time>2013-11-11T10:33:18Z</time>
      </trkpt>
      <trkpt lat="45.28054" lon="5.41287">
        <ele>764</ele>
        <time>2013-11-11T10:33:24Z</time>
      </trkpt>
      <trkpt lat="45.28033" lon="5.41285">
        <ele>764</ele>
        <time>2013-11-11T10:33:30Z</time>
      </trkpt>
      <trkpt lat="45.28014" lon="5.41277">
        <ele>764</ele>
        <time>2013-11-11T10:33:35Z</time>
      </trkpt>
      <trkpt lat="45.27993" lon="5.4127">
        <ele>765</ele>
        <time>2013-11-11T10:33:41Z</time>
      </trkpt>
      <trkpt lat="45.27973" lon="5.4127">
        <ele>766</ele>
        <time>2013-11-11T10:33:46Z</time>
      </trkpt>
      <trkpt lat="45.27951" lon="5.41269">
        <ele>766</ele>
        <time>2013-11-11T10:33:52Z</time>
      </trkpt>
      <trkpt lat="45.27931" lon="5.41264">
        <ele>768</ele>
        <time>2013-11-11T10:34:00Z</time>
      </trkpt>
      <trkpt lat="45.27906" lon="5.41254">
        <ele>772</ele>
        <time>2013-11-11T10:34:10Z</time>
      </trkpt>
      <trkpt lat="45.27884" lon="5.41243">
        <ele>772</ele>
        <time>2013-11-11T10:34:19Z</time>
      </trkpt>
      <trkpt lat="45.27861" lon="5.41234">
        <ele>773</ele>
        <time>2013-11-11T10:34:28Z</time>
      </trkpt>
      <trkpt lat="45.27842" lon="5.41219">
        <ele>772</ele>
        <time>2013-11-11T10:34:36Z</time>
      </trkpt>
      <trkpt lat="45.27821" lon="5.412">
        <ele>774</ele>
        <time>2013-11-11T10:34:44Z</time>
      </trkpt>
      <trkpt lat="45.27801" lon="5.4119">
        <ele>774</ele>
        <time>2013-11-11T10:34:50Z</time>
      </trkpt>
      <trkpt lat="45.27783" lon="5.41181">
        <ele>775</ele>
        <time>2013-11-11T10:34:55Z</time>
      </trkpt>
      <trkpt lat="45.27768" lon="5.41166">
        <ele>772</ele>
        <time>2013-11-11T10:35:00Z</time>
      </trkpt>
      <trkpt lat="45.27752" lon="5.41144">
        <ele>772</ele>
        <time>2013-11-11T10:35:05Z</time>
      </trkpt>
      <trkpt lat="45.27738" lon="5.41127">
        <ele>777</ele>
        <time>2013-11-11T10:35:09Z</time>
      </trkpt>
      <trkpt lat="45.27722" lon="5.41107">
        <ele>777</ele>
        <time>2013-11-11T10:35:14Z</time>
      </trkpt>
      <trkpt lat="45.27711" lon="5.41083">
        <ele>773</ele>
        <time>2013-11-11T10:35:19Z</time>
      </trkpt>
      <trkpt lat="45.27702" lon="5.41056">
        <ele>773</ele>
        <time>2013-11-11T10:35:24Z</time>
      </trkpt>
      <trkpt lat="45.27696" lon="5.41027">
        <ele>772</ele>
        <time>2013-11-11T10:35:28Z</time>
      </trkpt>
      <trkpt lat="45.27689" lon="5.41001">
        <ele>772</ele>
        <time>2013-11-11T10:35:31Z</time>
      </trkpt>
      <trkpt lat="45.27678" lon="5.40971">
        <ele>765</ele>
        <time>2013-11-11T10:35:35Z</time>
      </trkpt>
      <trkpt lat="45.27665" lon="5.40941">
        <ele>769</ele>
        <time>2013-11-11T10:35:38Z</time>
      </trkpt>
      <trkpt lat="45.2765" lon="5.40909">
        <ele>762</ele>
        <time>2013-11-11T10:35:41Z</time>
      </trkpt>
      <trkpt lat="45.27638" lon="5.40888">
        <ele>761</ele>
        <time>2013-11-11T10:35:43Z</time>
      </trkpt>
      <trkpt lat="45.27625" lon="5.40869">
        <ele>761</ele>
        <time>2013-11-11T10:35:45Z</time>
      </trkpt>
      <trkpt lat="45.27605" lon="5.40842">
        <ele>760</ele>
        <time>2013-11-11T10:35:48Z</time>
      </trkpt>
      <trkpt lat="45.2759" lon="5.40815">
        <ele>756</ele>
        <time>2013-11-11T10:35:51Z</time>
      </trkpt>
      <trkpt lat="45.27579" lon="5.40784">
        <ele>756</ele>
        <time>2013-11-11T10:35:54Z</time>
      </trkpt>
      <trkpt lat="45.27572" lon="5.40749">
        <ele>754</ele>
        <time>2013-11-11T10:35:57Z</time>
      </trkpt>
      <trkpt lat="45.2757" lon="5.40718">
        <ele>754</ele>
        <time>2013-11-11T10:36:00Z</time>
      </trkpt>
      <trkpt lat="45.27569" lon="5.40691">
        <ele>753</ele>
        <time>2013-11-11T10:36:04Z</time>
      </trkpt>
      <trkpt lat="45.27578" lon="5.40703">
        <ele>753</ele>
        <time>2013-11-11T10:36:39Z</time>
      </trkpt>
      <trkpt lat="45.2759" lon="5.40725">
        <ele>749</ele>
        <time>2013-11-11T10:36:45Z</time>
      </trkpt>
      <trkpt lat="45.27605" lon="5.40745">
        <ele>749</ele>
        <time>2013-11-11T10:36:50Z</time>
      </trkpt>
      <trkpt lat="45.27625" lon="5.40765">
        <ele>750</ele>
        <time>2013-11-11T10:36:55Z</time>
      </trkpt>
      <trkpt lat="45.27651" lon="5.40783">
        <ele>748</ele>
        <time>2013-11-11T10:36:59Z</time>
      </trkpt>
      <trkpt lat="45.27676" lon="5.40793">
        <ele>738</ele>
        <time>2013-11-11T10:37:02Z</time>
      </trkpt>
      <trkpt lat="45.27698" lon="5.40811">
        <ele>738</ele>
        <time>2013-11-11T10:37:05Z</time>
      </trkpt>
      <trkpt lat="45.27714" lon="5.40835">
        <ele>745</ele>
        <time>2013-11-11T10:37:08Z</time>
      </trkpt>
      <trkpt lat="45.27729" lon="5.40858">
        <ele>745</ele>
        <time>2013-11-11T10:37:11Z</time>
      </trkpt>
      <trkpt lat="45.27748" lon="5.40869">
        <ele>745</ele>
        <time>2013-11-11T10:37:15Z</time>
      </trkpt>
      <trkpt lat="45.27767" lon="5.40881">
        <ele>736</ele>
        <time>2013-11-11T10:37:24Z</time>
      </trkpt>
      <trkpt lat="45.27785" lon="5.40875">
        <ele>733</ele>
        <time>2013-11-11T10:37:30Z</time>
      </trkpt>
      <trkpt lat="45.278" lon="5.40859">
        <ele>731</ele>
        <time>2013-11-11T10:37:34Z</time>
      </trkpt>
      <trkpt lat="45.27818" lon="5.40844">
        <ele>727</ele>
        <time>2013-11-11T10:37:37Z</time>
      </trkpt>
      <trkpt lat="45.27837" lon="5.40829">
        <ele>718</ele>
        <time>2013-11-11T10:37:40Z</time>
      </trkpt>
      <trkpt lat="45.27854" lon="5.40814">
        <ele>712</ele>
        <time>2013-11-11T10:37:44Z</time>
      </trkpt>
      <trkpt lat="45.27877" lon="5.408">
        <ele>708</ele>
        <time>2013-11-11T10:37:48Z</time>
      </trkpt>
      <trkpt lat="45.27896" lon="5.40778">
        <ele>706</ele>
        <time>2013-11-11T10:37:52Z</time>
      </trkpt>
      <trkpt lat="45.27914" lon="5.40754">
        <ele>702</ele>
        <time>2013-11-11T10:37:56Z</time>
      </trkpt>
      <trkpt lat="45.27919" lon="5.40728">
        <ele>694</ele>
        <time>2013-11-11T10:38:16Z</time>
      </trkpt>
      <trkpt lat="45.27894" lon="5.4073">
        <ele>700</ele>
        <time>2013-11-11T10:38:33Z</time>
      </trkpt>
      <trkpt lat="45.27874" lon="5.40739">
        <ele>701</ele>
        <time>2013-11-11T10:38:47Z</time>
      </trkpt>
      <trkpt lat="45.27854" lon="5.40736">
        <ele>703</ele>
        <time>2013-11-11T10:39:01Z</time>
      </trkpt>
      <trkpt lat="45.27829" lon="5.40727">
        <ele>709</ele>
        <time>2013-11-11T10:39:18Z</time>
      </trkpt>
      <trkpt lat="45.27812" lon="5.40741">
        <ele>710</ele>
        <time>2013-11-11T10:39:31Z</time>
      </trkpt>
      <trkpt lat="45.27792" lon="5.40754">
        <ele>719</ele>
        <time>2013-11-11T10:39:43Z</time>
      </trkpt>
      <trkpt lat="45.27774" lon="5.40742">
        <ele>713</ele>
        <time>2013-11-11T10:40:00Z</time>
      </trkpt>
      <trkpt lat="45.27759" lon="5.40712">
        <ele>711</ele>
        <time>2013-11-11T10:40:20Z</time>
      </trkpt>
      <trkpt lat="45.27737" lon="5.40692">
        <ele>720</ele>
        <time>2013-11-11T10:40:35Z</time>
      </trkpt>
      <trkpt lat="45.27721" lon="5.40671">
        <ele>721</ele>
        <time>2013-11-11T10:40:48Z</time>
      </trkpt>
      <trkpt lat="45.27702" lon="5.40637">
        <ele>722</ele>
        <time>2013-11-11T10:40:59Z</time>
      </trkpt>
      <trkpt lat="45.27697" lon="5.40601">
        <ele>722</ele>
        <time>2013-11-11T10:41:15Z</time>
      </trkpt>
      <trkpt lat="45.27695" lon="5.4057">
        <ele>722</ele>
        <time>2013-11-11T10:41:32Z</time>
      </trkpt>
      <trkpt lat="45.27698" lon="5.40546">
        <ele>720</ele>
        <time>2013-11-11T10:42:12Z</time>
      </trkpt>
      <trkpt lat="45.27712" lon="5.4052">
        <ele>719</ele>
        <time>2013-11-11T10:42:18Z</time>
      </trkpt>
      <trkpt lat="45.27725" lon="5.40502">
        <ele>716</ele>
        <time>2013-11-11T10:42:21Z</time>
      </trkpt>
      <trkpt lat="45.27746" lon="5.40499">
        <ele>711</ele>
        <time>2013-11-11T10:42:24Z</time>
      </trkpt>
      <trkpt lat="45.27763" lon="5.40477">
        <ele>702</ele>
        <time>2013-11-11T10:42:27Z</time>
      </trkpt>
      <trkpt lat="45.27779" lon="5.40455">
        <ele>699</ele>
        <time>2013-11-11T10:42:31Z</time>
      </trkpt>
      <trkpt lat="45.27773" lon="5.40437">
        <ele>699</ele>
        <time>2013-11-11T10:42:41Z</time>
      </trkpt>
      <trkpt lat="45.27756" lon="5.40412">
        <ele>700</ele>
        <time>2013-11-11T10:42:51Z</time>
      </trkpt>
      <trkpt lat="45.27737" lon="5.4039">
        <ele>706</ele>
        <time>2013-11-11T10:43:01Z</time>
      </trkpt>
      <trkpt lat="45.27728" lon="5.40377">
        <ele>707</ele>
        <time>2013-11-11T10:43:35Z</time>
      </trkpt>
      <trkpt lat="45.27718" lon="5.4036">
        <ele>707</ele>
        <time>2013-11-11T10:44:18Z</time>
      </trkpt>
      <trkpt lat="45.27697" lon="5.40332">
        <ele>705</ele>
        <time>2013-11-11T10:44:32Z</time>
      </trkpt>
      <trkpt lat="45.2768" lon="5.40309">
        <ele>706</ele>
        <time>2013-11-11T10:44:45Z</time>
      </trkpt>
      <trkpt lat="45.27669" lon="5.40294">
        <ele>705</ele>
        <time>2013-11-11T10:45:05Z</time>
      </trkpt>
      <trkpt lat="45.27665" lon="5.40265">
        <ele>711</ele>
        <time>2013-11-11T10:45:16Z</time>
      </trkpt>
      <trkpt lat="45.27657" lon="5.40239">
        <ele>709</ele>
        <time>2013-11-11T10:45:21Z</time>
      </trkpt>
      <trkpt lat="45.27657" lon="5.40205">
        <ele>711</ele>
        <time>2013-11-11T10:45:26Z</time>
      </trkpt>
      <trkpt lat="45.27663" lon="5.40178">
        <ele>708</ele>
        <time>2013-11-11T10:45:31Z</time>
      </trkpt>
      <trkpt lat="45.27689" lon="5.40164">
        <ele>708</ele>
        <time>2013-11-11T10:45:41Z</time>
      </trkpt>
      <trkpt lat="45.27713" lon="5.40161">
        <ele>707</ele>
        <time>2013-11-11T10:45:47Z</time>
      </trkpt>
      <trkpt lat="45.27735" lon="5.40158">
        <ele>705</ele>
        <time>2013-11-11T10:45:53Z</time>
      </trkpt>
      <trkpt lat="45.27756" lon="5.40155">
        <ele>702</ele>
        <time>2013-11-11T10:45:58Z</time>
      </trkpt>
      <trkpt lat="45.27776" lon="5.40143">
        <ele>703</ele>
        <time>2013-11-11T10:46:05Z</time>
      </trkpt>
      <trkpt lat="45.27797" lon="5.40127">
        <ele>704</ele>
        <time>2013-11-11T10:46:14Z</time>
      </trkpt>
      <trkpt lat="45.27814" lon="5.40111">
        <ele>705</ele>
        <time>2013-11-11T10:46:25Z</time>
      </trkpt>
      <trkpt lat="45.27832" lon="5.40094">
        <ele>707</ele>
        <time>2013-11-11T10:46:37Z</time>
      </trkpt>
      <trkpt lat="45.27848" lon="5.40077">
        <ele>708</ele>
        <time>2013-11-11T10:46:51Z</time>
      </trkpt>
      <trkpt lat="45.27865" lon="5.40057">
        <ele>708</ele>
        <time>2013-11-11T10:47:04Z</time>
      </trkpt>
      <trkpt lat="45.27879" lon="5.40036">
        <ele>708</ele>
        <time>2013-11-11T10:47:17Z</time>
      </trkpt>
      <trkpt lat="45.27891" lon="5.40013">
        <ele>708</ele>
        <time>2013-11-11T10:47:27Z</time>
      </trkpt>
      <trkpt lat="45.27895" lon="5.39987">
        <ele>709</ele>
        <time>2013-11-11T10:47:35Z</time>
      </trkpt>
      <trkpt lat="45.27885" lon="5.39959">
        <ele>709</ele>
        <time>2013-11-11T10:47:44Z</time>
      </trkpt>
      <trkpt lat="45.27874" lon="5.39931">
        <ele>709</ele>
        <time>2013-11-11T10:47:52Z</time>
      </trkpt>
      <trkpt lat="45.27862" lon="5.39906">
        <ele>702</ele>
        <time>2013-11-11T10:47:57Z</time>
      </trkpt>
      <trkpt lat="45.27846" lon="5.39883">
        <ele>701</ele>
        <time>2013-11-11T10:48:01Z</time>
      </trkpt>
      <trkpt lat="45.27829" lon="5.39863">
        <ele>708</ele>
        <time>2013-11-11T10:48:05Z</time>
      </trkpt>
      <trkpt lat="45.27812" lon="5.39845">
        <ele>707</ele>
        <time>2013-11-11T10:48:09Z</time>
      </trkpt>
      <trkpt lat="45.27797" lon="5.39827">
        <ele>703</ele>
        <time>2013-11-11T10:48:13Z</time>
      </trkpt>
      <trkpt lat="45.27784" lon="5.39807">
        <ele>705</ele>
        <time>2013-11-11T10:48:17Z</time>
      </trkpt>
      <trkpt lat="45.27773" lon="5.39785">
        <ele>705</ele>
        <time>2013-11-11T10:48:21Z</time>
      </trkpt>
      <trkpt lat="45.27767" lon="5.39759">
        <ele>705</ele>
        <time>2013-11-11T10:48:25Z</time>
      </trkpt>
      <trkpt lat="45.27774" lon="5.39733">
        <ele>706</ele>
        <time>2013-11-11T10:48:30Z</time>
      </trkpt>
      <trkpt lat="45.27791" lon="5.39715">
        <ele>705</ele>
        <time>2013-11-11T10:48:36Z</time>
      </trkpt>
      <trkpt lat="45.27809" lon="5.39699">
        <ele>704</ele>
        <time>2013-11-11T10:48:44Z</time>
      </trkpt>
      <trkpt lat="45.27827" lon="5.39684">
        <ele>703</ele>
        <time>2013-11-11T10:48:54Z</time>
      </trkpt>
      <trkpt lat="45.27844" lon="5.39667">
        <ele>696</ele>
        <time>2013-11-11T10:49:02Z</time>
      </trkpt>
      <trkpt lat="45.27856" lon="5.39642">
        <ele>696</ele>
        <time>2013-11-11T10:49:10Z</time>
      </trkpt>
      <trkpt lat="45.27863" lon="5.39614">
        <ele>696</ele>
        <time>2013-11-11T10:49:15Z</time>
      </trkpt>
      <trkpt lat="45.27866" lon="5.39587">
        <ele>697</ele>
        <time>2013-11-11T10:49:18Z</time>
      </trkpt>
      <trkpt lat="45.27865" lon="5.39554">
        <ele>700</ele>
        <time>2013-11-11T10:49:22Z</time>
      </trkpt>
      <trkpt lat="45.27871" lon="5.39529">
        <ele>700</ele>
        <time>2013-11-11T10:49:29Z</time>
      </trkpt>
      <trkpt lat="45.27887" lon="5.39516">
        <ele>699</ele>
        <time>2013-11-11T10:49:38Z</time>
      </trkpt>
      <trkpt lat="45.27903" lon="5.39501">
        <ele>697</ele>
        <time>2013-11-11T10:49:48Z</time>
      </trkpt>
      <trkpt lat="45.27919" lon="5.39487">
        <ele>696</ele>
        <time>2013-11-11T10:49:57Z</time>
      </trkpt>
      <trkpt lat="45.27938" lon="5.39476">
        <ele>697</ele>
        <time>2013-11-11T10:50:06Z</time>
      </trkpt>
      <trkpt lat="45.27956" lon="5.39465">
        <ele>697</ele>
        <time>2013-11-11T10:50:16Z</time>
      </trkpt>
      <trkpt lat="45.27973" lon="5.39448">
        <ele>697</ele>
        <time>2013-11-11T10:50:29Z</time>
      </trkpt>
      <trkpt lat="45.2798" lon="5.3942">
        <ele>697</ele>
        <time>2013-11-11T10:50:40Z</time>
      </trkpt>
      <trkpt lat="45.27982" lon="5.3939">
        <ele>699</ele>
        <time>2013-11-11T10:50:46Z</time>
      </trkpt>
      <trkpt lat="45.2798" lon="5.39361">
        <ele>699</ele>
        <time>2013-11-11T10:50:51Z</time>
      </trkpt>
      <trkpt lat="45.27977" lon="5.39334">
        <ele>698</ele>
        <time>2013-11-11T10:50:56Z</time>
      </trkpt>
      <trkpt lat="45.27974" lon="5.39307">
        <ele>697</ele>
        <time>2013-11-11T10:51:02Z</time>
      </trkpt>
      <trkpt lat="45.2797" lon="5.39278">
        <ele>697</ele>
        <time>2013-11-11T10:51:07Z</time>
      </trkpt>
      <trkpt lat="45.27965" lon="5.39249">
        <ele>694</ele>
        <time>2013-11-11T10:51:12Z</time>
      </trkpt>
      <trkpt lat="45.27964" lon="5.39223">
        <ele>694</ele>
        <time>2013-11-11T10:51:18Z</time>
      </trkpt>
      <trkpt lat="45.27969" lon="5.39195">
        <ele>694</ele>
        <time>2013-11-11T10:51:23Z</time>
      </trkpt>
      <trkpt lat="45.27972" lon="5.39169">
        <ele>693</ele>
        <time>2013-11-11T10:51:27Z</time>
      </trkpt>
      <trkpt lat="45.27976" lon="5.39138">
        <ele>692</ele>
        <time>2013-11-11T10:51:32Z</time>
      </trkpt>
      <trkpt lat="45.27974" lon="5.39111">
        <ele>693</ele>
        <time>2013-11-11T10:51:37Z</time>
      </trkpt>
      <trkpt lat="45.2796" lon="5.39087">
        <ele>692</ele>
        <time>2013-11-11T10:51:42Z</time>
      </trkpt>
      <trkpt lat="45.27961" lon="5.39056">
        <ele>693</ele>
        <time>2013-11-11T10:51:47Z</time>
      </trkpt>
      <trkpt lat="45.27963" lon="5.39028">
        <ele>694</ele>
        <time>2013-11-11T10:51:52Z</time>
      </trkpt>
      <trkpt lat="45.27967" lon="5.39002">
        <ele>694</ele>
        <time>2013-11-11T10:51:57Z</time>
      </trkpt>
      <trkpt lat="45.27972" lon="5.38976">
        <ele>698</ele>
        <time>2013-11-11T10:52:03Z</time>
      </trkpt>
      <trkpt lat="45.2798" lon="5.3895">
        <ele>699</ele>
        <time>2013-11-11T10:52:10Z</time>
      </trkpt>
      <trkpt lat="45.27988" lon="5.38924">
        <ele>700</ele>
        <time>2013-11-11T10:52:17Z</time>
      </trkpt>
      <trkpt lat="45.27995" lon="5.389">
        <ele>703</ele>
        <time>2013-11-11T10:52:24Z</time>
      </trkpt>
      <trkpt lat="45.28001" lon="5.38876">
        <ele>700</ele>
        <time>2013-11-11T10:52:31Z</time>
      </trkpt>
      <trkpt lat="45.28007" lon="5.3885">
        <ele>702</ele>
        <time>2013-11-11T10:52:39Z</time>
      </trkpt>
      <trkpt lat="45.28014" lon="5.38825">
        <ele>705</ele>
        <time>2013-11-11T10:52:47Z</time>
      </trkpt>
      <trkpt lat="45.28023" lon="5.38802">
        <ele>705</ele>
        <time>2013-11-11T10:52:56Z</time>
      </trkpt>
      <trkpt lat="45.28032" lon="5.38778">
        <ele>706</ele>
        <time>2013-11-11T10:53:06Z</time>
      </trkpt>
      <trkpt lat="45.28043" lon="5.38755">
        <ele>706</ele>
        <time>2013-11-11T10:53:17Z</time>
      </trkpt>
      <trkpt lat="45.28052" lon="5.38733">
        <ele>708</ele>
        <time>2013-11-11T10:53:27Z</time>
      </trkpt>
      <trkpt lat="45.28062" lon="5.38708">
        <ele>708</ele>
        <time>2013-11-11T10:53:38Z</time>
      </trkpt>
      <trkpt lat="45.28067" lon="5.38681">
        <ele>708</ele>
        <time>2013-11-11T10:53:45Z</time>
      </trkpt>
      <trkpt lat="45.28064" lon="5.38653">
        <ele>708</ele>
        <time>2013-11-11T10:53:52Z</time>
      </trkpt>
      <trkpt lat="45.28059" lon="5.38625">
        <ele>709</ele>
        <time>2013-11-11T10:53:58Z</time>
      </trkpt>
      <trkpt lat="45.28057" lon="5.38598">
        <ele>708</ele>
        <time>2013-11-11T10:54:04Z</time>
      </trkpt>
      <trkpt lat="45.28058" lon="5.38568">
        <ele>709</ele>
        <time>2013-11-11T10:54:10Z</time>
      </trkpt>
      <trkpt lat="45.28058" lon="5.38542">
        <ele>710</ele>
        <time>2013-11-11T10:54:15Z</time>
      </trkpt>
      <trkpt lat="45.28059" lon="5.38514">
        <ele>709</ele>
        <time>2013-11-11T10:54:21Z</time>
      </trkpt>
      <trkpt lat="45.28061" lon="5.38485">
        <ele>711</ele>
        <time>2013-11-11T10:54:28Z</time>
      </trkpt>
      <trkpt lat="45.28063" lon="5.38457">
        <ele>713</ele>
        <time>2013-11-11T10:54:35Z</time>
      </trkpt>
      <trkpt lat="45.28066" lon="5.38429">
        <ele>712</ele>
        <time>2013-11-11T10:54:42Z</time>
      </trkpt>
      <trkpt lat="45.2807" lon="5.38402">
        <ele>714</ele>
        <time>2013-11-11T10:54:49Z</time>
      </trkpt>
      <trkpt lat="45.28075" lon="5.38374">
        <ele>715</ele>
        <time>2013-11-11T10:54:57Z</time>
      </trkpt>
      <trkpt lat="45.2808" lon="5.38348">
        <ele>715</ele>
        <time>2013-11-11T10:55:05Z</time>
      </trkpt>
      <trkpt lat="45.28084" lon="5.38321">
        <ele>709</ele>
        <time>2013-11-11T10:55:13Z</time>
      </trkpt>
      <trkpt lat="45.28087" lon="5.38293">
        <ele>707</ele>
        <time>2013-11-11T10:55:21Z</time>
      </trkpt>
      <trkpt lat="45.28086" lon="5.38267">
        <ele>710</ele>
        <time>2013-11-11T10:55:28Z</time>
      </trkpt>
      <trkpt lat="45.28085" lon="5.38238">
        <ele>712</ele>
        <time>2013-11-11T10:55:34Z</time>
      </trkpt>
      <trkpt lat="45.28084" lon="5.3821">
        <ele>710</ele>
        <time>2013-11-11T10:55:39Z</time>
      </trkpt>
      <trkpt lat="45.28084" lon="5.38181">
        <ele>712</ele>
        <time>2013-11-11T10:55:44Z</time>
      </trkpt>
      <trkpt lat="45.28083" lon="5.38155">
        <ele>714</ele>
        <time>2013-11-11T10:55:49Z</time>
      </trkpt>
      <trkpt lat="45.28085" lon="5.38127">
        <ele>712</ele>
        <time>2013-11-11T10:55:55Z</time>
      </trkpt>
      <trkpt lat="45.28088" lon="5.38099">
        <ele>714</ele>
        <time>2013-11-11T10:56:01Z</time>
      </trkpt>
      <trkpt lat="45.28086" lon="5.38073">
        <ele>716</ele>
        <time>2013-11-11T10:56:07Z</time>
      </trkpt>
      <trkpt lat="45.28073" lon="5.38051">
        <ele>717</ele>
        <time>2013-11-11T10:56:14Z</time>
      </trkpt>
      <trkpt lat="45.28064" lon="5.38028">
        <ele>717</ele>
        <time>2013-11-11T10:56:20Z</time>
      </trkpt>
      <trkpt lat="45.28055" lon="5.38005">
        <ele>718</ele>
        <time>2013-11-11T10:56:29Z</time>
      </trkpt>
      <trkpt lat="45.28047" lon="5.37982">
        <ele>719</ele>
        <time>2013-11-11T10:56:38Z</time>
      </trkpt>
      <trkpt lat="45.28042" lon="5.37958">
        <ele>719</ele>
        <time>2013-11-11T10:56:46Z</time>
      </trkpt>
      <trkpt lat="45.28041" lon="5.37931">
        <ele>719</ele>
        <time>2013-11-11T10:56:52Z</time>
      </trkpt>
      <trkpt lat="45.28041" lon="5.37902">
        <ele>718</ele>
        <time>2013-11-11T10:56:57Z</time>
      </trkpt>
      <trkpt lat="45.28045" lon="5.37873">
        <ele>717</ele>
        <time>2013-11-11T10:57:03Z</time>
      </trkpt>
      <trkpt lat="45.28046" lon="5.37848">
        <ele>717</ele>
        <time>2013-11-11T10:57:10Z</time>
      </trkpt>
      <trkpt lat="45.28044" lon="5.37819">
        <ele>715</ele>
        <time>2013-11-11T10:57:19Z</time>
      </trkpt>
      <trkpt lat="45.2804" lon="5.37791">
        <ele>714</ele>
        <time>2013-11-11T10:57:27Z</time>
      </trkpt>
      <trkpt lat="45.28035" lon="5.37766">
        <ele>714</ele>
        <time>2013-11-11T10:57:32Z</time>
      </trkpt>
      <trkpt lat="45.28033" lon="5.3774">
        <ele>713</ele>
        <time>2013-11-11T10:57:35Z</time>
      </trkpt>
      <trkpt lat="45.28048" lon="5.37712">
        <ele>713</ele>
        <time>2013-11-11T10:57:38Z</time>
      </trkpt>
      <trkpt lat="45.28062" lon="5.37692">
        <ele>713</ele>
        <time>2013-11-11T10:57:40Z</time>
      </trkpt>
      <trkpt lat="45.28076" lon="5.3767">
        <ele>712</ele>
        <time>2013-11-11T10:57:42Z</time>
      </trkpt>
      <trkpt lat="45.28087" lon="5.37644">
        <ele>705</ele>
        <time>2013-11-11T10:57:44Z</time>
      </trkpt>
      <trkpt lat="45.28095" lon="5.37615">
        <ele>703</ele>
        <time>2013-11-11T10:57:46Z</time>
      </trkpt>
      <trkpt lat="45.28101" lon="5.37588">
        <ele>704</ele>
        <time>2013-11-11T10:57:48Z</time>
      </trkpt>
      <trkpt lat="45.28109" lon="5.37553">
        <ele>702</ele>
        <time>2013-11-11T10:57:51Z</time>
      </trkpt>
      <trkpt lat="45.28112" lon="5.37522">
        <ele>702</ele>
        <time>2013-11-11T10:57:54Z</time>
      </trkpt>
      <trkpt lat="45.28111" lon="5.37494">
        <ele>703</ele>
        <time>2013-11-11T10:57:57Z</time>
      </trkpt>
      <trkpt lat="45.28109" lon="5.37469">
        <ele>703</ele>
        <time>2013-11-11T10:58:00Z</time>
      </trkpt>
      <trkpt lat="45.28106" lon="5.37443">
        <ele>703</ele>
        <time>2013-11-11T10:58:03Z</time>
      </trkpt>
      <trkpt lat="45.28105" lon="5.37415">
        <ele>703</ele>
        <time>2013-11-11T10:58:06Z</time>
      </trkpt>
      <trkpt lat="45.28105" lon="5.37382">
        <ele>701</ele>
        <time>2013-11-11T10:58:09Z</time>
      </trkpt>
      <trkpt lat="45.28107" lon="5.37345">
        <ele>700</ele>
        <time>2013-11-11T10:58:12Z</time>
      </trkpt>
      <trkpt lat="45.28111" lon="5.37319">
        <ele>699</ele>
        <time>2013-11-11T10:58:14Z</time>
      </trkpt>
      <trkpt lat="45.28116" lon="5.37294">
        <ele>698</ele>
        <time>2013-11-11T10:58:16Z</time>
      </trkpt>
      <trkpt lat="45.28129" lon="5.37263">
        <ele>698</ele>
        <time>2013-11-11T10:58:19Z</time>
      </trkpt>
      <trkpt lat="45.28143" lon="5.37236">
        <ele>695</ele>
        <time>2013-11-11T10:58:22Z</time>
      </trkpt>
      <trkpt lat="45.28159" lon="5.37214">
        <ele>695</ele>
        <time>2013-11-11T10:58:25Z</time>
      </trkpt>
      <trkpt lat="45.28173" lon="5.37197">
        <ele>693</ele>
        <time>2013-11-11T10:58:28Z</time>
      </trkpt>
      <trkpt lat="45.28191" lon="5.37176">
        <ele>693</ele>
        <time>2013-11-11T10:58:32Z</time>
      </trkpt>
      <trkpt lat="45.28205" lon="5.37158">
        <ele>690</ele>
        <time>2013-11-11T10:58:37Z</time>
      </trkpt>
      <trkpt lat="45.28221" lon="5.37146">
        <ele>690</ele>
        <time>2013-11-11T10:58:45Z</time>
      </trkpt>
      <trkpt lat="45.28238" lon="5.37134">
        <ele>689</ele>
        <time>2013-11-11T10:58:55Z</time>
      </trkpt>
      <trkpt lat="45.28258" lon="5.37131">
        <ele>694</ele>
        <time>2013-11-11T10:59:07Z</time>
      </trkpt>
      <trkpt lat="45.28277" lon="5.37137">
        <ele>695</ele>
        <time>2013-11-11T10:59:19Z</time>
      </trkpt>
      <trkpt lat="45.28296" lon="5.37141">
        <ele>696</ele>
        <time>2013-11-11T10:59:31Z</time>
      </trkpt>
      <trkpt lat="45.28314" lon="5.37148">
        <ele>698</ele>
        <time>2013-11-11T10:59:45Z</time>
      </trkpt>
      <trkpt lat="45.2833" lon="5.3715">
        <ele>699</ele>
        <time>2013-11-11T11:00:28Z</time>
      </trkpt>
      <trkpt lat="45.28349" lon="5.37146">
        <ele>707</ele>
        <time>2013-11-11T11:00:45Z</time>
      </trkpt>
      <trkpt lat="45.28369" lon="5.37145">
        <ele>709</ele>
        <time>2013-11-11T11:01:05Z</time>
      </trkpt>
      <trkpt lat="45.28387" lon="5.37148">
        <ele>712</ele>
        <time>2013-11-11T11:02:52Z</time>
      </trkpt>
      <trkpt lat="45.28405" lon="5.37153">
        <ele>715</ele>
        <time>2013-11-11T11:03:16Z</time>
      </trkpt>
      <trkpt lat="45.28423" lon="5.37164">
        <ele>723</ele>
        <time>2013-11-11T11:03:44Z</time>
      </trkpt>
      <trkpt lat="45.28439" lon="5.37176">
        <ele>722</ele>
        <time>2013-11-11T11:04:07Z</time>
      </trkpt>
      <trkpt lat="45.28457" lon="5.37184">
        <ele>723</ele>
        <time>2013-11-11T11:04:22Z</time>
      </trkpt>
      <trkpt lat="45.28474" lon="5.37195">
        <ele>725</ele>
        <time>2013-11-11T11:04:36Z</time>
      </trkpt>
      <trkpt lat="45.2849" lon="5.37209">
        <ele>724</ele>
        <time>2013-11-11T11:04:49Z</time>
      </trkpt>
      <trkpt lat="45.28507" lon="5.37224">
        <ele>731</ele>
        <time>2013-11-11T11:05:02Z</time>
      </trkpt>
      <trkpt lat="45.28519" lon="5.37242">
        <ele>730</ele>
        <time>2013-11-11T11:05:14Z</time>
      </trkpt>
      <trkpt lat="45.28533" lon="5.37263">
        <ele>727</ele>
        <time>2013-11-11T11:05:25Z</time>
      </trkpt>
      <trkpt lat="45.28548" lon="5.37282">
        <ele>727</ele>
        <time>2013-11-11T11:05:33Z</time>
      </trkpt>
      <trkpt lat="45.28563" lon="5.37298">
        <ele>727</ele>
        <time>2013-11-11T11:05:40Z</time>
      </trkpt>
      <trkpt lat="45.2858" lon="5.3731">
        <ele>728</ele>
        <time>2013-11-11T11:05:49Z</time>
      </trkpt>
      <trkpt lat="45.28599" lon="5.37322">
        <ele>732</ele>
        <time>2013-11-11T11:05:59Z</time>
      </trkpt>
      <trkpt lat="45.2862" lon="5.3733">
        <ele>734</ele>
        <time>2013-11-11T11:06:10Z</time>
      </trkpt>
      <trkpt lat="45.28642" lon="5.37333">
        <ele>736</ele>
        <time>2013-11-11T11:06:20Z</time>
      </trkpt>
      <trkpt lat="45.28663" lon="5.37336">
        <ele>737</ele>
        <time>2013-11-11T11:06:30Z</time>
      </trkpt>
      <trkpt lat="45.28683" lon="5.37341">
        <ele>738</ele>
        <time>2013-11-11T11:06:42Z</time>
      </trkpt>
      <trkpt lat="45.28675" lon="5.37322">
        <ele>737</ele>
        <time>2013-11-11T11:06:56Z</time>
      </trkpt>
      <trkpt lat="45.28662" lon="5.37303">
        <ele>737</ele>
        <time>2013-11-11T11:07:09Z</time>
      </trkpt>
      <trkpt lat="45.28649" lon="5.37282">
        <ele>737</ele>
        <time>2013-11-11T11:07:23Z</time>
      </trkpt>
      <trkpt lat="45.28638" lon="5.37261">
        <ele>737</ele>
        <time>2013-11-11T11:07:37Z</time>
      </trkpt>
      <trkpt lat="45.28628" lon="5.37238">
        <ele>736</ele>
        <time>2013-11-11T11:07:52Z</time>
      </trkpt>
      <trkpt lat="45.28622" lon="5.3721">
        <ele>736</ele>
        <time>2013-11-11T11:08:03Z</time>
      </trkpt>
      <trkpt lat="45.28616" lon="5.37182">
        <ele>735</ele>
        <time>2013-11-11T11:08:08Z</time>
      </trkpt>
      <trkpt lat="45.28606" lon="5.37155">
        <ele>729</ele>
        <time>2013-11-11T11:08:12Z</time>
      </trkpt>
      <trkpt lat="45.28593" lon="5.37126">
        <ele>726</ele>
        <time>2013-11-11T11:08:16Z</time>
      </trkpt>
      <trkpt lat="45.28582" lon="5.37099">
        <ele>728</ele>
        <time>2013-11-11T11:08:20Z</time>
      </trkpt>
      <trkpt lat="45.28568" lon="5.3707">
        <ele>721</ele>
        <time>2013-11-11T11:08:23Z</time>
      </trkpt>
      <trkpt lat="45.28555" lon="5.37041">
        <ele>718</ele>
        <time>2013-11-11T11:08:26Z</time>
      </trkpt>
      <trkpt lat="45.28545" lon="5.37008">
        <ele>716</ele>
        <time>2013-11-11T11:08:29Z</time>
      </trkpt>
      <trkpt lat="45.28537" lon="5.36984">
        <ele>705</ele>
        <time>2013-11-11T11:08:31Z</time>
      </trkpt>
      <trkpt lat="45.28531" lon="5.3696">
        <ele>704</ele>
        <time>2013-11-11T11:08:33Z</time>
      </trkpt>
      <trkpt lat="45.28531" lon="5.36923">
        <ele>701</ele>
        <time>2013-11-11T11:08:36Z</time>
      </trkpt>
      <trkpt lat="45.28536" lon="5.36897">
        <ele>694</ele>
        <time>2013-11-11T11:08:38Z</time>
      </trkpt>
      <trkpt lat="45.2854" lon="5.36869">
        <ele>693</ele>
        <time>2013-11-11T11:08:40Z</time>
      </trkpt>
      <trkpt lat="45.2854" lon="5.36843">
        <ele>692</ele>
        <time>2013-11-11T11:08:42Z</time>
      </trkpt>
      <trkpt lat="45.28541" lon="5.36817">
        <ele>688</ele>
        <time>2013-11-11T11:08:45Z</time>
      </trkpt>
      <trkpt lat="45.28551" lon="5.36795">
        <ele>687</ele>
        <time>2013-11-11T11:08:48Z</time>
      </trkpt>
      <trkpt lat="45.28566" lon="5.36774">
        <ele>687</ele>
        <time>2013-11-11T11:08:51Z</time>
      </trkpt>
      <trkpt lat="45.28582" lon="5.36751">
        <ele>689</ele>
        <time>2013-11-11T11:08:54Z</time>
      </trkpt>
      <trkpt lat="45.28594" lon="5.3673">
        <ele>685</ele>
        <time>2013-11-11T11:08:57Z</time>
      </trkpt>
      <trkpt lat="45.28603" lon="5.36706">
        <ele>684</ele>
        <time>2013-11-11T11:09:02Z</time>
      </trkpt>
      <trkpt lat="45.28608" lon="5.36679">
        <ele>684</ele>
        <time>2013-11-11T11:09:08Z</time>
      </trkpt>
      <trkpt lat="45.28608" lon="5.36654">
        <ele>685</ele>
        <time>2013-11-11T11:09:25Z</time>
      </trkpt>
      <trkpt lat="45.28606" lon="5.36628">
        <ele>686</ele>
        <time>2013-11-11T11:09:37Z</time>
      </trkpt>
      <trkpt lat="45.28609" lon="5.36601">
        <ele>687</ele>
        <time>2013-11-11T11:09:51Z</time>
      </trkpt>
      <trkpt lat="45.28612" lon="5.36574">
        <ele>687</ele>
        <time>2013-11-11T11:10:02Z</time>
      </trkpt>
      <trkpt lat="45.28613" lon="5.36544">
        <ele>686</ele>
        <time>2013-11-11T11:10:11Z</time>
      </trkpt>
      <trkpt lat="45.28614" lon="5.36511">
        <ele>685</ele>
        <time>2013-11-11T11:10:16Z</time>
      </trkpt>
      <trkpt lat="45.28611" lon="5.36478">
        <ele>680</ele>
        <time>2013-11-11T11:10:21Z</time>
      </trkpt>
      <trkpt lat="45.28608" lon="5.36446">
        <ele>678</ele>
        <time>2013-11-11T11:10:26Z</time>
      </trkpt>
      <trkpt lat="45.28603" lon="5.36418">
        <ele>676</ele>
        <time>2013-11-11T11:10:32Z</time>
      </trkpt>
      <trkpt lat="45.28598" lon="5.36393">
        <ele>672</ele>
        <time>2013-11-11T11:10:37Z</time>
      </trkpt>
      <trkpt lat="45.28598" lon="5.36359">
        <ele>672</ele>
        <time>2013-11-11T11:10:41Z</time>
      </trkpt>
      <trkpt lat="45.28594" lon="5.3633">
        <ele>670</ele>
        <time>2013-11-11T11:10:44Z</time>
      </trkpt>
      <trkpt lat="45.28583" lon="5.36304">
        <ele>665</ele>
        <time>2013-11-11T11:10:47Z</time>
      </trkpt>
      <trkpt lat="45.2857" lon="5.36276">
        <ele>664</ele>
        <time>2013-11-11T11:10:50Z</time>
      </trkpt>
      <trkpt lat="45.28555" lon="5.3625">
        <ele>663</ele>
        <time>2013-11-11T11:10:53Z</time>
      </trkpt>
      <trkpt lat="45.28541" lon="5.36222">
        <ele>660</ele>
        <time>2013-11-11T11:10:56Z</time>
      </trkpt>
      <trkpt lat="45.2853" lon="5.36189">
        <ele>658</ele>
        <time>2013-11-11T11:10:59Z</time>
      </trkpt>
      <trkpt lat="45.28526" lon="5.36164">
        <ele>654</ele>
        <time>2013-11-11T11:11:01Z</time>
      </trkpt>
      <trkpt lat="45.28524" lon="5.36137">
        <ele>654</ele>
        <time>2013-11-11T11:11:03Z</time>
      </trkpt>
      <trkpt lat="45.28522" lon="5.36108">
        <ele>654</ele>
        <time>2013-11-11T11:11:05Z</time>
      </trkpt>
      <trkpt lat="45.28519" lon="5.3608">
        <ele>654</ele>
        <time>2013-11-11T11:11:07Z</time>
      </trkpt>
      <trkpt lat="45.28513" lon="5.36048">
        <ele>656</ele>
        <time>2013-11-11T11:11:10Z</time>
      </trkpt>
      <trkpt lat="45.28505" lon="5.36023">
        <ele>658</ele>
        <time>2013-11-11T11:11:14Z</time>
      </trkpt>
      <trkpt lat="45.28498" lon="5.35998">
        <ele>664</ele>
        <time>2013-11-11T11:11:22Z</time>
      </trkpt>
      <trkpt lat="45.28492" lon="5.35975">
        <ele>665</ele>
        <time>2013-11-11T11:11:31Z</time>
      </trkpt>
      <trkpt lat="45.28489" lon="5.35945">
        <ele>667</ele>
        <time>2013-11-11T11:11:42Z</time>
      </trkpt>
      <trkpt lat="45.28492" lon="5.35919">
        <ele>672</ele>
        <time>2013-11-11T11:11:53Z</time>
      </trkpt>
      <trkpt lat="45.28496" lon="5.35893">
        <ele>673</ele>
        <time>2013-11-11T11:12:05Z</time>
      </trkpt>
      <trkpt lat="45.28491" lon="5.35867">
        <ele>674</ele>
        <time>2013-11-11T11:12:17Z</time>
      </trkpt>
      <trkpt lat="45.28484" lon="5.35843">
        <ele>676</ele>
        <time>2013-11-11T11:12:29Z</time>
      </trkpt>
      <trkpt lat="45.28475" lon="5.35816">
        <ele>678</ele>
        <time>2013-11-11T11:12:39Z</time>
      </trkpt>
      <trkpt lat="45.2847" lon="5.35786">
        <ele>679</ele>
        <time>2013-11-11T11:12:46Z</time>
      </trkpt>
      <trkpt lat="45.28459" lon="5.35762">
        <ele>679</ele>
        <time>2013-11-11T11:12:52Z</time>
      </trkpt>
      <trkpt lat="45.28448" lon="5.35729">
        <ele>678</ele>
        <time>2013-11-11T11:12:57Z</time>
      </trkpt>
      <trkpt lat="45.28458" lon="5.35684">
        <ele>677</ele>
        <time>2013-11-11T11:13:01Z</time>
      </trkpt>
      <trkpt lat="45.28469" lon="5.35655">
        <ele>671</ele>
        <time>2013-11-11T11:13:03Z</time>
      </trkpt>
      <trkpt lat="45.2848" lon="5.35621">
        <ele>669</ele>
        <time>2013-11-11T11:13:05Z</time>
      </trkpt>
      <trkpt lat="45.28486" lon="5.35584">
        <ele>668</ele>
        <time>2013-11-11T11:13:07Z</time>
      </trkpt>
      <trkpt lat="45.2849" lon="5.35544">
        <ele>656</ele>
        <time>2013-11-11T11:13:09Z</time>
      </trkpt>
      <trkpt lat="45.2849" lon="5.35505">
        <ele>654</ele>
        <time>2013-11-11T11:13:11Z</time>
      </trkpt>
      <trkpt lat="45.28485" lon="5.35468">
        <ele>644</ele>
        <time>2013-11-11T11:13:13Z</time>
      </trkpt>
      <trkpt lat="45.28474" lon="5.35432">
        <ele>642</ele>
        <time>2013-11-11T11:13:15Z</time>
      </trkpt>
      <trkpt lat="45.2846" lon="5.35394">
        <ele>634</ele>
        <time>2013-11-11T11:13:17Z</time>
      </trkpt>
      <trkpt lat="45.28446" lon="5.35354">
        <ele>631</ele>
        <time>2013-11-11T11:13:19Z</time>
      </trkpt>
      <trkpt lat="45.28429" lon="5.35316">
        <ele>627</ele>
        <time>2013-11-11T11:13:21Z</time>
      </trkpt>
      <trkpt lat="45.28415" lon="5.35284">
        <ele>623</ele>
        <time>2013-11-11T11:13:23Z</time>
      </trkpt>
      <trkpt lat="45.28406" lon="5.35256">
        <ele>625</ele>
        <time>2013-11-11T11:13:26Z</time>
      </trkpt>
      <trkpt lat="45.28407" lon="5.35228">
        <ele>626</ele>
        <time>2013-11-11T11:13:36Z</time>
      </trkpt>
      <trkpt lat="45.28402" lon="5.35201">
        <ele>626</ele>
        <time>2013-11-11T11:13:43Z</time>
      </trkpt>
      <trkpt lat="45.28396" lon="5.35174">
        <ele>627</ele>
        <time>2013-11-11T11:13:50Z</time>
      </trkpt>
      <trkpt lat="45.28386" lon="5.35152">
        <ele>630</ele>
        <time>2013-11-11T11:13:58Z</time>
      </trkpt>
      <trkpt lat="45.28367" lon="5.35145">
        <ele>630</ele>
        <time>2013-11-11T11:14:06Z</time>
      </trkpt>
      <trkpt lat="45.28348" lon="5.35146">
        <ele>630</ele>
        <time>2013-11-11T11:14:13Z</time>
      </trkpt>
      <trkpt lat="45.28333" lon="5.35134">
        <ele>628</ele>
        <time>2013-11-11T11:14:37Z</time>
      </trkpt>
      <trkpt lat="45.2832" lon="5.35113">
        <ele>628</ele>
        <time>2013-11-11T11:14:44Z</time>
      </trkpt>
      <trkpt lat="45.28309" lon="5.35088">
        <ele>629</ele>
        <time>2013-11-11T11:14:51Z</time>
      </trkpt>
      <trkpt lat="45.28299" lon="5.35064">
        <ele>636</ele>
        <time>2013-11-11T11:14:58Z</time>
      </trkpt>
      <trkpt lat="45.28287" lon="5.35043">
        <ele>637</ele>
        <time>2013-11-11T11:15:05Z</time>
      </trkpt>
      <trkpt lat="45.28271" lon="5.35027">
        <ele>638</ele>
        <time>2013-11-11T11:15:12Z</time>
      </trkpt>
      <trkpt lat="45.28255" lon="5.35016">
        <ele>641</ele>
        <time>2013-11-11T11:15:19Z</time>
      </trkpt>
      <trkpt lat="45.28238" lon="5.35007">
        <ele>639</ele>
        <time>2013-11-11T11:15:26Z</time>
      </trkpt>
      <trkpt lat="45.28218" lon="5.34999">
        <ele>648</ele>
        <time>2013-11-11T11:15:34Z</time>
      </trkpt>
      <trkpt lat="45.28199" lon="5.34991">
        <ele>647</ele>
        <time>2013-11-11T11:15:42Z</time>
      </trkpt>
      <trkpt lat="45.28181" lon="5.34979">
        <ele>647</ele>
        <time>2013-11-11T11:15:50Z</time>
      </trkpt>
      <trkpt lat="45.28164" lon="5.34964">
        <ele>641</ele>
        <time>2013-11-11T11:15:58Z</time>
      </trkpt>
      <trkpt lat="45.28148" lon="5.34949">
        <ele>643</ele>
        <time>2013-11-11T11:16:06Z</time>
      </trkpt>
      <trkpt lat="45.2813" lon="5.34934">
        <ele>643</ele>
        <time>2013-11-11T11:16:14Z</time>
      </trkpt>
      <trkpt lat="45.28113" lon="5.34921">
        <ele>641</ele>
        <time>2013-11-11T11:16:21Z</time>
      </trkpt>
      <trkpt lat="45.28096" lon="5.34911">
        <ele>644</ele>
        <time>2013-11-11T11:16:28Z</time>
      </trkpt>
      <trkpt lat="45.28084" lon="5.3489">
        <ele>646</ele>
        <time>2013-11-11T11:16:36Z</time>
      </trkpt>
      <trkpt lat="45.28088" lon="5.34862">
        <ele>648</ele>
        <time>2013-11-11T11:16:44Z</time>
      </trkpt>
      <trkpt lat="45.28099" lon="5.34838">
        <ele>648</ele>
        <time>2013-11-11T11:16:52Z</time>
      </trkpt>
      <trkpt lat="45.28111" lon="5.34815">
        <ele>649</ele>
        <time>2013-11-11T11:17:00Z</time>
      </trkpt>
      <trkpt lat="45.28125" lon="5.34793">
        <ele>651</ele>
        <time>2013-11-11T11:17:08Z</time>
      </trkpt>
      <trkpt lat="45.28141" lon="5.34777">
        <ele>652</ele>
        <time>2013-11-11T11:17:16Z</time>
      </trkpt>
      <trkpt lat="45.28151" lon="5.34753">
        <ele>655</ele>
        <time>2013-11-11T11:17:24Z</time>
      </trkpt>
      <trkpt lat="45.28151" lon="5.34726">
        <ele>654</ele>
        <time>2013-11-11T11:17:32Z</time>
      </trkpt>
      <trkpt lat="45.28147" lon="5.34699">
        <ele>654</ele>
        <time>2013-11-11T11:17:40Z</time>
      </trkpt>
      <trkpt lat="45.28147" lon="5.34671">
        <ele>656</ele>
        <time>2013-11-11T11:17:48Z</time>
      </trkpt>
      <trkpt lat="45.28154" lon="5.34645">
        <ele>656</ele>
        <time>2013-11-11T11:17:56Z</time>
      </trkpt>
      <trkpt lat="45.28164" lon="5.34621">
        <ele>656</ele>
        <time>2013-11-11T11:18:04Z</time>
      </trkpt>
      <trkpt lat="45.28174" lon="5.34596">
        <ele>665</ele>
        <time>2013-11-11T11:18:12Z</time>
      </trkpt>
      <trkpt lat="45.28182" lon="5.34571">
        <ele>665</ele>
        <time>2013-11-11T11:18:20Z</time>
      </trkpt>
      <trkpt lat="45.28188" lon="5.34543">
        <ele>666</ele>
        <time>2013-11-11T11:18:28Z</time>
      </trkpt>
      <trkpt lat="45.2819" lon="5.34518">
        <ele>666</ele>
        <time>2013-11-11T11:18:35Z</time>
      </trkpt>
      <trkpt lat="45.28191" lon="5.34492">
        <ele>665</ele>
        <time>2013-11-11T11:18:41Z</time>
      </trkpt>
      <trkpt lat="45.28198" lon="5.34467">
        <ele>667</ele>
        <time>2013-11-11T11:18:46Z</time>
      </trkpt>
      <trkpt lat="45.28204" lon="5.34438">
        <ele>668</ele>
        <time>2013-11-11T11:18:52Z</time>
      </trkpt>
      <trkpt lat="45.28209" lon="5.34408">
        <ele>668</ele>
        <time>2013-11-11T11:18:58Z</time>
      </trkpt>
      <trkpt lat="45.28214" lon="5.34382">
        <ele>669</ele>
        <time>2013-11-11T11:19:04Z</time>
      </trkpt>
      <trkpt lat="45.28224" lon="5.34356">
        <ele>671</ele>
        <time>2013-11-11T11:19:10Z</time>
      </trkpt>
      <trkpt lat="45.28236" lon="5.34336">
        <ele>676</ele>
        <time>2013-11-11T11:19:15Z</time>
      </trkpt>
      <trkpt lat="45.28247" lon="5.34315">
        <ele>672</ele>
        <time>2013-11-11T11:19:20Z</time>
      </trkpt>
      <trkpt lat="45.28259" lon="5.3429">
        <ele>681</ele>
        <time>2013-11-11T11:19:26Z</time>
      </trkpt>
      <trkpt lat="45.28268" lon="5.34264">
        <ele>678</ele>
        <time>2013-11-11T11:19:32Z</time>
      </trkpt>
      <trkpt lat="45.28277" lon="5.34239">
        <ele>673</ele>
        <time>2013-11-11T11:19:38Z</time>
      </trkpt>
      <trkpt lat="45.28286" lon="5.34213">
        <ele>673</ele>
        <time>2013-11-11T11:19:44Z</time>
      </trkpt>
      <trkpt lat="45.28295" lon="5.34188">
        <ele>673</ele>
        <time>2013-11-11T11:19:50Z</time>
      </trkpt>
      <trkpt lat="45.28304" lon="5.34162">
        <ele>670</ele>
        <time>2013-11-11T11:19:56Z</time>
      </trkpt>
      <trkpt lat="45.28312" lon="5.34137">
        <ele>670</ele>
        <time>2013-11-11T11:20:02Z</time>
      </trkpt>
      <trkpt lat="45.28318" lon="5.34112">
        <ele>669</ele>
        <time>2013-11-11T11:20:08Z</time>
      </trkpt>
      <trkpt lat="45.28323" lon="5.34087">
        <ele>672</ele>
        <time>2013-11-11T11:20:14Z</time>
      </trkpt>
      <trkpt lat="45.28325" lon="5.34057">
        <ele>668</ele>
        <time>2013-11-11T11:20:21Z</time>
      </trkpt>
      <trkpt lat="45.28326" lon="5.3403">
        <ele>668</ele>
        <time>2013-11-11T11:20:27Z</time>
      </trkpt>
      <trkpt lat="45.28328" lon="5.34">
        <ele>671</ele>
        <time>2013-11-11T11:20:34Z</time>
      </trkpt>
      <trkpt lat="45.28334" lon="5.33975">
        <ele>671</ele>
        <time>2013-11-11T11:20:42Z</time>
      </trkpt>
      <trkpt lat="45.28331" lon="5.33947">
        <ele>671</ele>
        <time>2013-11-11T11:20:51Z</time>
      </trkpt>
      <trkpt lat="45.28326" lon="5.33922">
        <ele>673</ele>
        <time>2013-11-11T11:21:01Z</time>
      </trkpt>
      <trkpt lat="45.28325" lon="5.33895">
        <ele>675</ele>
        <time>2013-11-11T11:21:13Z</time>
      </trkpt>
      <trkpt lat="45.28322" lon="5.33868">
        <ele>675</ele>
        <time>2013-11-11T11:21:26Z</time>
      </trkpt>
      <trkpt lat="45.28321" lon="5.33841">
        <ele>677</ele>
        <time>2013-11-11T11:21:39Z</time>
      </trkpt>
      <trkpt lat="45.2832" lon="5.33815">
        <ele>679</ele>
        <time>2013-11-11T11:21:52Z</time>
      </trkpt>
      <trkpt lat="45.28316" lon="5.33789">
        <ele>679</ele>
        <time>2013-11-11T11:22:07Z</time>
      </trkpt>
      <trkpt lat="45.28319" lon="5.33763">
        <ele>681</ele>
        <time>2013-11-11T11:22:23Z</time>
      </trkpt>
      <trkpt lat="45.28326" lon="5.33738">
        <ele>685</ele>
        <time>2013-11-11T11:22:40Z</time>
      </trkpt>
      <trkpt lat="45.28329" lon="5.33711">
        <ele>686</ele>
        <time>2013-11-11T11:22:56Z</time>
      </trkpt>
      <trkpt lat="45.2833" lon="5.33684">
        <ele>689</ele>
        <time>2013-11-11T11:23:11Z</time>
      </trkpt>
      <trkpt lat="45.28331" lon="5.33659">
        <ele>693</ele>
        <time>2013-11-11T11:23:26Z</time>
      </trkpt>
      <trkpt lat="45.28331" lon="5.33625">
        <ele>693</ele>
        <time>2013-11-11T11:23:48Z</time>
      </trkpt>
      <trkpt lat="45.28314" lon="5.33622">
        <ele>692</ele>
        <time>2013-11-11T11:24:59Z</time>
      </trkpt>
      <trkpt lat="45.28293" lon="5.33617">
        <ele>691</ele>
        <time>2013-11-11T11:25:05Z</time>
      </trkpt>
      <trkpt lat="45.28297" lon="5.33592">
        <ele>692</ele>
        <time>2013-11-11T11:25:15Z</time>
      </trkpt>
      <trkpt lat="45.28294" lon="5.33565">
        <ele>699</ele>
        <time>2013-11-11T11:25:25Z</time>
      </trkpt>
      <trkpt lat="45.28286" lon="5.33542">
        <ele>700</ele>
        <time>2013-11-11T11:25:35Z</time>
      </trkpt>
      <trkpt lat="45.28273" lon="5.33523">
        <ele>702</ele>
        <time>2013-11-11T11:25:45Z</time>
      </trkpt>
      <trkpt lat="45.28258" lon="5.33507">
        <ele>704</ele>
        <time>2013-11-11T11:25:56Z</time>
      </trkpt>
      <trkpt lat="45.28242" lon="5.33486">
        <ele>707</ele>
        <time>2013-11-11T11:26:07Z</time>
      </trkpt>
      <trkpt lat="45.28226" lon="5.33468">
        <ele>708</ele>
        <time>2013-11-11T11:26:19Z</time>
      </trkpt>
      <trkpt lat="45.28207" lon="5.33452">
        <ele>709</ele>
        <time>2013-11-11T11:26:31Z</time>
      </trkpt>
      <trkpt lat="45.28186" lon="5.33436">
        <ele>710</ele>
        <time>2013-11-11T11:26:43Z</time>
      </trkpt>
      <trkpt lat="45.28167" lon="5.33417">
        <ele>713</ele>
        <time>2013-11-11T11:26:54Z</time>
      </trkpt>
      <trkpt lat="45.2815" lon="5.33402">
        <ele>713</ele>
        <time>2013-11-11T11:27:04Z</time>
      </trkpt>
      <trkpt lat="45.28131" lon="5.33389">
        <ele>713</ele>
        <time>2013-11-11T11:27:14Z</time>
      </trkpt>
      <trkpt lat="45.28113" lon="5.33376">
        <ele>713</ele>
        <time>2013-11-11T11:27:24Z</time>
      </trkpt>
      <trkpt lat="45.28094" lon="5.33364">
        <ele>714</ele>
        <time>2013-11-11T11:27:34Z</time>
      </trkpt>
      <trkpt lat="45.28076" lon="5.33354">
        <ele>711</ele>
        <time>2013-11-11T11:27:43Z</time>
      </trkpt>
      <trkpt lat="45.28058" lon="5.33345">
        <ele>711</ele>
        <time>2013-11-11T11:27:53Z</time>
      </trkpt>
      <trkpt lat="45.2804" lon="5.33336">
        <ele>710</ele>
        <time>2013-11-11T11:28:03Z</time>
      </trkpt>
      <trkpt lat="45.28022" lon="5.33325">
        <ele>715</ele>
        <time>2013-11-11T11:28:13Z</time>
      </trkpt>
      <trkpt lat="45.28007" lon="5.33307">
        <ele>715</ele>
        <time>2013-11-11T11:28:23Z</time>
      </trkpt>
      <trkpt lat="45.27998" lon="5.33283">
        <ele>715</ele>
        <time>2013-11-11T11:28:32Z</time>
      </trkpt>
      <trkpt lat="45.27993" lon="5.33257">
        <ele>716</ele>
        <time>2013-11-11T11:28:41Z</time>
      </trkpt>
      <trkpt lat="45.27994" lon="5.33243">
        <ele>717</ele>
        <time>2013-11-11T11:29:51Z</time>
      </trkpt>
      <trkpt lat="45.27992" lon="5.3324">
        <ele>717</ele>
        <time>2013-11-11T11:34:10Z</time>
      </trkpt>
      <trkpt lat="45.27991" lon="5.33241">
        <ele>717</ele>
        <time>2013-11-11T11:38:48Z</time>
      </trkpt>
      <trkpt lat="45.2799" lon="5.33237">
        <ele>717</ele>
        <time>2013-11-11T11:41:55Z</time>
      </trkpt>
      <trkpt lat="45.27992" lon="5.33247">
        <ele>717</ele>
        <time>2013-11-11T11:42:42Z</time>
      </trkpt>
      <trkpt lat="45.27973" lon="5.33256">
        <ele>716</ele>
        <time>2013-11-11T11:43:02Z</time>
      </trkpt>
      <trkpt lat="45.27953" lon="5.33255">
        <ele>717</ele>
        <time>2013-11-11T11:43:19Z</time>
      </trkpt>
      <trkpt lat="45.27934" lon="5.33254">
        <ele>718</ele>
        <time>2013-11-11T11:43:35Z</time>
      </trkpt>
      <trkpt lat="45.27918" lon="5.33251">
        <ele>720</ele>
        <time>2013-11-11T11:43:48Z</time>
      </trkpt>
      <trkpt lat="45.27899" lon="5.33244">
        <ele>721</ele>
        <time>2013-11-11T11:43:56Z</time>
      </trkpt>
      <trkpt lat="45.27881" lon="5.33234">
        <ele>722</ele>
        <time>2013-11-11T11:44:03Z</time>
      </trkpt>
      <trkpt lat="45.27863" lon="5.33222">
        <ele>723</ele>
        <time>2013-11-11T11:44:10Z</time>
      </trkpt>
      <trkpt lat="45.27844" lon="5.33214">
        <ele>723</ele>
        <time>2013-11-11T11:44:18Z</time>
      </trkpt>
      <trkpt lat="45.27823" lon="5.33208">
        <ele>726</ele>
        <time>2013-11-11T11:44:27Z</time>
      </trkpt>
      <trkpt lat="45.27802" lon="5.33202">
        <ele>726</ele>
        <time>2013-11-11T11:44:35Z</time>
      </trkpt>
      <trkpt lat="45.27782" lon="5.332">
        <ele>726</ele>
        <time>2013-11-11T11:44:43Z</time>
      </trkpt>
      <trkpt lat="45.27763" lon="5.33197">
        <ele>727</ele>
        <time>2013-11-11T11:44:50Z</time>
      </trkpt>
      <trkpt lat="45.27744" lon="5.33195">
        <ele>728</ele>
        <time>2013-11-11T11:44:57Z</time>
      </trkpt>
      <trkpt lat="45.27723" lon="5.33193">
        <ele>728</ele>
        <time>2013-11-11T11:45:05Z</time>
      </trkpt>
      <trkpt lat="45.27704" lon="5.3319">
        <ele>728</ele>
        <time>2013-11-11T11:45:12Z</time>
      </trkpt>
      <trkpt lat="45.27684" lon="5.33183">
        <ele>728</ele>
        <time>2013-11-11T11:45:19Z</time>
      </trkpt>
      <trkpt lat="45.27665" lon="5.33176">
        <ele>729</ele>
        <time>2013-11-11T11:45:27Z</time>
      </trkpt>
      <trkpt lat="45.27645" lon="5.33166">
        <ele>730</ele>
        <time>2013-11-11T11:45:35Z</time>
      </trkpt>
      <trkpt lat="45.27624" lon="5.33153">
        <ele>729</ele>
        <time>2013-11-11T11:45:43Z</time>
      </trkpt>
      <trkpt lat="45.27607" lon="5.33133">
        <ele>730</ele>
        <time>2013-11-11T11:45:51Z</time>
      </trkpt>
      <trkpt lat="45.27593" lon="5.33114">
        <ele>730</ele>
        <time>2013-11-11T11:45:58Z</time>
      </trkpt>
      <trkpt lat="45.27576" lon="5.33094">
        <ele>727</ele>
        <time>2013-11-11T11:46:05Z</time>
      </trkpt>
      <trkpt lat="45.27563" lon="5.33071">
        <ele>728</ele>
        <time>2013-11-11T11:46:11Z</time>
      </trkpt>
      <trkpt lat="45.27548" lon="5.33048">
        <ele>726</ele>
        <time>2013-11-11T11:46:16Z</time>
      </trkpt>
      <trkpt lat="45.27534" lon="5.33028">
        <ele>726</ele>
        <time>2013-11-11T11:46:20Z</time>
      </trkpt>
      <trkpt lat="45.27519" lon="5.33006">
        <ele>727</ele>
        <time>2013-11-11T11:46:25Z</time>
      </trkpt>
      <trkpt lat="45.27502" lon="5.32986">
        <ele>729</ele>
        <time>2013-11-11T11:46:31Z</time>
      </trkpt>
      <trkpt lat="45.27485" lon="5.32964">
        <ele>728</ele>
        <time>2013-11-11T11:46:38Z</time>
      </trkpt>
      <trkpt lat="45.27469" lon="5.32946">
        <ele>728</ele>
        <time>2013-11-11T11:46:43Z</time>
      </trkpt>
      <trkpt lat="45.2745" lon="5.32928">
        <ele>727</ele>
        <time>2013-11-11T11:46:48Z</time>
      </trkpt>
      <trkpt lat="45.27433" lon="5.32912">
        <ele>728</ele>
        <time>2013-11-11T11:46:52Z</time>
      </trkpt>
      <trkpt lat="45.27412" lon="5.32896">
        <ele>724</ele>
        <time>2013-11-11T11:46:56Z</time>
      </trkpt>
      <trkpt lat="45.27393" lon="5.32879">
        <ele>723</ele>
        <time>2013-11-11T11:47:00Z</time>
      </trkpt>
      <trkpt lat="45.27377" lon="5.32861">
        <ele>723</ele>
        <time>2013-11-11T11:47:04Z</time>
      </trkpt>
      <trkpt lat="45.27364" lon="5.32843">
        <ele>723</ele>
        <time>2013-11-11T11:47:08Z</time>
      </trkpt>
      <trkpt lat="45.27346" lon="5.32827">
        <ele>723</ele>
        <time>2013-11-11T11:47:14Z</time>
      </trkpt>
      <trkpt lat="45.27327" lon="5.32821">
        <ele>722</ele>
        <time>2013-11-11T11:47:19Z</time>
      </trkpt>
      <trkpt lat="45.27308" lon="5.32802">
        <ele>722</ele>
        <time>2013-11-11T11:47:26Z</time>
      </trkpt>
      <trkpt lat="45.27295" lon="5.32782">
        <ele>722</ele>
        <time>2013-11-11T11:47:32Z</time>
      </trkpt>
      <trkpt lat="45.27282" lon="5.32754">
        <ele>722</ele>
        <time>2013-11-11T11:47:41Z</time>
      </trkpt>
      <trkpt lat="45.27266" lon="5.32738">
        <ele>722</ele>
        <time>2013-11-11T11:47:46Z</time>
      </trkpt>
      <trkpt lat="45.27249" lon="5.32723">
        <ele>722</ele>
        <time>2013-11-11T11:47:51Z</time>
      </trkpt>
      <trkpt lat="45.2723" lon="5.32708">
        <ele>722</ele>
        <time>2013-11-11T11:47:56Z</time>
      </trkpt>
      <trkpt lat="45.27214" lon="5.32696">
        <ele>722</ele>
        <time>2013-11-11T11:48:01Z</time>
      </trkpt>
      <trkpt lat="45.27196" lon="5.32691">
        <ele>722</ele>
        <time>2013-11-11T11:48:08Z</time>
      </trkpt>
      <trkpt lat="45.27174" lon="5.32684">
        <ele>722</ele>
        <time>2013-11-11T11:48:15Z</time>
      </trkpt>
      <trkpt lat="45.27152" lon="5.32677">
        <ele>720</ele>
        <time>2013-11-11T11:48:21Z</time>
      </trkpt>
      <trkpt lat="45.27132" lon="5.32666">
        <ele>720</ele>
        <time>2013-11-11T11:48:27Z</time>
      </trkpt>
      <trkpt lat="45.27113" lon="5.32655">
        <ele>720</ele>
        <time>2013-11-11T11:48:34Z</time>
      </trkpt>
      <trkpt lat="45.27095" lon="5.32658">
        <ele>720</ele>
        <time>2013-11-11T11:48:41Z</time>
      </trkpt>
      <trkpt lat="45.27075" lon="5.32653">
        <ele>719</ele>
        <time>2013-11-11T11:48:48Z</time>
      </trkpt>
      <trkpt lat="45.27052" lon="5.32643">
        <ele>719</ele>
        <time>2013-11-11T11:48:54Z</time>
      </trkpt>
      <trkpt lat="45.27033" lon="5.32637">
        <ele>719</ele>
        <time>2013-11-11T11:49:00Z</time>
      </trkpt>
      <trkpt lat="45.27012" lon="5.3263">
        <ele>719</ele>
        <time>2013-11-11T11:49:07Z</time>
      </trkpt>
      <trkpt lat="45.26995" lon="5.32621">
        <ele>719</ele>
        <time>2013-11-11T11:49:14Z</time>
      </trkpt>
      <trkpt lat="45.26976" lon="5.32614">
        <ele>719</ele>
        <time>2013-11-11T11:49:22Z</time>
      </trkpt>
      <trkpt lat="45.26957" lon="5.32606">
        <ele>719</ele>
        <time>2013-11-11T11:49:30Z</time>
      </trkpt>
      <trkpt lat="45.26939" lon="5.32596">
        <ele>720</ele>
        <time>2013-11-11T11:49:38Z</time>
      </trkpt>
      <trkpt lat="45.26921" lon="5.32588">
        <ele>722</ele>
        <time>2013-11-11T11:49:47Z</time>
      </trkpt>
      <trkpt lat="45.26903" lon="5.32583">
        <ele>723</ele>
        <time>2013-11-11T11:49:57Z</time>
      </trkpt>
      <trkpt lat="45.26884" lon="5.32576">
        <ele>723</ele>
        <time>2013-11-11T11:50:07Z</time>
      </trkpt>
      <trkpt lat="45.26864" lon="5.32571">
        <ele>723</ele>
        <time>2013-11-11T11:50:16Z</time>
      </trkpt>
      <trkpt lat="45.26845" lon="5.32564">
        <ele>723</ele>
        <time>2013-11-11T11:50:25Z</time>
      </trkpt>
      <trkpt lat="45.26828" lon="5.32552">
        <ele>723</ele>
        <time>2013-11-11T11:50:36Z</time>
      </trkpt>
      <trkpt lat="45.26811" lon="5.32536">
        <ele>723</ele>
        <time>2013-11-11T11:50:47Z</time>
      </trkpt>
      <trkpt lat="45.26793" lon="5.32522">
        <ele>723</ele>
        <time>2013-11-11T11:50:56Z</time>
      </trkpt>
      <trkpt lat="45.26776" lon="5.32506">
        <ele>723</ele>
        <time>2013-11-11T11:51:03Z</time>
      </trkpt>
      <trkpt lat="45.26759" lon="5.32494">
        <ele>725</ele>
        <time>2013-11-11T11:51:08Z</time>
      </trkpt>
      <trkpt lat="45.26741" lon="5.32484">
        <ele>722</ele>
        <time>2013-11-11T11:51:12Z</time>
      </trkpt>
      <trkpt lat="45.2672" lon="5.32475">
        <ele>720</ele>
        <time>2013-11-11T11:51:16Z</time>
      </trkpt>
      <trkpt lat="45.26703" lon="5.32465">
        <ele>719</ele>
        <time>2013-11-11T11:51:19Z</time>
      </trkpt>
      <trkpt lat="45.26683" lon="5.32447">
        <ele>719</ele>
        <time>2013-11-11T11:51:23Z</time>
      </trkpt>
      <trkpt lat="45.26667" lon="5.32433">
        <ele>719</ele>
        <time>2013-11-11T11:51:26Z</time>
      </trkpt>
      <trkpt lat="45.26651" lon="5.32418">
        <ele>716</ele>
        <time>2013-11-11T11:51:29Z</time>
      </trkpt>
      <trkpt lat="45.26634" lon="5.32403">
        <ele>717</ele>
        <time>2013-11-11T11:51:32Z</time>
      </trkpt>
      <trkpt lat="45.26614" lon="5.32391">
        <ele>716</ele>
        <time>2013-11-11T11:51:35Z</time>
      </trkpt>
      <trkpt lat="45.26593" lon="5.32381">
        <ele>716</ele>
        <time>2013-11-11T11:51:38Z</time>
      </trkpt>
      <trkpt lat="45.26571" lon="5.32373">
        <ele>717</ele>
        <time>2013-11-11T11:51:41Z</time>
      </trkpt>
      <trkpt lat="45.2655" lon="5.32367">
        <ele>717</ele>
        <time>2013-11-11T11:51:44Z</time>
      </trkpt>
      <trkpt lat="45.26532" lon="5.32359">
        <ele>717</ele>
        <time>2013-11-11T11:51:48Z</time>
      </trkpt>
      <trkpt lat="45.26532" lon="5.32335">
        <ele>717</ele>
        <time>2013-11-11T11:51:54Z</time>
      </trkpt>
      <trkpt lat="45.26547" lon="5.32314">
        <ele>715</ele>
        <time>2013-11-11T11:51:58Z</time>
      </trkpt>
      <trkpt lat="45.26567" lon="5.32291">
        <ele>713</ele>
        <time>2013-11-11T11:52:02Z</time>
      </trkpt>
      <trkpt lat="45.26585" lon="5.3227">
        <ele>710</ele>
        <time>2013-11-11T11:52:06Z</time>
      </trkpt>
      <trkpt lat="45.266" lon="5.32255">
        <ele>710</ele>
        <time>2013-11-11T11:52:09Z</time>
      </trkpt>
      <trkpt lat="45.26618" lon="5.32233">
        <ele>707</ele>
        <time>2013-11-11T11:52:13Z</time>
      </trkpt>
      <trkpt lat="45.26633" lon="5.32211">
        <ele>707</ele>
        <time>2013-11-11T11:52:17Z</time>
      </trkpt>
      <trkpt lat="45.26644" lon="5.32184">
        <ele>706</ele>
        <time>2013-11-11T11:52:21Z</time>
      </trkpt>
      <trkpt lat="45.26653" lon="5.32156">
        <ele>704</ele>
        <time>2013-11-11T11:52:25Z</time>
      </trkpt>
      <trkpt lat="45.26659" lon="5.32128">
        <ele>704</ele>
        <time>2013-11-11T11:52:29Z</time>
      </trkpt>
      <trkpt lat="45.26663" lon="5.32101">
        <ele>703</ele>
        <time>2013-11-11T11:52:33Z</time>
      </trkpt>
      <trkpt lat="45.26669" lon="5.32073">
        <ele>703</ele>
        <time>2013-11-11T11:52:37Z</time>
      </trkpt>
      <trkpt lat="45.26682" lon="5.32045">
        <ele>702</ele>
        <time>2013-11-11T11:52:41Z</time>
      </trkpt>
      <trkpt lat="45.26695" lon="5.32026">
        <ele>701</ele>
        <time>2013-11-11T11:52:44Z</time>
      </trkpt>
      <trkpt lat="45.26711" lon="5.32009">
        <ele>701</ele>
        <time>2013-11-11T11:52:47Z</time>
      </trkpt>
      <trkpt lat="45.26725" lon="5.31992">
        <ele>699</ele>
        <time>2013-11-11T11:52:50Z</time>
      </trkpt>
      <trkpt lat="45.26739" lon="5.31973">
        <ele>699</ele>
        <time>2013-11-11T11:52:53Z</time>
      </trkpt>
      <trkpt lat="45.26751" lon="5.31953">
        <ele>700</ele>
        <time>2013-11-11T11:52:56Z</time>
      </trkpt>
      <trkpt lat="45.26764" lon="5.31934">
        <ele>699</ele>
        <time>2013-11-11T11:52:59Z</time>
      </trkpt>
      <trkpt lat="45.26778" lon="5.31916">
        <ele>698</ele>
        <time>2013-11-11T11:53:02Z</time>
      </trkpt>
      <trkpt lat="45.26791" lon="5.31897">
        <ele>698</ele>
        <time>2013-11-11T11:53:05Z</time>
      </trkpt>
      <trkpt lat="45.26802" lon="5.31874">
        <ele>698</ele>
        <time>2013-11-11T11:53:08Z</time>
      </trkpt>
      <trkpt lat="45.2681" lon="5.3185">
        <ele>698</ele>
        <time>2013-11-11T11:53:11Z</time>
      </trkpt>
      <trkpt lat="45.26817" lon="5.31825">
        <ele>696</ele>
        <time>2013-11-11T11:53:14Z</time>
      </trkpt>
      <trkpt lat="45.26824" lon="5.31801">
        <ele>696</ele>
        <time>2013-11-11T11:53:17Z</time>
      </trkpt>
      <trkpt lat="45.26833" lon="5.3177">
        <ele>694</ele>
        <time>2013-11-11T11:53:21Z</time>
      </trkpt>
      <trkpt lat="45.26843" lon="5.31741">
        <ele>691</ele>
        <time>2013-11-11T11:53:25Z</time>
      </trkpt>
      <trkpt lat="45.26852" lon="5.31714">
        <ele>690</ele>
        <time>2013-11-11T11:53:29Z</time>
      </trkpt>
      <trkpt lat="45.26855" lon="5.31685">
        <ele>690</ele>
        <time>2013-11-11T11:53:34Z</time>
      </trkpt>
      <trkpt lat="45.26834" lon="5.31671">
        <ele>690</ele>
        <time>2013-11-11T11:53:40Z</time>
      </trkpt>
      <trkpt lat="45.26821" lon="5.31648">
        <ele>689</ele>
        <time>2013-11-11T11:53:46Z</time>
      </trkpt>
      <trkpt lat="45.26823" lon="5.31614">
        <ele>688</ele>
        <time>2013-11-11T11:53:51Z</time>
      </trkpt>
      <trkpt lat="45.26828" lon="5.31584">
        <ele>686</ele>
        <time>2013-11-11T11:53:55Z</time>
      </trkpt>
      <trkpt lat="45.26848" lon="5.31575">
        <ele>686</ele>
        <time>2013-11-11T11:53:59Z</time>
      </trkpt>
      <trkpt lat="45.26865" lon="5.31578">
        <ele>685</ele>
        <time>2013-11-11T11:54:04Z</time>
      </trkpt>
      <trkpt lat="45.26875" lon="5.31553">
        <ele>685</ele>
        <time>2013-11-11T11:54:09Z</time>
      </trkpt>
      <trkpt lat="45.26881" lon="5.31522">
        <ele>685</ele>
        <time>2013-11-11T11:54:14Z</time>
      </trkpt>
      <trkpt lat="45.26891" lon="5.31494">
        <ele>682</ele>
        <time>2013-11-11T11:54:18Z</time>
      </trkpt>
      <trkpt lat="45.26903" lon="5.31464">
        <ele>681</ele>
        <time>2013-11-11T11:54:22Z</time>
      </trkpt>
      <trkpt lat="45.26912" lon="5.3144">
        <ele>679</ele>
        <time>2013-11-11T11:54:25Z</time>
      </trkpt>
      <trkpt lat="45.26923" lon="5.31414">
        <ele>677</ele>
        <time>2013-11-11T11:54:28Z</time>
      </trkpt>
      <trkpt lat="45.26931" lon="5.31383">
        <ele>676</ele>
        <time>2013-11-11T11:54:31Z</time>
      </trkpt>
      <trkpt lat="45.26933" lon="5.31351">
        <ele>675</ele>
        <time>2013-11-11T11:54:34Z</time>
      </trkpt>
      <trkpt lat="45.26931" lon="5.3132">
        <ele>673</ele>
        <time>2013-11-11T11:54:37Z</time>
      </trkpt>
      <trkpt lat="45.26928" lon="5.31292">
        <ele>674</ele>
        <time>2013-11-11T11:54:40Z</time>
      </trkpt>
      <trkpt lat="45.26923" lon="5.3126">
        <ele>674</ele>
        <time>2013-11-11T11:54:44Z</time>
      </trkpt>
      <trkpt lat="45.26925" lon="5.31233">
        <ele>675</ele>
        <time>2013-11-11T11:54:48Z</time>
      </trkpt>
      <trkpt lat="45.26933" lon="5.31205">
        <ele>676</ele>
        <time>2013-11-11T11:54:55Z</time>
      </trkpt>
      <trkpt lat="45.26938" lon="5.31179">
        <ele>676</ele>
        <time>2013-11-11T11:55:01Z</time>
      </trkpt>
      <trkpt lat="45.2694" lon="5.31152">
        <ele>678</ele>
        <time>2013-11-11T11:55:07Z</time>
      </trkpt>
      <trkpt lat="45.26941" lon="5.31125">
        <ele>678</ele>
        <time>2013-11-11T11:55:14Z</time>
      </trkpt>
      <trkpt lat="45.26939" lon="5.31097">
        <ele>678</ele>
        <time>2013-11-11T11:55:20Z</time>
      </trkpt>
      <trkpt lat="45.26937" lon="5.31062">
        <ele>677</ele>
        <time>2013-11-11T11:55:25Z</time>
      </trkpt>
      <trkpt lat="45.26937" lon="5.31032">
        <ele>676</ele>
        <time>2013-11-11T11:55:29Z</time>
      </trkpt>
      <trkpt lat="45.26938" lon="5.31002">
        <ele>676</ele>
        <time>2013-11-11T11:55:33Z</time>
      </trkpt>
      <trkpt lat="45.26941" lon="5.30969">
        <ele>673</ele>
        <time>2013-11-11T11:55:37Z</time>
      </trkpt>
      <trkpt lat="45.26944" lon="5.30941">
        <ele>673</ele>
        <time>2013-11-11T11:55:41Z</time>
      </trkpt>
      <trkpt lat="45.26947" lon="5.30914">
        <ele>670</ele>
        <time>2013-11-11T11:55:47Z</time>
      </trkpt>
      <trkpt lat="45.26951" lon="5.30883">
        <ele>670</ele>
        <time>2013-11-11T11:55:54Z</time>
      </trkpt>
      <trkpt lat="45.26953" lon="5.3085">
        <ele>669</ele>
        <time>2013-11-11T11:55:59Z</time>
      </trkpt>
      <trkpt lat="45.26956" lon="5.3082">
        <ele>666</ele>
        <time>2013-11-11T11:56:03Z</time>
      </trkpt>
      <trkpt lat="45.26958" lon="5.30787">
        <ele>666</ele>
        <time>2013-11-11T11:56:07Z</time>
      </trkpt>
      <trkpt lat="45.26958" lon="5.3076">
        <ele>665</ele>
        <time>2013-11-11T11:56:10Z</time>
      </trkpt>
      <trkpt lat="45.26955" lon="5.30733">
        <ele>663</ele>
        <time>2013-11-11T11:56:13Z</time>
      </trkpt>
      <trkpt lat="45.26948" lon="5.30705">
        <ele>663</ele>
        <time>2013-11-11T11:56:16Z</time>
      </trkpt>
      <trkpt lat="45.26944" lon="5.30673">
        <ele>663</ele>
        <time>2013-11-11T11:56:20Z</time>
      </trkpt>
      <trkpt lat="45.26945" lon="5.30644">
        <ele>664</ele>
        <time>2013-11-11T11:56:24Z</time>
      </trkpt>
      <trkpt lat="45.26949" lon="5.30617">
        <ele>665</ele>
        <time>2013-11-11T11:56:29Z</time>
      </trkpt>
      <trkpt lat="45.26947" lon="5.30596">
        <ele>665</ele>
        <time>2013-11-11T11:56:42Z</time>
      </trkpt>
      <trkpt lat="45.26942" lon="5.30569">
        <ele>667</ele>
        <time>2013-11-11T11:57:01Z</time>
      </trkpt>
      <trkpt lat="45.26943" lon="5.30538">
        <ele>667</ele>
        <time>2013-11-11T11:57:15Z</time>
      </trkpt>
      <trkpt lat="45.26945" lon="5.30508">
        <ele>667</ele>
        <time>2013-11-11T11:57:29Z</time>
      </trkpt>
      <trkpt lat="45.26947" lon="5.30479">
        <ele>668</ele>
        <time>2013-11-11T11:57:43Z</time>
      </trkpt>
      <trkpt lat="45.2695" lon="5.3045">
        <ele>668</ele>
        <time>2013-11-11T11:57:55Z</time>
      </trkpt>
      <trkpt lat="45.26948" lon="5.30422">
        <ele>669</ele>
        <time>2013-11-11T11:58:07Z</time>
      </trkpt>
      <trkpt lat="45.26946" lon="5.30393">
        <ele>669</ele>
        <time>2013-11-11T11:58:21Z</time>
      </trkpt>
      <trkpt lat="45.26947" lon="5.30364">
        <ele>669</ele>
        <time>2013-11-11T11:58:34Z</time>
      </trkpt>
      <trkpt lat="45.26947" lon="5.30334">
        <ele>669</ele>
        <time>2013-11-11T11:58:46Z</time>
      </trkpt>
      <trkpt lat="45.26947" lon="5.30306">
        <ele>669</ele>
        <time>2013-11-11T11:58:59Z</time>
      </trkpt>
      <trkpt lat="45.26937" lon="5.30277">
        <ele>669</ele>
        <time>2013-11-11T11:59:11Z</time>
      </trkpt>
      <trkpt lat="45.26936" lon="5.30275">
        <ele>669</ele>
        <time>2013-11-11T12:00:07Z</time>
      </trkpt>
      <trkpt lat="45.26929" lon="5.30243">
        <ele>668</ele>
        <time>2013-11-11T12:00:18Z</time>
      </trkpt>
      <trkpt lat="45.26915" lon="5.30219">
        <ele>667</ele>
        <time>2013-11-11T12:00:26Z</time>
      </trkpt>
      <trkpt lat="45.26901" lon="5.30198">
        <ele>667</ele>
        <time>2013-11-11T12:00:35Z</time>
      </trkpt>
      <trkpt lat="45.26886" lon="5.30175">
        <ele>667</ele>
        <time>2013-11-11T12:00:43Z</time>
      </trkpt>
      <trkpt lat="45.26874" lon="5.30152">
        <ele>668</ele>
        <time>2013-11-11T12:00:50Z</time>
      </trkpt>
      <trkpt lat="45.26866" lon="5.30125">
        <ele>668</ele>
        <time>2013-11-11T12:00:57Z</time>
      </trkpt>
      <trkpt lat="45.26857" lon="5.301">
        <ele>668</ele>
        <time>2013-11-11T12:01:05Z</time>
      </trkpt>
      <trkpt lat="45.26849" lon="5.30074">
        <ele>669</ele>
        <time>2013-11-11T12:01:15Z</time>
      </trkpt>
      <trkpt lat="45.26839" lon="5.30049">
        <ele>670</ele>
        <time>2013-11-11T12:01:24Z</time>
      </trkpt>
      <trkpt lat="45.26826" lon="5.30027">
        <ele>668</ele>
        <time>2013-11-11T12:01:32Z</time>
      </trkpt>
      <trkpt lat="45.26812" lon="5.30005">
        <ele>668</ele>
        <time>2013-11-11T12:01:40Z</time>
      </trkpt>
      <trkpt lat="45.26799" lon="5.29984">
        <ele>669</ele>
        <time>2013-11-11T12:01:47Z</time>
      </trkpt>
      <trkpt lat="45.26785" lon="5.29964">
        <ele>668</ele>
        <time>2013-11-11T12:01:54Z</time>
      </trkpt>
      <trkpt lat="45.26774" lon="5.2994">
        <ele>668</ele>
        <time>2013-11-11T12:02:01Z</time>
      </trkpt>
      <trkpt lat="45.26761" lon="5.29917">
        <ele>668</ele>
        <time>2013-11-11T12:02:08Z</time>
      </trkpt>
      <trkpt lat="45.26749" lon="5.29896">
        <ele>667</ele>
        <time>2013-11-11T12:02:15Z</time>
      </trkpt>
      <trkpt lat="45.26736" lon="5.29875">
        <ele>666</ele>
        <time>2013-11-11T12:02:21Z</time>
      </trkpt>
      <trkpt lat="45.26719" lon="5.29854">
        <ele>666</ele>
        <time>2013-11-11T12:02:27Z</time>
      </trkpt>
      <trkpt lat="45.26704" lon="5.29833">
        <ele>665</ele>
        <time>2013-11-11T12:02:32Z</time>
      </trkpt>
      <trkpt lat="45.26691" lon="5.29812">
        <ele>664</ele>
        <time>2013-11-11T12:02:37Z</time>
      </trkpt>
      <trkpt lat="45.26682" lon="5.29785">
        <ele>664</ele>
        <time>2013-11-11T12:02:42Z</time>
      </trkpt>
      <trkpt lat="45.26677" lon="5.29752">
        <ele>664</ele>
        <time>2013-11-11T12:02:47Z</time>
      </trkpt>
      <trkpt lat="45.26668" lon="5.29721">
        <ele>663</ele>
        <time>2013-11-11T12:02:52Z</time>
      </trkpt>
      <trkpt lat="45.26656" lon="5.29693">
        <ele>663</ele>
        <time>2013-11-11T12:02:57Z</time>
      </trkpt>
      <trkpt lat="45.26645" lon="5.29667">
        <ele>663</ele>
        <time>2013-11-11T12:03:03Z</time>
      </trkpt>
      <trkpt lat="45.26635" lon="5.29646">
        <ele>663</ele>
        <time>2013-11-11T12:03:27Z</time>
      </trkpt>
      <trkpt lat="45.26628" lon="5.29612">
        <ele>663</ele>
        <time>2013-11-11T12:03:38Z</time>
      </trkpt>
      <trkpt lat="45.26637" lon="5.29583">
        <ele>663</ele>
        <time>2013-11-11T12:03:46Z</time>
      </trkpt>
      <trkpt lat="45.26653" lon="5.2957">
        <ele>663</ele>
        <time>2013-11-11T12:03:55Z</time>
      </trkpt>
      <trkpt lat="45.26671" lon="5.29559">
        <ele>661</ele>
        <time>2013-11-11T12:04:05Z</time>
      </trkpt>
      <trkpt lat="45.26689" lon="5.29544">
        <ele>661</ele>
        <time>2013-11-11T12:04:14Z</time>
      </trkpt>
      <trkpt lat="45.26705" lon="5.29524">
        <ele>661</ele>
        <time>2013-11-11T12:04:22Z</time>
      </trkpt>
      <trkpt lat="45.26719" lon="5.29499">
        <ele>660</ele>
        <time>2013-11-11T12:04:28Z</time>
      </trkpt>
      <trkpt lat="45.26728" lon="5.29471">
        <ele>660</ele>
        <time>2013-11-11T12:04:33Z</time>
      </trkpt>
      <trkpt lat="45.26743" lon="5.29445">
        <ele>659</ele>
        <time>2013-11-11T12:04:38Z</time>
      </trkpt>
      <trkpt lat="45.26759" lon="5.29426">
        <ele>657</ele>
        <time>2013-11-11T12:04:43Z</time>
      </trkpt>
      <trkpt lat="45.26778" lon="5.29412">
        <ele>655</ele>
        <time>2013-11-11T12:04:47Z</time>
      </trkpt>
      <trkpt lat="45.26799" lon="5.29398">
        <ele>654</ele>
        <time>2013-11-11T12:04:51Z</time>
      </trkpt>
      <trkpt lat="45.26819" lon="5.29382">
        <ele>654</ele>
        <time>2013-11-11T12:04:55Z</time>
      </trkpt>
      <trkpt lat="45.26841" lon="5.29364">
        <ele>651</ele>
        <time>2013-11-11T12:04:59Z</time>
      </trkpt>
      <trkpt lat="45.26861" lon="5.29341">
        <ele>650</ele>
        <time>2013-11-11T12:05:03Z</time>
      </trkpt>
      <trkpt lat="45.26876" lon="5.29324">
        <ele>647</ele>
        <time>2013-11-11T12:05:06Z</time>
      </trkpt>
      <trkpt lat="45.26891" lon="5.29307">
        <ele>647</ele>
        <time>2013-11-11T12:05:09Z</time>
      </trkpt>
      <trkpt lat="45.26907" lon="5.29289">
        <ele>646</ele>
        <time>2013-11-11T12:05:12Z</time>
      </trkpt>
      <trkpt lat="45.26925" lon="5.29269">
        <ele>643</ele>
        <time>2013-11-11T12:05:15Z</time>
      </trkpt>
      <trkpt lat="45.26941" lon="5.2925">
        <ele>643</ele>
        <time>2013-11-11T12:05:18Z</time>
      </trkpt>
      <trkpt lat="45.26958" lon="5.29234">
        <ele>643</ele>
        <time>2013-11-11T12:05:21Z</time>
      </trkpt>
      <trkpt lat="45.26976" lon="5.29222">
        <ele>643</ele>
        <time>2013-11-11T12:05:25Z</time>
      </trkpt>
      <trkpt lat="45.26994" lon="5.29217">
        <ele>643</ele>
        <time>2013-11-11T12:05:29Z</time>
      </trkpt>
      <trkpt lat="45.27014" lon="5.29203">
        <ele>643</ele>
        <time>2013-11-11T12:05:34Z</time>
      </trkpt>
      <trkpt lat="45.27025" lon="5.29182">
        <ele>644</ele>
        <time>2013-11-11T12:05:38Z</time>
      </trkpt>
      <trkpt lat="45.27034" lon="5.29153">
        <ele>645</ele>
        <time>2013-11-11T12:05:43Z</time>
      </trkpt>
      <trkpt lat="45.27042" lon="5.29127">
        <ele>645</ele>
        <time>2013-11-11T12:05:48Z</time>
      </trkpt>
      <trkpt lat="45.2705" lon="5.29099">
        <ele>645</ele>
        <time>2013-11-11T12:05:53Z</time>
      </trkpt>
      <trkpt lat="45.27058" lon="5.29072">
        <ele>645</ele>
        <time>2013-11-11T12:05:58Z</time>
      </trkpt>
      <trkpt lat="45.27066" lon="5.29044">
        <ele>645</ele>
        <time>2013-11-11T12:06:03Z</time>
      </trkpt>
      <trkpt lat="45.27074" lon="5.29018">
        <ele>645</ele>
        <time>2013-11-11T12:06:08Z</time>
      </trkpt>
      <trkpt lat="45.27082" lon="5.28993">
        <ele>645</ele>
        <time>2013-11-11T12:06:13Z</time>
      </trkpt>
      <trkpt lat="45.2709" lon="5.28965">
        <ele>644</ele>
        <time>2013-11-11T12:06:18Z</time>
      </trkpt>
      <trkpt lat="45.27098" lon="5.28938">
        <ele>644</ele>
        <time>2013-11-11T12:06:23Z</time>
      </trkpt>
      <trkpt lat="45.27106" lon="5.28915">
        <ele>642</ele>
        <time>2013-11-11T12:06:27Z</time>
      </trkpt>
      <trkpt lat="45.27114" lon="5.28889">
        <ele>641</ele>
        <time>2013-11-11T12:06:31Z</time>
      </trkpt>
      <trkpt lat="45.27122" lon="5.2886">
        <ele>640</ele>
        <time>2013-11-11T12:06:35Z</time>
      </trkpt>
      <trkpt lat="45.27131" lon="5.2883">
        <ele>638</ele>
        <time>2013-11-11T12:06:39Z</time>
      </trkpt>
      <trkpt lat="45.27146" lon="5.28815">
        <ele>637</ele>
        <time>2013-11-11T12:06:43Z</time>
      </trkpt>
      <trkpt lat="45.27156" lon="5.28839">
        <ele>638</ele>
        <time>2013-11-11T12:06:47Z</time>
      </trkpt>
      <trkpt lat="45.27166" lon="5.28865">
        <ele>639</ele>
        <time>2013-11-11T12:06:51Z</time>
      </trkpt>
      <trkpt lat="45.27185" lon="5.28875">
        <ele>638</ele>
        <time>2013-11-11T12:06:55Z</time>
      </trkpt>
      <trkpt lat="45.27203" lon="5.28869">
        <ele>638</ele>
        <time>2013-11-11T12:06:59Z</time>
      </trkpt>
      <trkpt lat="45.27218" lon="5.28847">
        <ele>638</ele>
        <time>2013-11-11T12:07:04Z</time>
      </trkpt>
      <trkpt lat="45.27227" lon="5.28824">
        <ele>637</ele>
        <time>2013-11-11T12:07:11Z</time>
      </trkpt>
      <trkpt lat="45.27246" lon="5.28824">
        <ele>638</ele>
        <time>2013-11-11T12:07:19Z</time>
      </trkpt>
      <trkpt lat="45.27262" lon="5.28841">
        <ele>638</ele>
        <time>2013-11-11T12:07:28Z</time>
      </trkpt>
      <trkpt lat="45.27279" lon="5.28855">
        <ele>639</ele>
        <time>2013-11-11T12:07:37Z</time>
      </trkpt>
      <trkpt lat="45.27295" lon="5.28868">
        <ele>639</ele>
        <time>2013-11-11T12:07:45Z</time>
      </trkpt>
      <trkpt lat="45.27312" lon="5.28881">
        <ele>639</ele>
        <time>2013-11-11T12:07:54Z</time>
      </trkpt>
      <trkpt lat="45.2733" lon="5.28895">
        <ele>640</ele>
        <time>2013-11-11T12:08:03Z</time>
      </trkpt>
      <trkpt lat="45.27346" lon="5.28907">
        <ele>642</ele>
        <time>2013-11-11T12:08:11Z</time>
      </trkpt>
      <trkpt lat="45.27363" lon="5.28921">
        <ele>643</ele>
        <time>2013-11-11T12:08:19Z</time>
      </trkpt>
      <trkpt lat="45.2738" lon="5.28934">
        <ele>644</ele>
        <time>2013-11-11T12:08:27Z</time>
      </trkpt>
      <trkpt lat="45.27396" lon="5.2895">
        <ele>645</ele>
        <time>2013-11-11T12:08:34Z</time>
      </trkpt>
      <trkpt lat="45.27404" lon="5.28972">
        <ele>645</ele>
        <time>2013-11-11T12:08:40Z</time>
      </trkpt>
      <trkpt lat="45.27411" lon="5.29001">
        <ele>646</ele>
        <time>2013-11-11T12:08:46Z</time>
      </trkpt>
      <trkpt lat="45.27414" lon="5.29027">
        <ele>645</ele>
        <time>2013-11-11T12:08:52Z</time>
      </trkpt>
      <trkpt lat="45.27417" lon="5.29055">
        <ele>648</ele>
        <time>2013-11-11T12:08:58Z</time>
      </trkpt>
      <trkpt lat="45.2742" lon="5.29084">
        <ele>647</ele>
        <time>2013-11-11T12:09:04Z</time>
      </trkpt>
      <trkpt lat="45.27422" lon="5.29111">
        <ele>648</ele>
        <time>2013-11-11T12:09:09Z</time>
      </trkpt>
      <trkpt lat="45.27425" lon="5.29137">
        <ele>648</ele>
        <time>2013-11-11T12:09:14Z</time>
      </trkpt>
      <trkpt lat="45.2743" lon="5.29164">
        <ele>648</ele>
        <time>2013-11-11T12:09:19Z</time>
      </trkpt>
      <trkpt lat="45.27436" lon="5.29191">
        <ele>649</ele>
        <time>2013-11-11T12:09:24Z</time>
      </trkpt>
      <trkpt lat="45.27441" lon="5.29217">
        <ele>649</ele>
        <time>2013-11-11T12:09:29Z</time>
      </trkpt>
      <trkpt lat="45.27447" lon="5.29243">
        <ele>649</ele>
        <time>2013-11-11T12:09:34Z</time>
      </trkpt>
      <trkpt lat="45.27452" lon="5.29269">
        <ele>650</ele>
        <time>2013-11-11T12:09:39Z</time>
      </trkpt>
      <trkpt lat="45.27458" lon="5.29298">
        <ele>650</ele>
        <time>2013-11-11T12:09:45Z</time>
      </trkpt>
      <trkpt lat="45.27464" lon="5.29324">
        <ele>650</ele>
        <time>2013-11-11T12:09:51Z</time>
      </trkpt>
      <trkpt lat="45.27472" lon="5.29349">
        <ele>651</ele>
        <time>2013-11-11T12:09:56Z</time>
      </trkpt>
      <trkpt lat="45.27483" lon="5.29371">
        <ele>651</ele>
        <time>2013-11-11T12:10:00Z</time>
      </trkpt>
      <trkpt lat="45.27498" lon="5.29389">
        <ele>652</ele>
        <time>2013-11-11T12:10:04Z</time>
      </trkpt>
      <trkpt lat="45.27517" lon="5.29407">
        <ele>654</ele>
        <time>2013-11-11T12:10:09Z</time>
      </trkpt>
      <trkpt lat="45.27532" lon="5.2942">
        <ele>656</ele>
        <time>2013-11-11T12:10:13Z</time>
      </trkpt>
      <trkpt lat="45.27547" lon="5.29436">
        <ele>656</ele>
        <time>2013-11-11T12:10:17Z</time>
      </trkpt>
      <trkpt lat="45.27562" lon="5.2945">
        <ele>657</ele>
        <time>2013-11-11T12:10:21Z</time>
      </trkpt>
      <trkpt lat="45.2758" lon="5.29463">
        <ele>657</ele>
        <time>2013-11-11T12:10:25Z</time>
      </trkpt>
      <trkpt lat="45.27597" lon="5.29476">
        <ele>655</ele>
        <time>2013-11-11T12:10:29Z</time>
      </trkpt>
      <trkpt lat="45.27617" lon="5.29486">
        <ele>655</ele>
        <time>2013-11-11T12:10:33Z</time>
      </trkpt>
      <trkpt lat="45.27636" lon="5.29491">
        <ele>655</ele>
        <time>2013-11-11T12:10:37Z</time>
      </trkpt>
      <trkpt lat="45.27654" lon="5.29494">
        <ele>654</ele>
        <time>2013-11-11T12:10:41Z</time>
      </trkpt>
      <trkpt lat="45.27675" lon="5.29499">
        <ele>654</ele>
        <time>2013-11-11T12:10:46Z</time>
      </trkpt>
      <trkpt lat="45.27694" lon="5.29502">
        <ele>653</ele>
        <time>2013-11-11T12:10:51Z</time>
      </trkpt>
      <trkpt lat="45.27715" lon="5.29505">
        <ele>653</ele>
        <time>2013-11-11T12:10:56Z</time>
      </trkpt>
      <trkpt lat="45.27734" lon="5.29506">
        <ele>653</ele>
        <time>2013-11-11T12:11:01Z</time>
      </trkpt>
      <trkpt lat="45.27755" lon="5.29508">
        <ele>652</ele>
        <time>2013-11-11T12:11:06Z</time>
      </trkpt>
      <trkpt lat="45.27778" lon="5.2951">
        <ele>651</ele>
        <time>2013-11-11T12:11:10Z</time>
      </trkpt>
      <trkpt lat="45.27799" lon="5.29511">
        <ele>651</ele>
        <time>2013-11-11T12:11:13Z</time>
      </trkpt>
      <trkpt lat="45.27822" lon="5.29513">
        <ele>651</ele>
        <time>2013-11-11T12:11:16Z</time>
      </trkpt>
      <trkpt lat="45.27846" lon="5.29518">
        <ele>649</ele>
        <time>2013-11-11T12:11:19Z</time>
      </trkpt>
      <trkpt lat="45.27868" lon="5.29524">
        <ele>648</ele>
        <time>2013-11-11T12:11:22Z</time>
      </trkpt>
      <trkpt lat="45.27891" lon="5.29532">
        <ele>647</ele>
        <time>2013-11-11T12:11:25Z</time>
      </trkpt>
      <trkpt lat="45.27914" lon="5.29545">
        <ele>646</ele>
        <time>2013-11-11T12:11:28Z</time>
      </trkpt>
      <trkpt lat="45.27939" lon="5.29559">
        <ele>640</ele>
        <time>2013-11-11T12:11:31Z</time>
      </trkpt>
      <trkpt lat="45.27963" lon="5.29573">
        <ele>639</ele>
        <time>2013-11-11T12:11:34Z</time>
      </trkpt>
      <trkpt lat="45.27986" lon="5.29583">
        <ele>636</ele>
        <time>2013-11-11T12:11:37Z</time>
      </trkpt>
      <trkpt lat="45.28011" lon="5.29588">
        <ele>632</ele>
        <time>2013-11-11T12:11:40Z</time>
      </trkpt>
      <trkpt lat="45.28036" lon="5.29586">
        <ele>629</ele>
        <time>2013-11-11T12:11:43Z</time>
      </trkpt>
      <trkpt lat="45.28063" lon="5.29576">
        <ele>625</ele>
        <time>2013-11-11T12:11:46Z</time>
      </trkpt>
      <trkpt lat="45.28091" lon="5.29584">
        <ele>622</ele>
        <time>2013-11-11T12:11:49Z</time>
      </trkpt>
      <trkpt lat="45.28111" lon="5.29602">
        <ele>620</ele>
        <time>2013-11-11T12:11:52Z</time>
      </trkpt>
      <trkpt lat="45.28133" lon="5.29615">
        <ele>619</ele>
        <time>2013-11-11T12:11:55Z</time>
      </trkpt>
      <trkpt lat="45.28155" lon="5.29625">
        <ele>618</ele>
        <time>2013-11-11T12:11:58Z</time>
      </trkpt>
      <trkpt lat="45.28175" lon="5.29642">
        <ele>613</ele>
        <time>2013-11-11T12:12:01Z</time>
      </trkpt>
      <trkpt lat="45.28194" lon="5.29666">
        <ele>613</ele>
        <time>2013-11-11T12:12:04Z</time>
      </trkpt>
      <trkpt lat="45.2821" lon="5.29693">
        <ele>611</ele>
        <time>2013-11-11T12:12:07Z</time>
      </trkpt>
      <trkpt lat="45.28223" lon="5.29723">
        <ele>610</ele>
        <time>2013-11-11T12:12:10Z</time>
      </trkpt>
      <trkpt lat="45.28229" lon="5.29752">
        <ele>607</ele>
        <time>2013-11-11T12:12:13Z</time>
      </trkpt>
      <trkpt lat="45.28233" lon="5.29781">
        <ele>608</ele>
        <time>2013-11-11T12:12:16Z</time>
      </trkpt>
      <trkpt lat="45.28238" lon="5.29806">
        <ele>608</ele>
        <time>2013-11-11T12:12:19Z</time>
      </trkpt>
      <trkpt lat="45.28247" lon="5.29834">
        <ele>606</ele>
        <time>2013-11-11T12:12:23Z</time>
      </trkpt>
      <trkpt lat="45.28267" lon="5.2983">
        <ele>608</ele>
        <time>2013-11-11T12:12:28Z</time>
      </trkpt>
      <trkpt lat="45.28282" lon="5.29809">
        <ele>609</ele>
        <time>2013-11-11T12:12:34Z</time>
      </trkpt>
      <trkpt lat="45.28297" lon="5.29813">
        <ele>609</ele>
        <time>2013-11-11T12:12:41Z</time>
      </trkpt>
      <trkpt lat="45.28312" lon="5.29822">
        <ele>610</ele>
        <time>2013-11-11T12:12:55Z</time>
      </trkpt>
      <trkpt lat="45.28327" lon="5.29811">
        <ele>611</ele>
        <time>2013-11-11T12:13:39Z</time>
      </trkpt>
      <trkpt lat="45.28347" lon="5.29801">
        <ele>617</ele>
        <time>2013-11-11T12:14:10Z</time>
      </trkpt>
      <trkpt lat="45.28368" lon="5.29794">
        <ele>619</ele>
        <time>2013-11-11T12:14:38Z</time>
      </trkpt>
      <trkpt lat="45.28388" lon="5.29782">
        <ele>620</ele>
        <time>2013-11-11T12:15:12Z</time>
      </trkpt>
      <trkpt lat="45.28412" lon="5.29769">
        <ele>623</ele>
        <time>2013-11-11T12:15:30Z</time>
      </trkpt>
      <trkpt lat="45.28415" lon="5.2974">
        <ele>625</ele>
        <time>2013-11-11T12:15:47Z</time>
      </trkpt>
      <trkpt lat="45.28416" lon="5.29714">
        <ele>624</ele>
        <time>2013-11-11T12:16:02Z</time>
      </trkpt>
      <trkpt lat="45.28428" lon="5.29687">
        <ele>634</ele>
        <time>2013-11-11T12:16:18Z</time>
      </trkpt>
      <trkpt lat="45.28436" lon="5.29661">
        <ele>635</ele>
        <time>2013-11-11T12:16:33Z</time>
      </trkpt>
      <trkpt lat="45.28446" lon="5.29635">
        <ele>637</ele>
        <time>2013-11-11T12:16:49Z</time>
      </trkpt>
      <trkpt lat="45.28455" lon="5.2961">
        <ele>638</ele>
        <time>2013-11-11T12:17:07Z</time>
      </trkpt>
      <trkpt lat="45.28462" lon="5.29582">
        <ele>639</ele>
        <time>2013-11-11T12:17:23Z</time>
      </trkpt>
      <trkpt lat="45.28461" lon="5.29552">
        <ele>639</ele>
        <time>2013-11-11T12:17:36Z</time>
      </trkpt>
      <trkpt lat="45.28456" lon="5.29517">
        <ele>639</ele>
        <time>2013-11-11T12:17:46Z</time>
      </trkpt>
      <trkpt lat="45.28457" lon="5.29492">
        <ele>639</ele>
        <time>2013-11-11T12:17:58Z</time>
      </trkpt>
      <trkpt lat="45.28479" lon="5.29491">
        <ele>642</ele>
        <time>2013-11-11T12:18:12Z</time>
      </trkpt>
      <trkpt lat="45.28501" lon="5.29489">
        <ele>646</ele>
        <time>2013-11-11T12:18:24Z</time>
      </trkpt>
      <trkpt lat="45.28522" lon="5.29489">
        <ele>646</ele>
        <time>2013-11-11T12:18:34Z</time>
      </trkpt>
      <trkpt lat="45.28545" lon="5.29488">
        <ele>646</ele>
        <time>2013-11-11T12:18:42Z</time>
      </trkpt>
      <trkpt lat="45.28566" lon="5.29488">
        <ele>646</ele>
        <time>2013-11-11T12:18:48Z</time>
      </trkpt>
      <trkpt lat="45.28587" lon="5.29492">
        <ele>646</ele>
        <time>2013-11-11T12:18:55Z</time>
      </trkpt>
      <trkpt lat="45.2861" lon="5.29492">
        <ele>645</ele>
        <time>2013-11-11T12:19:02Z</time>
      </trkpt>
      <trkpt lat="45.28625" lon="5.29481">
        <ele>645</ele>
        <time>2013-11-11T12:19:13Z</time>
      </trkpt>
      <trkpt lat="45.28639" lon="5.29486">
        <ele>645</ele>
        <time>2013-11-11T12:20:00Z</time>
      </trkpt>
      <trkpt lat="45.28658" lon="5.29481">
        <ele>644</ele>
        <time>2013-11-11T12:20:26Z</time>
      </trkpt>
      <trkpt lat="45.28682" lon="5.29484">
        <ele>643</ele>
        <time>2013-11-11T12:20:35Z</time>
      </trkpt>
      <trkpt lat="45.28705" lon="5.29488">
        <ele>642</ele>
        <time>2013-11-11T12:20:45Z</time>
      </trkpt>
      <trkpt lat="45.28726" lon="5.2948">
        <ele>642</ele>
        <time>2013-11-11T12:20:55Z</time>
      </trkpt>
      <trkpt lat="45.28745" lon="5.2948">
        <ele>642</ele>
        <time>2013-11-11T12:21:05Z</time>
      </trkpt>
      <trkpt lat="45.28762" lon="5.29498">
        <ele>641</ele>
        <time>2013-11-11T12:21:15Z</time>
      </trkpt>
      <trkpt lat="45.28782" lon="5.29491">
        <ele>641</ele>
        <time>2013-11-11T12:21:26Z</time>
      </trkpt>
      <trkpt lat="45.28801" lon="5.29492">
        <ele>640</ele>
        <time>2013-11-11T12:21:38Z</time>
      </trkpt>
      <trkpt lat="45.28815" lon="5.29481">
        <ele>640</ele>
        <time>2013-11-11T12:22:20Z</time>
      </trkpt>
      <trkpt lat="45.28834" lon="5.29479">
        <ele>640</ele>
        <time>2013-11-11T12:22:33Z</time>
      </trkpt>
      <trkpt lat="45.28856" lon="5.29477">
        <ele>640</ele>
        <time>2013-11-11T12:22:44Z</time>
      </trkpt>
      <trkpt lat="45.28878" lon="5.29474">
        <ele>641</ele>
        <time>2013-11-11T12:22:55Z</time>
      </trkpt>
      <trkpt lat="45.289" lon="5.29479">
        <ele>641</ele>
        <time>2013-11-11T12:23:07Z</time>
      </trkpt>
      <trkpt lat="45.28919" lon="5.29476">
        <ele>642</ele>
        <time>2013-11-11T12:23:19Z</time>
      </trkpt>
      <trkpt lat="45.2894" lon="5.29478">
        <ele>642</ele>
        <time>2013-11-11T12:23:31Z</time>
      </trkpt>
      <trkpt lat="45.28961" lon="5.29476">
        <ele>642</ele>
        <time>2013-11-11T12:23:42Z</time>
      </trkpt>
      <trkpt lat="45.28985" lon="5.29473">
        <ele>642</ele>
        <time>2013-11-11T12:23:50Z</time>
      </trkpt>
      <trkpt lat="45.29011" lon="5.29473">
        <ele>642</ele>
        <time>2013-11-11T12:23:56Z</time>
      </trkpt>
      <trkpt lat="45.29034" lon="5.29473">
        <ele>642</ele>
        <time>2013-11-11T12:24:01Z</time>
      </trkpt>
      <trkpt lat="45.29056" lon="5.29472">
        <ele>641</ele>
        <time>2013-11-11T12:24:06Z</time>
      </trkpt>
      <trkpt lat="45.2908" lon="5.29471">
        <ele>641</ele>
        <time>2013-11-11T12:24:12Z</time>
      </trkpt>
      <trkpt lat="45.291" lon="5.2947">
        <ele>641</ele>
        <time>2013-11-11T12:24:18Z</time>
      </trkpt>
      <trkpt lat="45.29119" lon="5.29465">
        <ele>641</ele>
        <time>2013-11-11T12:24:25Z</time>
      </trkpt>
      <trkpt lat="45.29137" lon="5.29471">
        <ele>641</ele>
        <time>2013-11-11T12:24:33Z</time>
      </trkpt>
      <trkpt lat="45.29158" lon="5.2947">
        <ele>641</ele>
        <time>2013-11-11T12:24:40Z</time>
      </trkpt>
      <trkpt lat="45.29179" lon="5.2947">
        <ele>639</ele>
        <time>2013-11-11T12:24:46Z</time>
      </trkpt>
      <trkpt lat="45.29202" lon="5.29468">
        <ele>638</ele>
        <time>2013-11-11T12:24:52Z</time>
      </trkpt>
      <trkpt lat="45.29225" lon="5.29468">
        <ele>638</ele>
        <time>2013-11-11T12:24:57Z</time>
      </trkpt>
      <trkpt lat="45.29247" lon="5.29469">
        <ele>637</ele>
        <time>2013-11-11T12:25:01Z</time>
      </trkpt>
      <trkpt lat="45.2926" lon="5.29493">
        <ele>634</ele>
        <time>2013-11-11T12:25:05Z</time>
      </trkpt>
      <trkpt lat="45.29273" lon="5.29523">
        <ele>632</ele>
        <time>2013-11-11T12:25:09Z</time>
      </trkpt>
      <trkpt lat="45.29283" lon="5.29555">
        <ele>631</ele>
        <time>2013-11-11T12:25:13Z</time>
      </trkpt>
      <trkpt lat="45.29291" lon="5.29583">
        <ele>631</ele>
        <time>2013-11-11T12:25:17Z</time>
      </trkpt>
      <trkpt lat="45.29305" lon="5.29606">
        <ele>629</ele>
        <time>2013-11-11T12:25:23Z</time>
      </trkpt>
      <trkpt lat="45.29317" lon="5.29624">
        <ele>628</ele>
        <time>2013-11-11T12:25:29Z</time>
      </trkpt>
      <trkpt lat="45.2933" lon="5.29643">
        <ele>627</ele>
        <time>2013-11-11T12:25:34Z</time>
      </trkpt>
      <trkpt lat="45.29345" lon="5.29663">
        <ele>621</ele>
        <time>2013-11-11T12:25:40Z</time>
      </trkpt>
      <trkpt lat="45.29361" lon="5.2968">
        <ele>618</ele>
        <time>2013-11-11T12:25:46Z</time>
      </trkpt>
      <trkpt lat="45.29378" lon="5.29695">
        <ele>616</ele>
        <time>2013-11-11T12:25:52Z</time>
      </trkpt>
      <trkpt lat="45.29395" lon="5.29709">
        <ele>615</ele>
        <time>2013-11-11T12:25:59Z</time>
      </trkpt>
      <trkpt lat="45.29413" lon="5.29715">
        <ele>614</ele>
        <time>2013-11-11T12:26:07Z</time>
      </trkpt>
      <trkpt lat="45.29426" lon="5.29693">
        <ele>609</ele>
        <time>2013-11-11T12:26:21Z</time>
      </trkpt>
      <trkpt lat="45.29438" lon="5.29673">
        <ele>609</ele>
        <time>2013-11-11T12:26:30Z</time>
      </trkpt>
      <trkpt lat="45.29447" lon="5.29647">
        <ele>612</ele>
        <time>2013-11-11T12:26:39Z</time>
      </trkpt>
      <trkpt lat="45.29451" lon="5.29619">
        <ele>611</ele>
        <time>2013-11-11T12:26:47Z</time>
      </trkpt>
      <trkpt lat="45.29455" lon="5.29591">
        <ele>611</ele>
        <time>2013-11-11T12:26:53Z</time>
      </trkpt>
      <trkpt lat="45.29459" lon="5.29565">
        <ele>610</ele>
        <time>2013-11-11T12:26:58Z</time>
      </trkpt>
      <trkpt lat="45.29464" lon="5.29533">
        <ele>609</ele>
        <time>2013-11-11T12:27:03Z</time>
      </trkpt>
      <trkpt lat="45.29469" lon="5.29507">
        <ele>609</ele>
        <time>2013-11-11T12:27:07Z</time>
      </trkpt>
      <trkpt lat="45.29474" lon="5.2948">
        <ele>608</ele>
        <time>2013-11-11T12:27:11Z</time>
      </trkpt>
      <trkpt lat="45.29479" lon="5.29452">
        <ele>608</ele>
        <time>2013-11-11T12:27:15Z</time>
      </trkpt>
      <trkpt lat="45.29483" lon="5.29425">
        <ele>608</ele>
        <time>2013-11-11T12:27:19Z</time>
      </trkpt>
      <trkpt lat="45.29467" lon="5.29407">
        <ele>607</ele>
        <time>2013-11-11T12:27:23Z</time>
      </trkpt>
      <trkpt lat="45.29446" lon="5.29399">
        <ele>607</ele>
        <time>2013-11-11T12:27:27Z</time>
      </trkpt>
      <trkpt lat="45.29427" lon="5.29389">
        <ele>607</ele>
        <time>2013-11-11T12:27:32Z</time>
      </trkpt>
      <trkpt lat="45.2941" lon="5.29375">
        <ele>612</ele>
        <time>2013-11-11T12:27:40Z</time>
      </trkpt>
      <trkpt lat="45.29395" lon="5.29358">
        <ele>613</ele>
        <time>2013-11-11T12:27:49Z</time>
      </trkpt>
      <trkpt lat="45.29383" lon="5.29338">
        <ele>614</ele>
        <time>2013-11-11T12:27:59Z</time>
      </trkpt>
      <trkpt lat="45.29371" lon="5.29317">
        <ele>615</ele>
        <time>2013-11-11T12:28:10Z</time>
      </trkpt>
      <trkpt lat="45.29358" lon="5.29299">
        <ele>616</ele>
        <time>2013-11-11T12:28:23Z</time>
      </trkpt>
      <trkpt lat="45.29351" lon="5.29275">
        <ele>618</ele>
        <time>2013-11-11T12:28:39Z</time>
      </trkpt>
      <trkpt lat="45.29339" lon="5.29255">
        <ele>622</ele>
        <time>2013-11-11T12:28:56Z</time>
      </trkpt>
      <trkpt lat="45.29331" lon="5.29227">
        <ele>627</ele>
        <time>2013-11-11T12:29:13Z</time>
      </trkpt>
      <trkpt lat="45.29329" lon="5.29199">
        <ele>628</ele>
        <time>2013-11-11T12:29:24Z</time>
      </trkpt>
      <trkpt lat="45.29329" lon="5.29172">
        <ele>626</ele>
        <time>2013-11-11T12:29:32Z</time>
      </trkpt>
      <trkpt lat="45.29332" lon="5.29142">
        <ele>627</ele>
        <time>2013-11-11T12:29:39Z</time>
      </trkpt>
      <trkpt lat="45.29334" lon="5.29116">
        <ele>621</ele>
        <time>2013-11-11T12:29:45Z</time>
      </trkpt>
      <trkpt lat="45.29331" lon="5.29087">
        <ele>626</ele>
        <time>2013-11-11T12:29:52Z</time>
      </trkpt>
      <trkpt lat="45.29319" lon="5.29065">
        <ele>628</ele>
        <time>2013-11-11T12:30:00Z</time>
      </trkpt>
      <trkpt lat="45.29303" lon="5.29044">
        <ele>629</ele>
        <time>2013-11-11T12:30:09Z</time>
      </trkpt>
      <trkpt lat="45.29289" lon="5.29025">
        <ele>629</ele>
        <time>2013-11-11T12:30:18Z</time>
      </trkpt>
      <trkpt lat="45.29275" lon="5.29008">
        <ele>631</ele>
        <time>2013-11-11T12:30:26Z</time>
      </trkpt>
      <trkpt lat="45.29263" lon="5.28989">
        <ele>632</ele>
        <time>2013-11-11T12:30:35Z</time>
      </trkpt>
      <trkpt lat="45.29261" lon="5.2896">
        <ele>632</ele>
        <time>2013-11-11T12:30:44Z</time>
      </trkpt>
      <trkpt lat="45.29256" lon="5.2893">
        <ele>634</ele>
        <time>2013-11-11T12:30:52Z</time>
      </trkpt>
      <trkpt lat="45.29248" lon="5.28903">
        <ele>638</ele>
        <time>2013-11-11T12:31:00Z</time>
      </trkpt>
      <trkpt lat="45.2924" lon="5.28876">
        <ele>638</ele>
        <time>2013-11-11T12:31:08Z</time>
      </trkpt>
      <trkpt lat="45.29232" lon="5.2885">
        <ele>639</ele>
        <time>2013-11-11T12:31:16Z</time>
      </trkpt>
      <trkpt lat="45.2923" lon="5.28826">
        <ele>639</ele>
        <time>2013-11-11T12:31:52Z</time>
      </trkpt>
      <trkpt lat="45.29223" lon="5.28797">
        <ele>639</ele>
        <time>2013-11-11T12:32:12Z</time>
      </trkpt>
      <trkpt lat="45.29213" lon="5.28774">
        <ele>639</ele>
        <time>2013-11-11T12:32:25Z</time>
      </trkpt>
      <trkpt lat="45.29201" lon="5.28743">
        <ele>637</ele>
        <time>2013-11-11T12:32:47Z</time>
      </trkpt>
      <trkpt lat="45.29192" lon="5.28714">
        <ele>637</ele>
        <time>2013-11-11T12:32:58Z</time>
      </trkpt>
      <trkpt lat="45.29184" lon="5.28687">
        <ele>636</ele>
        <time>2013-11-11T12:33:08Z</time>
      </trkpt>
      <trkpt lat="45.29191" lon="5.28658">
        <ele>634</ele>
        <time>2013-11-11T12:33:18Z</time>
      </trkpt>
      <trkpt lat="45.29203" lon="5.28634">
        <ele>634</ele>
        <time>2013-11-11T12:33:40Z</time>
      </trkpt>
      <trkpt lat="45.29216" lon="5.28606">
        <ele>633</ele>
        <time>2013-11-11T12:33:51Z</time>
      </trkpt>
      <trkpt lat="45.29229" lon="5.28584">
        <ele>632</ele>
        <time>2013-11-11T12:33:57Z</time>
      </trkpt>
      <trkpt lat="45.29234" lon="5.28558">
        <ele>627</ele>
        <time>2013-11-11T12:34:06Z</time>
      </trkpt>
      <trkpt lat="45.29215" lon="5.28557">
        <ele>627</ele>
        <time>2013-11-11T12:34:20Z</time>
      </trkpt>
      <trkpt lat="45.29198" lon="5.28548">
        <ele>627</ele>
        <time>2013-11-11T12:34:30Z</time>
      </trkpt>
      <trkpt lat="45.29181" lon="5.28535">
        <ele>627</ele>
        <time>2013-11-11T12:34:40Z</time>
      </trkpt>
      <trkpt lat="45.29165" lon="5.28522">
        <ele>631</ele>
        <time>2013-11-11T12:34:49Z</time>
      </trkpt>
      <trkpt lat="45.29149" lon="5.28511">
        <ele>631</ele>
        <time>2013-11-11T12:34:58Z</time>
      </trkpt>
      <trkpt lat="45.29132" lon="5.28496">
        <ele>630</ele>
        <time>2013-11-11T12:35:07Z</time>
      </trkpt>
      <trkpt lat="45.29117" lon="5.28479">
        <ele>630</ele>
        <time>2013-11-11T12:35:16Z</time>
      </trkpt>
      <trkpt lat="45.291" lon="5.2847">
        <ele>631</ele>
        <time>2013-11-11T12:35:26Z</time>
      </trkpt>
      <trkpt lat="45.29091" lon="5.28445">
        <ele>630</ele>
        <time>2013-11-11T12:35:34Z</time>
      </trkpt>
      <trkpt lat="45.29086" lon="5.28419">
        <ele>632</ele>
        <time>2013-11-11T12:35:40Z</time>
      </trkpt>
      <trkpt lat="45.29085" lon="5.28392">
        <ele>629</ele>
        <time>2013-11-11T12:35:45Z</time>
      </trkpt>
      <trkpt lat="45.29083" lon="5.28364">
        <ele>633</ele>
        <time>2013-11-11T12:35:50Z</time>
      </trkpt>
      <trkpt lat="45.29081" lon="5.28337">
        <ele>632</ele>
        <time>2013-11-11T12:35:55Z</time>
      </trkpt>
      <trkpt lat="45.29087" lon="5.28308">
        <ele>629</ele>
        <time>2013-11-11T12:36:00Z</time>
      </trkpt>
      <trkpt lat="45.29089" lon="5.28281">
        <ele>629</ele>
        <time>2013-11-11T12:36:05Z</time>
      </trkpt>
      <trkpt lat="45.2909" lon="5.28253">
        <ele>632</ele>
        <time>2013-11-11T12:36:10Z</time>
      </trkpt>
      <trkpt lat="45.29096" lon="5.28226">
        <ele>631</ele>
        <time>2013-11-11T12:36:15Z</time>
      </trkpt>
      <trkpt lat="45.29105" lon="5.28198">
        <ele>631</ele>
        <time>2013-11-11T12:36:20Z</time>
      </trkpt>
      <trkpt lat="45.2912" lon="5.28175">
        <ele>630</ele>
        <time>2013-11-11T12:36:25Z</time>
      </trkpt>
      <trkpt lat="45.29135" lon="5.28155">
        <ele>631</ele>
        <time>2013-11-11T12:36:30Z</time>
      </trkpt>
      <trkpt lat="45.29151" lon="5.28137">
        <ele>631</ele>
        <time>2013-11-11T12:36:37Z</time>
      </trkpt>
      <trkpt lat="45.29165" lon="5.28116">
        <ele>631</ele>
        <time>2013-11-11T12:36:44Z</time>
      </trkpt>
      <trkpt lat="45.29177" lon="5.28095">
        <ele>627</ele>
        <time>2013-11-11T12:36:50Z</time>
      </trkpt>
      <trkpt lat="45.29188" lon="5.28075">
        <ele>629</ele>
        <time>2013-11-11T12:36:59Z</time>
      </trkpt>
      <trkpt lat="45.29197" lon="5.28056">
        <ele>628</ele>
        <time>2013-11-11T12:37:24Z</time>
      </trkpt>
      <trkpt lat="45.29206" lon="5.28028">
        <ele>628</ele>
        <time>2013-11-11T12:37:42Z</time>
      </trkpt>
      <trkpt lat="45.29209" lon="5.28">
        <ele>630</ele>
        <time>2013-11-11T12:37:51Z</time>
      </trkpt>
      <trkpt lat="45.29215" lon="5.27973">
        <ele>630</ele>
        <time>2013-11-11T12:37:59Z</time>
      </trkpt>
      <trkpt lat="45.29229" lon="5.27957">
        <ele>630</ele>
        <time>2013-11-11T12:38:06Z</time>
      </trkpt>
      <trkpt lat="45.29242" lon="5.27935">
        <ele>630</ele>
        <time>2013-11-11T12:38:12Z</time>
      </trkpt>
      <trkpt lat="45.29255" lon="5.27914">
        <ele>629</ele>
        <time>2013-11-11T12:38:18Z</time>
      </trkpt>
      <trkpt lat="45.29264" lon="5.27888">
        <ele>627</ele>
        <time>2013-11-11T12:38:25Z</time>
      </trkpt>
      <trkpt lat="45.29271" lon="5.2786">
        <ele>627</ele>
        <time>2013-11-11T12:38:31Z</time>
      </trkpt>
      <trkpt lat="45.29279" lon="5.27832">
        <ele>629</ele>
        <time>2013-11-11T12:38:38Z</time>
      </trkpt>
      <trkpt lat="45.29289" lon="5.27809">
        <ele>628</ele>
        <time>2013-11-11T12:38:44Z</time>
      </trkpt>
      <trkpt lat="45.29299" lon="5.27783">
        <ele>628</ele>
        <time>2013-11-11T12:38:50Z</time>
      </trkpt>
      <trkpt lat="45.29313" lon="5.2776">
        <ele>627</ele>
        <time>2013-11-11T12:38:55Z</time>
      </trkpt>
      <trkpt lat="45.29325" lon="5.2774">
        <ele>627</ele>
        <time>2013-11-11T12:38:59Z</time>
      </trkpt>
      <trkpt lat="45.29341" lon="5.27715">
        <ele>626</ele>
        <time>2013-11-11T12:39:04Z</time>
      </trkpt>
      <trkpt lat="45.29355" lon="5.27697">
        <ele>626</ele>
        <time>2013-11-11T12:39:08Z</time>
      </trkpt>
      <trkpt lat="45.2937" lon="5.27677">
        <ele>626</ele>
        <time>2013-11-11T12:39:13Z</time>
      </trkpt>
      <trkpt lat="45.29375" lon="5.27662">
        <ele>627</ele>
        <time>2013-11-11T12:39:22Z</time>
      </trkpt>
      <trkpt lat="45.29388" lon="5.27645">
        <ele>627</ele>
        <time>2013-11-11T12:39:30Z</time>
      </trkpt>
      <trkpt lat="45.29405" lon="5.27627">
        <ele>627</ele>
        <time>2013-11-11T12:39:38Z</time>
      </trkpt>
      <trkpt lat="45.29421" lon="5.27615">
        <ele>627</ele>
        <time>2013-11-11T12:39:45Z</time>
      </trkpt>
      <trkpt lat="45.29436" lon="5.27597">
        <ele>627</ele>
        <time>2013-11-11T12:39:52Z</time>
      </trkpt>
      <trkpt lat="45.29449" lon="5.27576">
        <ele>627</ele>
        <time>2013-11-11T12:39:59Z</time>
      </trkpt>
      <trkpt lat="45.29458" lon="5.27548">
        <ele>626</ele>
        <time>2013-11-11T12:40:06Z</time>
      </trkpt>
      <trkpt lat="45.29463" lon="5.27518">
        <ele>626</ele>
        <time>2013-11-11T12:40:11Z</time>
      </trkpt>
      <trkpt lat="45.29464" lon="5.27492">
        <ele>624</ele>
        <time>2013-11-11T12:40:15Z</time>
      </trkpt>
      <trkpt lat="45.29458" lon="5.27466">
        <ele>624</ele>
        <time>2013-11-11T12:40:19Z</time>
      </trkpt>
      <trkpt lat="45.29453" lon="5.2744">
        <ele>624</ele>
        <time>2013-11-11T12:40:24Z</time>
      </trkpt>
      <trkpt lat="45.29454" lon="5.27415">
        <ele>622</ele>
        <time>2013-11-11T12:40:33Z</time>
      </trkpt>
      <trkpt lat="45.29457" lon="5.27385">
        <ele>622</ele>
        <time>2013-11-11T12:40:41Z</time>
      </trkpt>
      <trkpt lat="45.29463" lon="5.2736">
        <ele>621</ele>
        <time>2013-11-11T12:40:49Z</time>
      </trkpt>
      <trkpt lat="45.29471" lon="5.27336">
        <ele>621</ele>
        <time>2013-11-11T12:41:03Z</time>
      </trkpt>
      <trkpt lat="45.2948" lon="5.27312">
        <ele>621</ele>
        <time>2013-11-11T12:41:10Z</time>
      </trkpt>
      <trkpt lat="45.29488" lon="5.27287">
        <ele>621</ele>
        <time>2013-11-11T12:41:15Z</time>
      </trkpt>
      <trkpt lat="45.29496" lon="5.2726">
        <ele>621</ele>
        <time>2013-11-11T12:41:20Z</time>
      </trkpt>
      <trkpt lat="45.29509" lon="5.27238">
        <ele>617</ele>
        <time>2013-11-11T12:41:25Z</time>
      </trkpt>
      <trkpt lat="45.29521" lon="5.27212">
        <ele>615</ele>
        <time>2013-11-11T12:41:32Z</time>
      </trkpt>
      <trkpt lat="45.29528" lon="5.27186">
        <ele>615</ele>
        <time>2013-11-11T12:41:42Z</time>
      </trkpt>
      <trkpt lat="45.29537" lon="5.27164">
        <ele>619</ele>
        <time>2013-11-11T12:41:58Z</time>
      </trkpt>
      <trkpt lat="45.29563" lon="5.27147">
        <ele>617</ele>
        <time>2013-11-11T12:42:07Z</time>
      </trkpt>
      <trkpt lat="45.29585" lon="5.27136">
        <ele>612</ele>
        <time>2013-11-11T12:42:14Z</time>
      </trkpt>
      <trkpt lat="45.29607" lon="5.27131">
        <ele>612</ele>
        <time>2013-11-11T12:42:21Z</time>
      </trkpt>
      <trkpt lat="45.29636" lon="5.27132">
        <ele>610</ele>
        <time>2013-11-11T12:42:26Z</time>
      </trkpt>
      <trkpt lat="45.29656" lon="5.2713">
        <ele>609</ele>
        <time>2013-11-11T12:42:29Z</time>
      </trkpt>
      <trkpt lat="45.29677" lon="5.27127">
        <ele>601</ele>
        <time>2013-11-11T12:42:32Z</time>
      </trkpt>
      <trkpt lat="45.29699" lon="5.27124">
        <ele>599</ele>
        <time>2013-11-11T12:42:35Z</time>
      </trkpt>
      <trkpt lat="45.2972" lon="5.27123">
        <ele>598</ele>
        <time>2013-11-11T12:42:38Z</time>
      </trkpt>
      <trkpt lat="45.29739" lon="5.2712">
        <ele>597</ele>
        <time>2013-11-11T12:42:41Z</time>
      </trkpt>
      <trkpt lat="45.29763" lon="5.27113">
        <ele>588</ele>
        <time>2013-11-11T12:42:44Z</time>
      </trkpt>
      <trkpt lat="45.29786" lon="5.27104">
        <ele>587</ele>
        <time>2013-11-11T12:42:47Z</time>
      </trkpt>
      <trkpt lat="45.29807" lon="5.27092">
        <ele>586</ele>
        <time>2013-11-11T12:42:51Z</time>
      </trkpt>
      <trkpt lat="45.29828" lon="5.27092">
        <ele>585</ele>
        <time>2013-11-11T12:43:00Z</time>
      </trkpt>
      <trkpt lat="45.29848" lon="5.27096">
        <ele>579</ele>
        <time>2013-11-11T12:43:05Z</time>
      </trkpt>
      <trkpt lat="45.29871" lon="5.27104">
        <ele>575</ele>
        <time>2013-11-11T12:43:22Z</time>
      </trkpt>
      <trkpt lat="45.29896" lon="5.27108">
        <ele>573</ele>
        <time>2013-11-11T12:43:28Z</time>
      </trkpt>
      <trkpt lat="45.29918" lon="5.27111">
        <ele>567</ele>
        <time>2013-11-11T12:43:32Z</time>
      </trkpt>
      <trkpt lat="45.29942" lon="5.27119">
        <ele>565</ele>
        <time>2013-11-11T12:43:36Z</time>
      </trkpt>
      <trkpt lat="45.29966" lon="5.27127">
        <ele>564</ele>
        <time>2013-11-11T12:43:40Z</time>
      </trkpt>
      <trkpt lat="45.29988" lon="5.27133">
        <ele>562</ele>
        <time>2013-11-11T12:43:44Z</time>
      </trkpt>
      <trkpt lat="45.3001" lon="5.27133">
        <ele>556</ele>
        <time>2013-11-11T12:43:48Z</time>
      </trkpt>
      <trkpt lat="45.30031" lon="5.27132">
        <ele>555</ele>
        <time>2013-11-11T12:43:52Z</time>
      </trkpt>
      <trkpt lat="45.30054" lon="5.27133">
        <ele>554</ele>
        <time>2013-11-11T12:43:56Z</time>
      </trkpt>
      <trkpt lat="45.30077" lon="5.27138">
        <ele>553</ele>
        <time>2013-11-11T12:44:00Z</time>
      </trkpt>
      <trkpt lat="45.30098" lon="5.27145">
        <ele>547</ele>
        <time>2013-11-11T12:44:04Z</time>
      </trkpt>
      <trkpt lat="45.30118" lon="5.27152">
        <ele>546</ele>
        <time>2013-11-11T12:44:09Z</time>
      </trkpt>
      <trkpt lat="45.30137" lon="5.27164">
        <ele>545</ele>
        <time>2013-11-11T12:44:15Z</time>
      </trkpt>
      <trkpt lat="45.30157" lon="5.27177">
        <ele>543</ele>
        <time>2013-11-11T12:44:20Z</time>
      </trkpt>
      <trkpt lat="45.30178" lon="5.27185">
        <ele>537</ele>
        <time>2013-11-11T12:44:25Z</time>
      </trkpt>
      <trkpt lat="45.30198" lon="5.27186">
        <ele>534</ele>
        <time>2013-11-11T12:44:30Z</time>
      </trkpt>
      <trkpt lat="45.30219" lon="5.27182">
        <ele>532</ele>
        <time>2013-11-11T12:44:34Z</time>
      </trkpt>
      <trkpt lat="45.30239" lon="5.27172">
        <ele>531</ele>
        <time>2013-11-11T12:44:39Z</time>
      </trkpt>
      <trkpt lat="45.30255" lon="5.27154">
        <ele>523</ele>
        <time>2013-11-11T12:44:44Z</time>
      </trkpt>
      <trkpt lat="45.30272" lon="5.27136">
        <ele>516</ele>
        <time>2013-11-11T12:44:49Z</time>
      </trkpt>
      <trkpt lat="45.30296" lon="5.27131">
        <ele>512</ele>
        <time>2013-11-11T12:44:55Z</time>
      </trkpt>
      <trkpt lat="45.30314" lon="5.27147">
        <ele>511</ele>
        <time>2013-11-11T12:45:02Z</time>
      </trkpt>
      <trkpt lat="45.30323" lon="5.27177">
        <ele>510</ele>
        <time>2013-11-11T12:45:07Z</time>
      </trkpt>
      <trkpt lat="45.30327" lon="5.27206">
        <ele>510</ele>
        <time>2013-11-11T12:45:10Z</time>
      </trkpt>
      <trkpt lat="45.3034" lon="5.27228">
        <ele>498</ele>
        <time>2013-11-11T12:45:15Z</time>
      </trkpt>
      <trkpt lat="45.3036" lon="5.27225">
        <ele>497</ele>
        <time>2013-11-11T12:45:18Z</time>
      </trkpt>
      <trkpt lat="45.30386" lon="5.27219">
        <ele>494</ele>
        <time>2013-11-11T12:45:21Z</time>
      </trkpt>
      <trkpt lat="45.30406" lon="5.2721">
        <ele>493</ele>
        <time>2013-11-11T12:45:23Z</time>
      </trkpt>
      <trkpt lat="45.30425" lon="5.27207">
        <ele>484</ele>
        <time>2013-11-11T12:45:25Z</time>
      </trkpt>
      <trkpt lat="45.30448" lon="5.27216">
        <ele>482</ele>
        <time>2013-11-11T12:45:28Z</time>
      </trkpt>
      <trkpt lat="45.30471" lon="5.27234">
        <ele>480</ele>
        <time>2013-11-11T12:45:31Z</time>
      </trkpt>
      <trkpt lat="45.30487" lon="5.27267">
        <ele>477</ele>
        <time>2013-11-11T12:45:34Z</time>
      </trkpt>
      <trkpt lat="45.30497" lon="5.27294">
        <ele>476</ele>
        <time>2013-11-11T12:45:36Z</time>
      </trkpt>
      <trkpt lat="45.30506" lon="5.2732">
        <ele>468</ele>
        <time>2013-11-11T12:45:38Z</time>
      </trkpt>
      <trkpt lat="45.30515" lon="5.27351">
        <ele>467</ele>
        <time>2013-11-11T12:45:41Z</time>
      </trkpt>
      <trkpt lat="45.30528" lon="5.2737">
        <ele>465</ele>
        <time>2013-11-11T12:45:46Z</time>
      </trkpt>
      <trkpt lat="45.30549" lon="5.27373">
        <ele>464</ele>
        <time>2013-11-11T12:45:51Z</time>
      </trkpt>
      <trkpt lat="45.30567" lon="5.27371">
        <ele>463</ele>
        <time>2013-11-11T12:46:00Z</time>
      </trkpt>
      <trkpt lat="45.30585" lon="5.27367">
        <ele>458</ele>
        <time>2013-11-11T12:46:07Z</time>
      </trkpt>
      <trkpt lat="45.30604" lon="5.27361">
        <ele>458</ele>
        <time>2013-11-11T12:46:15Z</time>
      </trkpt>
      <trkpt lat="45.3062" lon="5.27357">
        <ele>458</ele>
        <time>2013-11-11T12:46:36Z</time>
      </trkpt>
      <trkpt lat="45.30638" lon="5.27351">
        <ele>457</ele>
        <time>2013-11-11T12:46:42Z</time>
      </trkpt>
      <trkpt lat="45.30657" lon="5.27349">
        <ele>457</ele>
        <time>2013-11-11T12:46:46Z</time>
      </trkpt>
      <trkpt lat="45.30677" lon="5.2735">
        <ele>461</ele>
        <time>2013-11-11T12:46:50Z</time>
      </trkpt>
      <trkpt lat="45.30699" lon="5.27351">
        <ele>464</ele>
        <time>2013-11-11T12:46:55Z</time>
      </trkpt>
      <trkpt lat="45.30718" lon="5.27343">
        <ele>466</ele>
        <time>2013-11-11T12:47:01Z</time>
      </trkpt>
      <trkpt lat="45.3073" lon="5.27323">
        <ele>464</ele>
        <time>2013-11-11T12:47:13Z</time>
      </trkpt>
      <trkpt lat="45.30738" lon="5.27298">
        <ele>463</ele>
        <time>2013-11-11T12:47:23Z</time>
      </trkpt>
      <trkpt lat="45.30746" lon="5.27275">
        <ele>463</ele>
        <time>2013-11-11T12:47:34Z</time>
      </trkpt>
      <trkpt lat="45.30751" lon="5.2725">
        <ele>465</ele>
        <time>2013-11-11T12:47:47Z</time>
      </trkpt>
      <trkpt lat="45.30763" lon="5.27228">
        <ele>465</ele>
        <time>2013-11-11T12:48:00Z</time>
      </trkpt>
      <trkpt lat="45.30778" lon="5.27213">
        <ele>465</ele>
        <time>2013-11-11T12:48:13Z</time>
      </trkpt>
      <trkpt lat="45.30783" lon="5.27237">
        <ele>465</ele>
        <time>2013-11-11T12:48:31Z</time>
      </trkpt>
      <trkpt lat="45.30789" lon="5.27268">
        <ele>469</ele>
        <time>2013-11-11T12:48:49Z</time>
      </trkpt>
      <trkpt lat="45.30789" lon="5.27295">
        <ele>470</ele>
        <time>2013-11-11T12:49:07Z</time>
      </trkpt>
      <trkpt lat="45.3079" lon="5.27322">
        <ele>471</ele>
        <time>2013-11-11T12:49:24Z</time>
      </trkpt>
      <trkpt lat="45.30797" lon="5.27343">
        <ele>477</ele>
        <time>2013-11-11T12:49:43Z</time>
      </trkpt>
      <trkpt lat="45.30804" lon="5.27367">
        <ele>479</ele>
        <time>2013-11-11T12:50:08Z</time>
      </trkpt>
      <trkpt lat="45.30801" lon="5.27395">
        <ele>480</ele>
        <time>2013-11-11T12:50:33Z</time>
      </trkpt>
      <trkpt lat="45.30796" lon="5.2742">
        <ele>488</ele>
        <time>2013-11-11T12:51:13Z</time>
      </trkpt>
      <trkpt lat="45.30798" lon="5.27447">
        <ele>490</ele>
        <time>2013-11-11T12:51:31Z</time>
      </trkpt>
      <trkpt lat="45.30797" lon="5.27471">
        <ele>492</ele>
        <time>2013-11-11T12:51:55Z</time>
      </trkpt>
      <trkpt lat="45.30798" lon="5.27496">
        <ele>494</ele>
        <time>2013-11-11T12:52:18Z</time>
      </trkpt>
      <trkpt lat="45.30803" lon="5.27519">
        <ele>503</ele>
        <time>2013-11-11T12:52:42Z</time>
      </trkpt>
      <trkpt lat="45.308" lon="5.27544">
        <ele>504</ele>
        <time>2013-11-11T12:53:06Z</time>
      </trkpt>
      <trkpt lat="45.30804" lon="5.27569">
        <ele>506</ele>
        <time>2013-11-11T12:53:36Z</time>
      </trkpt>
      <trkpt lat="45.3081" lon="5.27595">
        <ele>515</ele>
        <time>2013-11-11T12:54:03Z</time>
      </trkpt>
      <trkpt lat="45.30806" lon="5.27619">
        <ele>516</ele>
        <time>2013-11-11T12:55:27Z</time>
      </trkpt>
      <trkpt lat="45.30795" lon="5.27639">
        <ele>517</ele>
        <time>2013-11-11T12:55:55Z</time>
      </trkpt>
      <trkpt lat="45.30786" lon="5.27661">
        <ele>518</ele>
        <time>2013-11-11T12:56:22Z</time>
      </trkpt>
      <trkpt lat="45.30779" lon="5.27684">
        <ele>527</ele>
        <time>2013-11-11T12:56:49Z</time>
      </trkpt>
      <trkpt lat="45.30772" lon="5.27703">
        <ele>529</ele>
        <time>2013-11-11T12:57:36Z</time>
      </trkpt>
      <trkpt lat="45.30761" lon="5.27726">
        <ele>531</ele>
        <time>2013-11-11T12:57:50Z</time>
      </trkpt>
      <trkpt lat="45.30748" lon="5.27748">
        <ele>533</ele>
        <time>2013-11-11T12:58:02Z</time>
      </trkpt>
      <trkpt lat="45.30734" lon="5.27768">
        <ele>533</ele>
        <time>2013-11-11T12:58:14Z</time>
      </trkpt>
      <trkpt lat="45.3072" lon="5.27789">
        <ele>533</ele>
        <time>2013-11-11T12:58:23Z</time>
      </trkpt>
      <trkpt lat="45.30709" lon="5.27812">
        <ele>534</ele>
        <time>2013-11-11T12:58:29Z</time>
      </trkpt>
      <trkpt lat="45.30695" lon="5.27835">
        <ele>541</ele>
        <time>2013-11-11T12:58:35Z</time>
      </trkpt>
      <trkpt lat="45.30683" lon="5.27856">
        <ele>541</ele>
        <time>2013-11-11T12:58:41Z</time>
      </trkpt>
      <trkpt lat="45.3067" lon="5.2788">
        <ele>543</ele>
        <time>2013-11-11T12:58:48Z</time>
      </trkpt>
      <trkpt lat="45.3066" lon="5.27907">
        <ele>535</ele>
        <time>2013-11-11T12:58:54Z</time>
      </trkpt>
      <trkpt lat="45.30658" lon="5.27937">
        <ele>537</ele>
        <time>2013-11-11T12:59:01Z</time>
      </trkpt>
      <trkpt lat="45.3066" lon="5.27964">
        <ele>536</ele>
        <time>2013-11-11T12:59:08Z</time>
      </trkpt>
      <trkpt lat="45.30657" lon="5.27997">
        <ele>542</ele>
        <time>2013-11-11T12:59:15Z</time>
      </trkpt>
      <trkpt lat="45.30647" lon="5.28025">
        <ele>543</ele>
        <time>2013-11-11T12:59:21Z</time>
      </trkpt>
      <trkpt lat="45.30634" lon="5.28055">
        <ele>542</ele>
        <time>2013-11-11T12:59:30Z</time>
      </trkpt>
      <trkpt lat="45.30616" lon="5.28073">
        <ele>540</ele>
        <time>2013-11-11T12:59:37Z</time>
      </trkpt>
      <trkpt lat="45.30605" lon="5.28096">
        <ele>545</ele>
        <time>2013-11-11T12:59:44Z</time>
      </trkpt>
      <trkpt lat="45.30599" lon="5.28125">
        <ele>548</ele>
        <time>2013-11-11T12:59:52Z</time>
      </trkpt>
      <trkpt lat="45.30589" lon="5.28151">
        <ele>548</ele>
        <time>2013-11-11T13:00:03Z</time>
      </trkpt>
      <trkpt lat="45.3058" lon="5.28174">
        <ele>542</ele>
        <time>2013-11-11T13:00:16Z</time>
      </trkpt>
      <trkpt lat="45.30573" lon="5.28198">
        <ele>539</ele>
        <time>2013-11-11T13:00:32Z</time>
      </trkpt>
      <trkpt lat="45.3057" lon="5.28223">
        <ele>540</ele>
        <time>2013-11-11T13:00:48Z</time>
      </trkpt>
      <trkpt lat="45.3057" lon="5.28248">
        <ele>545</ele>
        <time>2013-11-11T13:01:02Z</time>
      </trkpt>
      <trkpt lat="45.30575" lon="5.28273">
        <ele>544</ele>
        <time>2013-11-11T13:01:12Z</time>
      </trkpt>
      <trkpt lat="45.30582" lon="5.283">
        <ele>543</ele>
        <time>2013-11-11T13:01:20Z</time>
      </trkpt>
      <trkpt lat="45.30586" lon="5.28327">
        <ele>554</ele>
        <time>2013-11-11T13:01:30Z</time>
      </trkpt>
      <trkpt lat="45.30591" lon="5.28354">
        <ele>559</ele>
        <time>2013-11-11T13:01:38Z</time>
      </trkpt>
      <trkpt lat="45.30595" lon="5.28383">
        <ele>561</ele>
        <time>2013-11-11T13:01:46Z</time>
      </trkpt>
      <trkpt lat="45.30597" lon="5.28408">
        <ele>559</ele>
        <time>2013-11-11T13:01:54Z</time>
      </trkpt>
      <trkpt lat="45.306" lon="5.28434">
        <ele>562</ele>
        <time>2013-11-11T13:02:02Z</time>
      </trkpt>
      <trkpt lat="45.30604" lon="5.28459">
        <ele>564</ele>
        <time>2013-11-11T13:02:13Z</time>
      </trkpt>
      <trkpt lat="45.30607" lon="5.28485">
        <ele>564</ele>
        <time>2013-11-11T13:02:25Z</time>
      </trkpt>
      <trkpt lat="45.30607" lon="5.28513">
        <ele>567</ele>
        <time>2013-11-11T13:02:37Z</time>
      </trkpt>
      <trkpt lat="45.30595" lon="5.28536">
        <ele>568</ele>
        <time>2013-11-11T13:02:47Z</time>
      </trkpt>
      <trkpt lat="45.30578" lon="5.28552">
        <ele>559</ele>
        <time>2013-11-11T13:02:55Z</time>
      </trkpt>
      <trkpt lat="45.30561" lon="5.28568">
        <ele>559</ele>
        <time>2013-11-11T13:03:03Z</time>
      </trkpt>
      <trkpt lat="45.30544" lon="5.28589">
        <ele>560</ele>
        <time>2013-11-11T13:03:10Z</time>
      </trkpt>
      <trkpt lat="45.30535" lon="5.28611">
        <ele>559</ele>
        <time>2013-11-11T13:03:15Z</time>
      </trkpt>
      <trkpt lat="45.30537" lon="5.28639">
        <ele>558</ele>
        <time>2013-11-11T13:03:20Z</time>
      </trkpt>
      <trkpt lat="45.30542" lon="5.28666">
        <ele>559</ele>
        <time>2013-11-11T13:03:24Z</time>
      </trkpt>
      <trkpt lat="45.30547" lon="5.28692">
        <ele>556</ele>
        <time>2013-11-11T13:03:28Z</time>
      </trkpt>
      <trkpt lat="45.30553" lon="5.28722">
        <ele>555</ele>
        <time>2013-11-11T13:03:32Z</time>
      </trkpt>
      <trkpt lat="45.3056" lon="5.28754">
        <ele>552</ele>
        <time>2013-11-11T13:03:36Z</time>
      </trkpt>
      <trkpt lat="45.30566" lon="5.28779">
        <ele>551</ele>
        <time>2013-11-11T13:03:39Z</time>
      </trkpt>
      <trkpt lat="45.30571" lon="5.28809">
        <ele>551</ele>
        <time>2013-11-11T13:03:42Z</time>
      </trkpt>
      <trkpt lat="45.30577" lon="5.2884">
        <ele>551</ele>
        <time>2013-11-11T13:03:45Z</time>
      </trkpt>
      <trkpt lat="45.30584" lon="5.28868">
        <ele>556</ele>
        <time>2013-11-11T13:03:48Z</time>
      </trkpt>
      <trkpt lat="45.30593" lon="5.28896">
        <ele>555</ele>
        <time>2013-11-11T13:03:51Z</time>
      </trkpt>
      <trkpt lat="45.30601" lon="5.28926">
        <ele>553</ele>
        <time>2013-11-11T13:03:55Z</time>
      </trkpt>
      <trkpt lat="45.30616" lon="5.28942">
        <ele>554</ele>
        <time>2013-11-11T13:04:00Z</time>
      </trkpt>
      <trkpt lat="45.30635" lon="5.28957">
        <ele>554</ele>
        <time>2013-11-11T13:04:05Z</time>
      </trkpt>
      <trkpt lat="45.30652" lon="5.28975">
        <ele>554</ele>
        <time>2013-11-11T13:04:10Z</time>
      </trkpt>
      <trkpt lat="45.30671" lon="5.2899">
        <ele>555</ele>
        <time>2013-11-11T13:04:15Z</time>
      </trkpt>
      <trkpt lat="45.30687" lon="5.29007">
        <ele>553</ele>
        <time>2013-11-11T13:04:19Z</time>
      </trkpt>
      <trkpt lat="45.30702" lon="5.29032">
        <ele>553</ele>
        <time>2013-11-11T13:04:23Z</time>
      </trkpt>
      <trkpt lat="45.30715" lon="5.2905">
        <ele>553</ele>
        <time>2013-11-11T13:04:26Z</time>
      </trkpt>
      <trkpt lat="45.3073" lon="5.29069">
        <ele>552</ele>
        <time>2013-11-11T13:04:29Z</time>
      </trkpt>
      <trkpt lat="45.30743" lon="5.29089">
        <ele>550</ele>
        <time>2013-11-11T13:04:32Z</time>
      </trkpt>
      <trkpt lat="45.30757" lon="5.29109">
        <ele>546</ele>
        <time>2013-11-11T13:04:35Z</time>
      </trkpt>
      <trkpt lat="45.30774" lon="5.29123">
        <ele>545</ele>
        <time>2013-11-11T13:04:38Z</time>
      </trkpt>
      <trkpt lat="45.30797" lon="5.2913">
        <ele>543</ele>
        <time>2013-11-11T13:04:41Z</time>
      </trkpt>
      <trkpt lat="45.30815" lon="5.29138">
        <ele>542</ele>
        <time>2013-11-11T13:04:43Z</time>
      </trkpt>
      <trkpt lat="45.30833" lon="5.29147">
        <ele>539</ele>
        <time>2013-11-11T13:04:46Z</time>
      </trkpt>
      <trkpt lat="45.30856" lon="5.29159">
        <ele>535</ele>
        <time>2013-11-11T13:04:49Z</time>
      </trkpt>
      <trkpt lat="45.3088" lon="5.29163">
        <ele>534</ele>
        <time>2013-11-11T13:04:52Z</time>
      </trkpt>
      <trkpt lat="45.30902" lon="5.29163">
        <ele>531</ele>
        <time>2013-11-11T13:04:55Z</time>
      </trkpt>
      <trkpt lat="45.30925" lon="5.2916">
        <ele>525</ele>
        <time>2013-11-11T13:04:59Z</time>
      </trkpt>
      <trkpt lat="45.30942" lon="5.29154">
        <ele>522</ele>
        <time>2013-11-11T13:05:02Z</time>
      </trkpt>
      <trkpt lat="45.30957" lon="5.29132">
        <ele>521</ele>
        <time>2013-11-11T13:05:05Z</time>
      </trkpt>
      <trkpt lat="45.30971" lon="5.29103">
        <ele>520</ele>
        <time>2013-11-11T13:05:08Z</time>
      </trkpt>
      <trkpt lat="45.30988" lon="5.29073">
        <ele>523</ele>
        <time>2013-11-11T13:05:11Z</time>
      </trkpt>
      <trkpt lat="45.31006" lon="5.2905">
        <ele>512</ele>
        <time>2013-11-11T13:05:14Z</time>
      </trkpt>
      <trkpt lat="45.31022" lon="5.29035">
        <ele>512</ele>
        <time>2013-11-11T13:05:17Z</time>
      </trkpt>
      <trkpt lat="45.31037" lon="5.2902">
        <ele>511</ele>
        <time>2013-11-11T13:05:20Z</time>
      </trkpt>
      <trkpt lat="45.31054" lon="5.29006">
        <ele>508</ele>
        <time>2013-11-11T13:05:23Z</time>
      </trkpt>
      <trkpt lat="45.31075" lon="5.28989">
        <ele>509</ele>
        <time>2013-11-11T13:05:27Z</time>
      </trkpt>
      <trkpt lat="45.31091" lon="5.28973">
        <ele>494</ele>
        <time>2013-11-11T13:05:30Z</time>
      </trkpt>
      <trkpt lat="45.31104" lon="5.28943">
        <ele>494</ele>
        <time>2013-11-11T13:05:33Z</time>
      </trkpt>
      <trkpt lat="45.31119" lon="5.28913">
        <ele>497</ele>
        <time>2013-11-11T13:05:36Z</time>
      </trkpt>
      <trkpt lat="45.31136" lon="5.28887">
        <ele>493</ele>
        <time>2013-11-11T13:05:39Z</time>
      </trkpt>
      <trkpt lat="45.31155" lon="5.28862">
        <ele>491</ele>
        <time>2013-11-11T13:05:42Z</time>
      </trkpt>
      <trkpt lat="45.3117" lon="5.28836">
        <ele>480</ele>
        <time>2013-11-11T13:05:45Z</time>
      </trkpt>
      <trkpt lat="45.31182" lon="5.28807">
        <ele>473</ele>
        <time>2013-11-11T13:05:48Z</time>
      </trkpt>
      <trkpt lat="45.31191" lon="5.28779">
        <ele>472</ele>
        <time>2013-11-11T13:05:51Z</time>
      </trkpt>
      <trkpt lat="45.31204" lon="5.2875">
        <ele>470</ele>
        <time>2013-11-11T13:05:55Z</time>
      </trkpt>
      <trkpt lat="45.31222" lon="5.28736">
        <ele>466</ele>
        <time>2013-11-11T13:05:58Z</time>
      </trkpt>
      <trkpt lat="45.31249" lon="5.28728">
        <ele>463</ele>
        <time>2013-11-11T13:06:01Z</time>
      </trkpt>
      <trkpt lat="45.31273" lon="5.28726">
        <ele>454</ele>
        <time>2013-11-11T13:06:04Z</time>
      </trkpt>
      <trkpt lat="45.31282" lon="5.28709">
        <ele>454</ele>
        <time>2013-11-11T13:06:09Z</time>
      </trkpt>
      <trkpt lat="45.31281" lon="5.28683">
        <ele>454</ele>
        <time>2013-11-11T13:06:17Z</time>
      </trkpt>
      <trkpt lat="45.31279" lon="5.28657">
        <ele>454</ele>
        <time>2013-11-11T13:06:24Z</time>
      </trkpt>
      <trkpt lat="45.31286" lon="5.28632">
        <ele>453</ele>
        <time>2013-11-11T13:06:31Z</time>
      </trkpt>
      <trkpt lat="45.31298" lon="5.28607">
        <ele>453</ele>
        <time>2013-11-11T13:06:37Z</time>
      </trkpt>
      <trkpt lat="45.31304" lon="5.28582">
        <ele>452</ele>
        <time>2013-11-11T13:06:41Z</time>
      </trkpt>
      <trkpt lat="45.31309" lon="5.28549">
        <ele>451</ele>
        <time>2013-11-11T13:06:45Z</time>
      </trkpt>
      <trkpt lat="45.31315" lon="5.28521">
        <ele>450</ele>
        <time>2013-11-11T13:06:48Z</time>
      </trkpt>
      <trkpt lat="45.31325" lon="5.28495">
        <ele>446</ele>
        <time>2013-11-11T13:06:51Z</time>
      </trkpt>
      <trkpt lat="45.31329" lon="5.28466">
        <ele>447</ele>
        <time>2013-11-11T13:06:55Z</time>
      </trkpt>
      <trkpt lat="45.31325" lon="5.28436">
        <ele>446</ele>
        <time>2013-11-11T13:07:02Z</time>
      </trkpt>
      <trkpt lat="45.31319" lon="5.28411">
        <ele>444</ele>
        <time>2013-11-11T13:07:09Z</time>
      </trkpt>
      <trkpt lat="45.31309" lon="5.28384">
        <ele>444</ele>
        <time>2013-11-11T13:07:16Z</time>
      </trkpt>
      <trkpt lat="45.31303" lon="5.2836">
        <ele>444</ele>
        <time>2013-11-11T13:07:22Z</time>
      </trkpt>
      <trkpt lat="45.313" lon="5.28332">
        <ele>443</ele>
        <time>2013-11-11T13:07:27Z</time>
      </trkpt>
      <trkpt lat="45.31298" lon="5.28304">
        <ele>444</ele>
        <time>2013-11-11T13:07:32Z</time>
      </trkpt>
      <trkpt lat="45.31295" lon="5.28274">
        <ele>444</ele>
        <time>2013-11-11T13:07:38Z</time>
      </trkpt>
      <trkpt lat="45.31292" lon="5.28245">
        <ele>445</ele>
        <time>2013-11-11T13:07:44Z</time>
      </trkpt>
      <trkpt lat="45.31291" lon="5.28217">
        <ele>445</ele>
        <time>2013-11-11T13:07:49Z</time>
      </trkpt>
      <trkpt lat="45.3129" lon="5.2819">
        <ele>445</ele>
        <time>2013-11-11T13:07:54Z</time>
      </trkpt>
      <trkpt lat="45.31288" lon="5.28158">
        <ele>443</ele>
        <time>2013-11-11T13:08:00Z</time>
      </trkpt>
      <trkpt lat="45.31282" lon="5.28132">
        <ele>443</ele>
        <time>2013-11-11T13:08:07Z</time>
      </trkpt>
      <trkpt lat="45.31276" lon="5.28109">
        <ele>443</ele>
        <time>2013-11-11T13:08:13Z</time>
      </trkpt>
      <trkpt lat="45.31288" lon="5.28081">
        <ele>440</ele>
        <time>2013-11-11T13:08:19Z</time>
      </trkpt>
      <trkpt lat="45.31304" lon="5.28057">
        <ele>440</ele>
        <time>2013-11-11T13:08:24Z</time>
      </trkpt>
      <trkpt lat="45.31309" lon="5.28032">
        <ele>439</ele>
        <time>2013-11-11T13:08:28Z</time>
      </trkpt>
      <trkpt lat="45.31321" lon="5.28008">
        <ele>438</ele>
        <time>2013-11-11T13:08:34Z</time>
      </trkpt>
      <trkpt lat="45.31339" lon="5.28012">
        <ele>441</ele>
        <time>2013-11-11T13:08:44Z</time>
      </trkpt>
      <trkpt lat="45.31353" lon="5.28033">
        <ele>444</ele>
        <time>2013-11-11T13:08:58Z</time>
      </trkpt>
      <trkpt lat="45.31363" lon="5.28057">
        <ele>445</ele>
        <time>2013-11-11T13:09:10Z</time>
      </trkpt>
      <trkpt lat="45.31371" lon="5.28079">
        <ele>446</ele>
        <time>2013-11-11T13:09:22Z</time>
      </trkpt>
      <trkpt lat="45.3138" lon="5.28102">
        <ele>447</ele>
        <time>2013-11-11T13:09:34Z</time>
      </trkpt>
      <trkpt lat="45.3139" lon="5.28126">
        <ele>448</ele>
        <time>2013-11-11T13:09:46Z</time>
      </trkpt>
      <trkpt lat="45.314" lon="5.28148">
        <ele>449</ele>
        <time>2013-11-11T13:09:56Z</time>
      </trkpt>
      <trkpt lat="45.31413" lon="5.28165">
        <ele>452</ele>
        <time>2013-11-11T13:10:07Z</time>
      </trkpt>
      <trkpt lat="45.31431" lon="5.28178">
        <ele>454</ele>
        <time>2013-11-11T13:10:20Z</time>
      </trkpt>
      <trkpt lat="45.3145" lon="5.28184">
        <ele>455</ele>
        <time>2013-11-11T13:10:33Z</time>
      </trkpt>
      <trkpt lat="45.31468" lon="5.2819">
        <ele>456</ele>
        <time>2013-11-11T13:10:46Z</time>
      </trkpt>
      <trkpt lat="45.31485" lon="5.282">
        <ele>457</ele>
        <time>2013-11-11T13:10:58Z</time>
      </trkpt>
      <trkpt lat="45.31506" lon="5.28213">
        <ele>460</ele>
        <time>2013-11-11T13:11:12Z</time>
      </trkpt>
      <trkpt lat="45.31519" lon="5.28242">
        <ele>461</ele>
        <time>2013-11-11T13:11:24Z</time>
      </trkpt>
      <trkpt lat="45.3153" lon="5.28244">
        <ele>461</ele>
        <time>2013-11-11T13:11:39Z</time>
      </trkpt>
      <trkpt lat="45.31536" lon="5.28215">
        <ele>460</ele>
        <time>2013-11-11T13:11:49Z</time>
      </trkpt>
      <trkpt lat="45.31543" lon="5.28192">
        <ele>460</ele>
        <time>2013-11-11T13:11:56Z</time>
      </trkpt>
      <trkpt lat="45.31551" lon="5.28168">
        <ele>460</ele>
        <time>2013-11-11T13:12:02Z</time>
      </trkpt>
      <trkpt lat="45.3156" lon="5.28144">
        <ele>459</ele>
        <time>2013-11-11T13:12:08Z</time>
      </trkpt>
      <trkpt lat="45.31569" lon="5.28117">
        <ele>458</ele>
        <time>2013-11-11T13:12:13Z</time>
      </trkpt>
      <trkpt lat="45.31577" lon="5.2809">
        <ele>458</ele>
        <time>2013-11-11T13:12:17Z</time>
      </trkpt>
      <trkpt lat="45.31587" lon="5.28061">
        <ele>455</ele>
        <time>2013-11-11T13:12:21Z</time>
      </trkpt>
      <trkpt lat="45.31596" lon="5.28031">
        <ele>454</ele>
        <time>2013-11-11T13:12:25Z</time>
      </trkpt>
      <trkpt lat="45.31606" lon="5.28002">
        <ele>453</ele>
        <time>2013-11-11T13:12:29Z</time>
      </trkpt>
      <trkpt lat="45.31611" lon="5.27972">
        <ele>452</ele>
        <time>2013-11-11T13:12:33Z</time>
      </trkpt>
      <trkpt lat="45.31615" lon="5.2794">
        <ele>451</ele>
        <time>2013-11-11T13:12:37Z</time>
      </trkpt>
      <trkpt lat="45.31614" lon="5.27912">
        <ele>450</ele>
        <time>2013-11-11T13:12:40Z</time>
      </trkpt>
      <trkpt lat="45.31611" lon="5.27886">
        <ele>450</ele>
        <time>2013-11-11T13:12:43Z</time>
      </trkpt>
      <trkpt lat="45.3161" lon="5.27856">
        <ele>449</ele>
        <time>2013-11-11T13:12:46Z</time>
      </trkpt>
      <trkpt lat="45.31607" lon="5.27824">
        <ele>447</ele>
        <time>2013-11-11T13:12:49Z</time>
      </trkpt>
      <trkpt lat="45.31605" lon="5.27793">
        <ele>447</ele>
        <time>2013-11-11T13:12:52Z</time>
      </trkpt>
      <trkpt lat="45.31603" lon="5.27763">
        <ele>446</ele>
        <time>2013-11-11T13:12:55Z</time>
      </trkpt>
      <trkpt lat="45.31601" lon="5.27735">
        <ele>444</ele>
        <time>2013-11-11T13:12:58Z</time>
      </trkpt>
      <trkpt lat="45.31604" lon="5.27703">
        <ele>442</ele>
        <time>2013-11-11T13:13:01Z</time>
      </trkpt>
      <trkpt lat="45.31607" lon="5.2767">
        <ele>441</ele>
        <time>2013-11-11T13:13:04Z</time>
      </trkpt>
      <trkpt lat="45.31606" lon="5.27637">
        <ele>436</ele>
        <time>2013-11-11T13:13:07Z</time>
      </trkpt>
      <trkpt lat="45.31609" lon="5.27608">
        <ele>435</ele>
        <time>2013-11-11T13:13:10Z</time>
      </trkpt>
      <trkpt lat="45.31612" lon="5.2758">
        <ele>431</ele>
        <time>2013-11-11T13:13:13Z</time>
      </trkpt>
      <trkpt lat="45.31617" lon="5.27554">
        <ele>430</ele>
        <time>2013-11-11T13:13:16Z</time>
      </trkpt>
      <trkpt lat="45.31625" lon="5.27529">
        <ele>429</ele>
        <time>2013-11-11T13:13:19Z</time>
      </trkpt>
      <trkpt lat="45.31639" lon="5.27504">
        <ele>427</ele>
        <time>2013-11-11T13:13:23Z</time>
      </trkpt>
      <trkpt lat="45.31657" lon="5.27487">
        <ele>424</ele>
        <time>2013-11-11T13:13:27Z</time>
      </trkpt>
      <trkpt lat="45.31674" lon="5.2747">
        <ele>422</ele>
        <time>2013-11-11T13:13:31Z</time>
      </trkpt>
      <trkpt lat="45.3169" lon="5.2745">
        <ele>421</ele>
        <time>2013-11-11T13:13:36Z</time>
      </trkpt>
      <trkpt lat="45.31697" lon="5.27424">
        <ele>420</ele>
        <time>2013-11-11T13:13:40Z</time>
      </trkpt>
      <trkpt lat="45.31702" lon="5.27394">
        <ele>417</ele>
        <time>2013-11-11T13:13:44Z</time>
      </trkpt>
      <trkpt lat="45.31704" lon="5.27364">
        <ele>417</ele>
        <time>2013-11-11T13:13:48Z</time>
      </trkpt>
      <trkpt lat="45.31708" lon="5.27337">
        <ele>416</ele>
        <time>2013-11-11T13:13:52Z</time>
      </trkpt>
      <trkpt lat="45.31719" lon="5.27315">
        <ele>418</ele>
        <time>2013-11-11T13:13:56Z</time>
      </trkpt>
      <trkpt lat="45.31738" lon="5.27302">
        <ele>419</ele>
        <time>2013-11-11T13:14:02Z</time>
      </trkpt>
      <trkpt lat="45.31756" lon="5.27296">
        <ele>418</ele>
        <time>2013-11-11T13:14:08Z</time>
      </trkpt>
      <trkpt lat="45.31775" lon="5.27287">
        <ele>418</ele>
        <time>2013-11-11T13:14:16Z</time>
      </trkpt>
      <trkpt lat="45.31796" lon="5.27283">
        <ele>417</ele>
        <time>2013-11-11T13:14:24Z</time>
      </trkpt>
      <trkpt lat="45.31815" lon="5.27281">
        <ele>417</ele>
        <time>2013-11-11T13:14:30Z</time>
      </trkpt>
      <trkpt lat="45.31833" lon="5.27269">
        <ele>417</ele>
        <time>2013-11-11T13:14:35Z</time>
      </trkpt>
      <trkpt lat="45.31846" lon="5.27247">
        <ele>416</ele>
        <time>2013-11-11T13:14:40Z</time>
      </trkpt>
      <trkpt lat="45.31857" lon="5.27223">
        <ele>416</ele>
        <time>2013-11-11T13:14:45Z</time>
      </trkpt>
      <trkpt lat="45.31875" lon="5.27202">
        <ele>416</ele>
        <time>2013-11-11T13:14:50Z</time>
      </trkpt>
      <trkpt lat="45.31894" lon="5.27188">
        <ele>415</ele>
        <time>2013-11-11T13:14:54Z</time>
      </trkpt>
      <trkpt lat="45.3191" lon="5.27172">
        <ele>412</ele>
        <time>2013-11-11T13:14:58Z</time>
      </trkpt>
      <trkpt lat="45.31923" lon="5.27146">
        <ele>411</ele>
        <time>2013-11-11T13:15:02Z</time>
      </trkpt>
      <trkpt lat="45.31934" lon="5.27119">
        <ele>411</ele>
        <time>2013-11-11T13:15:06Z</time>
      </trkpt>
      <trkpt lat="45.31944" lon="5.27093">
        <ele>411</ele>
        <time>2013-11-11T13:15:10Z</time>
      </trkpt>
      <trkpt lat="45.31956" lon="5.27067">
        <ele>410</ele>
        <time>2013-11-11T13:15:15Z</time>
      </trkpt>
      <trkpt lat="45.31964" lon="5.2704">
        <ele>409</ele>
        <time>2013-11-11T13:15:20Z</time>
      </trkpt>
      <trkpt lat="45.31963" lon="5.27014">
        <ele>409</ele>
        <time>2013-11-11T13:15:25Z</time>
      </trkpt>
      <trkpt lat="45.31956" lon="5.26988">
        <ele>408</ele>
        <time>2013-11-11T13:15:30Z</time>
      </trkpt>
      <trkpt lat="45.31949" lon="5.26963">
        <ele>408</ele>
        <time>2013-11-11T13:15:35Z</time>
      </trkpt>
      <trkpt lat="45.31942" lon="5.26938">
        <ele>408</ele>
        <time>2013-11-11T13:15:40Z</time>
      </trkpt>
      <trkpt lat="45.31935" lon="5.26912">
        <ele>408</ele>
        <time>2013-11-11T13:15:45Z</time>
      </trkpt>
      <trkpt lat="45.31931" lon="5.26885">
        <ele>408</ele>
        <time>2013-11-11T13:15:50Z</time>
      </trkpt>
      <trkpt lat="45.31927" lon="5.26859">
        <ele>408</ele>
        <time>2013-11-11T13:15:56Z</time>
      </trkpt>
      <trkpt lat="45.31923" lon="5.26831">
        <ele>409</ele>
        <time>2013-11-11T13:16:03Z</time>
      </trkpt>
      <trkpt lat="45.3192" lon="5.26809">
        <ele>409</ele>
        <time>2013-11-11T13:16:25Z</time>
      </trkpt>
      <trkpt lat="45.31917" lon="5.26783">
        <ele>409</ele>
        <time>2013-11-11T13:16:34Z</time>
      </trkpt>
      <trkpt lat="45.31915" lon="5.26753">
        <ele>410</ele>
        <time>2013-11-11T13:16:42Z</time>
      </trkpt>
      <trkpt lat="45.3192" lon="5.26729">
        <ele>410</ele>
        <time>2013-11-11T13:16:49Z</time>
      </trkpt>
      <trkpt lat="45.31941" lon="5.26727">
        <ele>410</ele>
        <time>2013-11-11T13:16:56Z</time>
      </trkpt>
      <trkpt lat="45.3196" lon="5.26725">
        <ele>410</ele>
        <time>2013-11-11T13:17:01Z</time>
      </trkpt>
      <trkpt lat="45.31983" lon="5.26724">
        <ele>409</ele>
        <time>2013-11-11T13:17:06Z</time>
      </trkpt>
      <trkpt lat="45.32003" lon="5.26722">
        <ele>407</ele>
        <time>2013-11-11T13:17:11Z</time>
      </trkpt>
      <trkpt lat="45.32024" lon="5.26721">
        <ele>407</ele>
        <time>2013-11-11T13:17:16Z</time>
      </trkpt>
      <trkpt lat="45.32044" lon="5.2672">
        <ele>407</ele>
        <time>2013-11-11T13:17:21Z</time>
      </trkpt>
      <trkpt lat="45.32066" lon="5.26718">
        <ele>406</ele>
        <time>2013-11-11T13:17:26Z</time>
      </trkpt>
      <trkpt lat="45.32086" lon="5.26717">
        <ele>404</ele>
        <time>2013-11-11T13:17:30Z</time>
      </trkpt>
      <trkpt lat="45.3211" lon="5.26717">
        <ele>404</ele>
        <time>2013-11-11T13:17:34Z</time>
      </trkpt>
      <trkpt lat="45.32128" lon="5.26715">
        <ele>403</ele>
        <time>2013-11-11T13:17:37Z</time>
      </trkpt>
      <trkpt lat="45.32147" lon="5.26715">
        <ele>403</ele>
        <time>2013-11-11T13:17:40Z</time>
      </trkpt>
      <trkpt lat="45.32166" lon="5.26714">
        <ele>403</ele>
        <time>2013-11-11T13:17:43Z</time>
      </trkpt>
      <trkpt lat="45.32186" lon="5.26713">
        <ele>401</ele>
        <time>2013-11-11T13:17:46Z</time>
      </trkpt>
      <trkpt lat="45.32207" lon="5.26712">
        <ele>401</ele>
        <time>2013-11-11T13:17:49Z</time>
      </trkpt>
      <trkpt lat="45.32228" lon="5.2671">
        <ele>401</ele>
        <time>2013-11-11T13:17:52Z</time>
      </trkpt>
      <trkpt lat="45.3225" lon="5.26711">
        <ele>401</ele>
        <time>2013-11-11T13:17:55Z</time>
      </trkpt>
      <trkpt lat="45.3227" lon="5.26711">
        <ele>400</ele>
        <time>2013-11-11T13:17:58Z</time>
      </trkpt>
      <trkpt lat="45.32289" lon="5.26709">
        <ele>400</ele>
        <time>2013-11-11T13:18:01Z</time>
      </trkpt>
      <trkpt lat="45.32308" lon="5.26708">
        <ele>400</ele>
        <time>2013-11-11T13:18:04Z</time>
      </trkpt>
      <trkpt lat="45.32326" lon="5.26705">
        <ele>400</ele>
        <time>2013-11-11T13:18:07Z</time>
      </trkpt>
      <trkpt lat="45.32346" lon="5.26703">
        <ele>399</ele>
        <time>2013-11-11T13:18:10Z</time>
      </trkpt>
      <trkpt lat="45.32365" lon="5.26701">
        <ele>398</ele>
        <time>2013-11-11T13:18:13Z</time>
      </trkpt>
      <trkpt lat="45.32384" lon="5.26699">
        <ele>398</ele>
        <time>2013-11-11T13:18:16Z</time>
      </trkpt>
      <trkpt lat="45.32403" lon="5.26697">
        <ele>398</ele>
        <time>2013-11-11T13:18:19Z</time>
      </trkpt>
      <trkpt lat="45.32424" lon="5.26696">
        <ele>397</ele>
        <time>2013-11-11T13:18:22Z</time>
      </trkpt>
      <trkpt lat="45.32444" lon="5.26694">
        <ele>397</ele>
        <time>2013-11-11T13:18:25Z</time>
      </trkpt>
      <trkpt lat="45.32466" lon="5.26692">
        <ele>397</ele>
        <time>2013-11-11T13:18:28Z</time>
      </trkpt>
      <trkpt lat="45.32487" lon="5.26692">
        <ele>397</ele>
        <time>2013-11-11T13:18:31Z</time>
      </trkpt>
      <trkpt lat="45.32508" lon="5.2669">
        <ele>397</ele>
        <time>2013-11-11T13:18:34Z</time>
      </trkpt>
      <trkpt lat="45.32529" lon="5.26688">
        <ele>396</ele>
        <time>2013-11-11T13:18:37Z</time>
      </trkpt>
      <trkpt lat="45.32551" lon="5.26686">
        <ele>396</ele>
        <time>2013-11-11T13:18:40Z</time>
      </trkpt>
      <trkpt lat="45.32573" lon="5.26685">
        <ele>395</ele>
        <time>2013-11-11T13:18:43Z</time>
      </trkpt>
      <trkpt lat="45.32594" lon="5.26683">
        <ele>393</ele>
        <time>2013-11-11T13:18:46Z</time>
      </trkpt>
      <trkpt lat="45.32613" lon="5.26681">
        <ele>393</ele>
        <time>2013-11-11T13:18:49Z</time>
      </trkpt>
      <trkpt lat="45.32633" lon="5.26678">
        <ele>392</ele>
        <time>2013-11-11T13:18:52Z</time>
      </trkpt>
      <trkpt lat="45.32654" lon="5.26676">
        <ele>391</ele>
        <time>2013-11-11T13:18:55Z</time>
      </trkpt>
      <trkpt lat="45.32676" lon="5.26676">
        <ele>389</ele>
        <time>2013-11-11T13:18:58Z</time>
      </trkpt>
      <trkpt lat="45.327" lon="5.26674">
        <ele>389</ele>
        <time>2013-11-11T13:19:01Z</time>
      </trkpt>
      <trkpt lat="45.32723" lon="5.26672">
        <ele>389</ele>
        <time>2013-11-11T13:19:04Z</time>
      </trkpt>
      <trkpt lat="45.32746" lon="5.26671">
        <ele>388</ele>
        <time>2013-11-11T13:19:07Z</time>
      </trkpt>
      <trkpt lat="45.32768" lon="5.26671">
        <ele>388</ele>
        <time>2013-11-11T13:19:10Z</time>
      </trkpt>
      <trkpt lat="45.32789" lon="5.2667">
        <ele>388</ele>
        <time>2013-11-11T13:19:13Z</time>
      </trkpt>
      <trkpt lat="45.32808" lon="5.2667">
        <ele>387</ele>
        <time>2013-11-11T13:19:16Z</time>
      </trkpt>
      <trkpt lat="45.32828" lon="5.26685">
        <ele>387</ele>
        <time>2013-11-11T13:19:20Z</time>
      </trkpt>
      <trkpt lat="45.32843" lon="5.26699">
        <ele>387</ele>
        <time>2013-11-11T13:19:24Z</time>
      </trkpt>
      <trkpt lat="45.32859" lon="5.26698">
        <ele>386</ele>
        <time>2013-11-11T13:19:33Z</time>
      </trkpt>
      <trkpt lat="45.3288" lon="5.26693">
        <ele>386</ele>
        <time>2013-11-11T13:19:58Z</time>
      </trkpt>
    </trkseg>
  </trk>
</gpx>